[[{"header":{"parameterUnit":"m.s-1","parameterCategory":1,"la1":30.6,"la2":28.766,"lo1":-90.7593,"lo2":-88.6598,"dx":0.0162,"dy":0.0183,"nx":116,"ny":114,"refTime":"2022-12-27T06:00:00:Z","depth":0,"parameterNumber":2,"parameterNumberName":"U-component_of_WINDS"},"data":[0.0,0.0,0.0,0.0,0.0,0.0,0.0,0.0,0.0,0.0,0.0,0.0,0.0,0.0,0.0,0.0,0.0,0.0,0.0,0.0,0.0,0.0,0.0,0.0,0.0,0.0,0.0,0.0,0.0,0.0,0.0,0.0,0.0,0.0,0.0,0.0,0.0,0.0,0.0,0.0,0.0,0.0,0.0,0.0,0.0,0.0,0.0,0.0,0.0,0.0,0.0,0.0,0.0,0.0,0.0,0.0,0.0,0.0,0.0,0.0,0.0,0.0,0.0,0.0,0.0,0.0,0.0,0.0,0.0,0.0,0.0,0.0,0.0,0.0,0.0,0.0,0.0,0.0,0.0,0.0,0.0,0.0,0.0,0.0,0.0,0.0,0.0,0.0,0.0,0.0,0.0,0.0,0.0,0.0,0.0,0.0,0.0,0.0,0.0,0.0,0.0,0.0,0.0,0.0,0.0,0.0,0.0,0.0,0.0,0.0,0.0,0.0,0.0,0.0,0.0,0.0,0.0,0.0,0.0,0.0,0.0,0.0,0.0,0.0,0.0,0.0,0.0,0.0,0.0,0.0,0.0,0.0,0.0,0.0,0.0,0.0,0.0,0.0,0.0,0.0,0.0,0.0,0.0,0.0,0.0,0.0,0.0,0.0,0.0,0.0,0.0,0.0,0.0,0.0,0.0,0.0,0.0,0.0,0.0,0.0,0.0,0.0,0.0,0.0,0.0,0.0,0.0,0.0,0.0,0.0,0.0,0.0,0.0,0.0,0.0,0.0,0.0,0.0,0.0,0.0,0.0,0.0,0.0,0.0,0.0,0.0,0.0,0.0,0.0,0.0,0.0,0.0,0.0,0.0,0.0,0.0,0.0,0.0,0.0,0.0,0.0,0.0,0.0,0.0,0.0,0.0,0.0,0.0,0.0,0.0,0.0,0.0,0.0,0.0,0.0,0.0,0.0,0.0,0.0,0.0,0.0,0.0,0.0,0.0,0.0,0.0,0.0,0.0,0.0,0.0,0.0,0.0,0.0,0.0,0.0,0.0,0.0,0.0,0.0,0.0,0.0,0.0,0.0,0.0,0.0,0.0,0.0,0.0,0.0,0.0,0.0,0.0,0.0,0.0,0.0,0.0,0.0,0.0,0.0,0.0,0.0,0.0,0.0,0.0,0.0,0.0,0.0,0.0,0.0,0.0,0.0,0.0,0.0,0.0,0.0,0.0,0.0,0.0,0.0,0.0,0.0,0.0,0.0,0.0,0.0,0.0,0.0,0.0,0.0,0.0,0.0,0.0,0.0,0.0,0.0,0.0,0.0,0.0,0.0,0.0,0.0,0.0,0.0,0.0,0.0,0.0,0.0,0.0,0.0,0.0,0.0,0.0,0.0,0.0,0.0,0.0,0.0,0.0,0.0,0.0,0.0,0.0,0.0,0.0,0.0,0.0,0.0,0.0,0.0,0.0,0.0,0.0,0.0,0.0,0.0,0.0,0.0,0.0,0.0,0.0,0.0,0.0,0.0,0.0,0.0,0.0,0.0,0.0,0.0,0.0,0.0,0.0,0.0,0.0,0.0,0.0,0.0,0.0,0.0,0.0,0.0,0.0,0.0,0.0,0.0,0.0,0.0,0.0,0.0,0.0,0.0,0.0,0.0,0.0,0.0,0.0,0.0,0.0,0.0,0.0,0.0,0.0,0.0,0.0,0.0,0.0,0.0,0.0,0.0,0.0,0.0,0.0,0.0,0.0,0.0,0.0,0.0,0.0,0.0,0.0,0.0,0.0,0.0,0.0,0.0,0.0,0.0,0.0,0.0,0.0,0.0,0.0,0.0,0.0,0.0,0.0,0.0,0.0,0.0,0.0,0.0,0.0,0.0,0.0,0.0,0.0,0.0,0.0,0.0,0.0,0.0,0.0,0.0,0.0,0.0,0.0,0.0,0.0,0.0,0.0,0.0,0.0,0.0,0.0,0.0,0.0,0.0,0.0,0.0,0.0,0.0,0.0,0.0,0.0,0.0,0.0,0.0,0.0,0.0,0.0,0.0,0.0,0.0,0.0,0.0,0.0,0.0,0.0,0.0,0.0,0.0,0.0,0.0,0.0,0.0,0.0,0.0,0.0,0.0,0.0,0.0,0.0,0.0,0.0,0.0,0.0,0.0,0.0,0.0,0.0,0.0,0.0,0.0,0.0,0.0,0.0,0.0,0.0,0.0,0.0,0.0,0.0,0.0,0.0,0.0,0.0,0.0,0.0,0.0,0.0,0.0,0.0,0.0,0.0,0.0,0.0,0.0,0.0,0.0,0.0,0.0,0.0,0.0,0.0,0.0,0.0,0.0,0.0,0.0,0.0,0.0,0.0,0.0,0.0,0.0,0.0,0.0,0.0,0.0,0.0,0.0,0.0,0.0,0.0,0.0,0.0,0.0,0.0,0.0,0.0,0.0,0.0,0.0,0.0,0.0,0.0,0.0,0.0,0.0,0.0,0.0,0.0,0.0,0.0,0.0,0.0,0.0,0.0,0.0,0.0,0.0,0.0,0.0,0.0,0.0,0.0,0.0,0.0,0.0,0.0,0.0,0.0,0.0,0.0,0.0,0.0,0.0,0.0,0.0,0.0,0.0,0.0,0.0,0.0,0.0,0.0,0.0,0.0,0.0,0.0,0.0,0.0,0.0,0.0,0.0,0.0,0.0,0.0,0.0,0.0,0.0,0.0,0.0,0.0,0.0,0.0,0.0,0.0,0.0,0.0,0.0,0.0,0.0,0.0,0.0,0.0,0.0,0.0,0.0,0.0,0.0,0.0,0.0,0.0,0.0,0.0,0.0,0.0,0.0,0.0,0.0,0.0,0.0,0.0,0.0,0.0,0.0,0.0,0.0,0.0,0.0,0.0,0.0,0.0,0.0,0.0,0.0,0.0,0.0,0.0,0.0,0.0,0.0,0.0,0.0,0.0,0.0,0.0,0.0,0.0,0.0,0.0,0.0,0.0,0.0,0.0,0.0,0.0,0.0,0.0,0.0,0.0,0.0,0.0,0.0,0.0,0.0,0.0,0.0,0.0,0.0,0.0,0.0,0.0,0.0,0.0,0.0,0.0,0.0,0.0,0.0,0.0,0.0,0.0,0.0,0.0,0.0,0.0,0.0,0.0,0.0,0.0,0.0,0.0,0.0,0.0,0.0,0.0,0.0,0.0,0.0,0.0,0.0,0.0,0.0,0.0,0.0,0.0,0.0,0.0,0.0,0.0,0.0,0.0,0.0,0.0,0.0,0.0,0.0,0.0,0.0,0.0,0.0,0.0,0.0,0.0,0.0,0.0,0.0,0.0,0.0,0.0,0.0,0.0,0.0,0.0,0.0,0.0,0.0,0.0,0.0,0.0,0.0,0.0,0.0,0.0,0.0,0.0,0.0,0.0,0.0,0.0,0.0,0.0,0.0,0.0,0.0,0.0,0.0,0.0,0.0,0.0,0.0,0.0,0.0,0.0,0.0,0.0,0.0,0.0,0.0,0.0,0.0,0.0,0.0,0.0,0.0,0.0,0.0,0.0,0.0,0.0,0.0,0.0,0.0,0.0,0.0,0.0,0.0,0.0,0.0,0.0,0.0,0.0,0.0,0.0,0.0,0.0,0.0,0.0,0.0,0.0,0.0,0.0,0.0,0.0,0.0,0.0,0.0,0.0,0.0,0.0,0.0,0.0,0.0,0.0,0.0,0.0,0.0,0.0,0.0,0.0,0.0,0.0,0.0,0.0,0.0,0.0,0.0,0.0,0.0,0.0,0.0,0.0,0.0,0.0,0.0,0.0,0.0,0.0,0.0,0.0,0.0,0.0,0.0,0.0,0.0,0.0,0.0,0.0,0.0,0.0,0.0,0.0,0.0,0.0,0.0,0.0,0.0,0.0,0.0,0.0,0.0,0.0,0.0,0.0,0.0,0.0,0.0,0.0,0.0,0.0,0.0,0.0,0.0,0.0,0.0,0.0,0.0,0.0,0.0,0.0,0.0,0.0,0.0,0.0,0.0,0.0,0.0,0.0,0.0,0.0,0.0,0.0,0.0,0.0,0.0,0.0,0.0,0.0,0.0,0.0,0.0,0.0,0.0,0.0,0.0,0.0,0.0,0.0,0.0,0.0,0.0,0.0,0.0,0.0,0.0,0.0,0.0,0.0,0.0,0.0,0.0,0.0,0.0,0.0,0.0,0.0,0.0,0.0,0.0,0.0,0.0,0.0,0.0,0.0,0.0,0.0,0.0,0.0,0.0,0.0,0.0,0.0,0.0,0.0,0.0,0.0,0.0,0.0,0.0,0.0,0.0,0.0,0.0,0.0,0.0,0.0,0.0,0.0,0.0,0.0,0.0,0.0,0.0,0.0,0.0,0.0,0.0,0.0,0.0,0.0,0.0,0.0,0.0,0.0,0.0,0.0,0.0,0.0,0.0,0.0,0.0,0.0,0.0,0.0,0.0,0.0,0.0,0.0,0.0,0.0,0.0,0.0,0.0,0.0,0.0,0.0,0.0,0.0,0.0,0.0,0.0,0.0,0.0,0.0,0.0,0.0,0.0,0.0,0.0,0.0,0.0,0.0,0.0,0.0,0.0,0.0,0.0,0.0,0.0,0.0,0.0,0.0,0.0,0.0,0.0,0.0,0.0,0.0,0.0,0.0,0.0,0.0,0.0,0.0,0.0,0.0,0.0,0.0,0.0,0.0,0.0,0.0,0.0,0.0,0.0,0.0,0.0,0.0,0.0,0.0,0.0,0.0,0.0,0.0,0.0,0.0,0.0,0.0,0.0,0.0,0.0,0.0,0.0,0.0,0.0,0.0,0.0,0.0,0.0,0.0,0.0,0.0,0.0,0.0,0.0,0.0,0.0,0.0,0.0,0.0,0.0,0.0,0.0,0.0,0.0,0.0,0.0,0.0,0.0,0.0,0.0,0.0,0.0,0.0,0.0,0.0,0.0,0.0,0.0,0.0,0.0,0.0,0.0,0.0,0.0,0.0,0.0,0.0,0.0,0.0,0.0,0.0,0.0,0.0,0.0,0.0,0.0,0.0,0.0,0.0,0.0,0.0,0.0,0.0,0.0,0.0,0.0,0.0,0.0,0.0,0.0,0.0,0.0,0.0,0.0,0.0,0.0,0.0,0.0,0.0,0.0,0.0,0.0,0.0,0.0,0.0,0.0,0.0,0.0,0.0,0.0,0.0,0.0,0.0,0.0,0.0,0.0,0.0,0.0,0.0,0.0,0.0,0.0,0.0,0.0,0.0,0.0,0.0,0.0,0.0,0.0,0.0,0.0,0.0,0.0,0.0,0.0,0.0,0.0,0.0,0.0,0.0,0.0,0.0,0.0,0.0,0.0,0.0,0.0,0.0,0.0,0.0,0.0,0.0,0.0,0.0,0.0,0.0,0.0,0.0,0.0,0.0,0.0,0.0,0.0,0.0,0.0,0.0,0.0,0.0,0.0,0.0,0.0,0.0,0.0,0.0,0.0,0.0,0.0,0.0,0.0,0.0,0.0,0.0,0.0,0.0,0.0,0.0,0.0,0.0,0.0,0.0,0.0,0.0,0.0,0.0,0.0,0.0,0.0,0.0,0.0,0.0,0.0,0.0,0.0,0.0,0.0,0.0,0.0,0.0,0.0,0.0,0.0,0.0,0.0,0.0,0.0,0.0,0.0,0.0,0.0,0.0,0.0,0.0,0.0,0.0,0.0,0.0,0.0,0.0,0.0,0.0,0.0,0.0,0.0,0.0,0.0,0.0,0.0,0.0,0.0,0.0,0.0,0.0,0.0,0.0,0.0,0.0,0.0,0.0,0.0,0.0,0.0,0.0,0.0,0.0,0.0,0.0,0.0,0.0,0.0,0.0,0.0,0.0,0.0,0.0,0.0,0.0,0.0,0.0,0.0,0.0,0.0,0.0,0.0,0.0,0.0,0.0,0.0,0.0,0.0,0.0,0.0,0.0,0.0,0.0,0.0,0.0,0.0,0.0,0.0,0.0,0.0,0.0,0.0,0.0,0.0,0.0,0.0,0.0,0.0,0.0,0.0,0.0,0.0,0.0,0.0,0.0,0.0,0.0,0.0,0.0,0.0,0.0,0.0,0.0,0.0,0.0,-4.6407,-4.3784,0.0,0.0,0.0,0.0,0.0,0.0,0.0,0.0,0.0,0.0,0.0,0.0,0.0,0.0,0.0,0.0,0.0,0.0,0.0,0.0,0.0,0.0,0.0,0.0,0.0,0.0,0.0,0.0,0.0,0.0,0.0,0.0,0.0,0.0,0.0,0.0,-2.1913,-2.2607,-2.376,-2.5022,-2.6384,-2.5843,-2.5466,-2.5258,0.0,0.0,0.0,0.0,0.0,0.0,0.0,0.0,0.0,0.0,0.0,0.0,0.0,0.0,0.0,0.0,0.0,0.0,0.0,0.0,0.0,0.0,0.0,0.0,0.0,0.0,0.0,0.0,0.0,0.0,0.0,0.0,0.0,0.0,0.0,0.0,0.0,0.0,0.0,0.0,0.0,0.0,0.0,0.0,0.0,0.0,0.0,0.0,0.0,0.0,0.0,0.0,0.0,0.0,0.0,0.0,0.0,0.0,0.0,0.0,0.0,0.0,0.0,0.0,0.0,0.0,0.0,0.0,0.0,0.0,-4.8804,-4.6407,0.0,0.0,0.0,0.0,0.0,0.0,0.0,0.0,0.0,0.0,0.0,0.0,0.0,0.0,0.0,0.0,0.0,0.0,0.0,0.0,0.0,0.0,0.0,0.0,-1.7758,-1.954,-1.9828,-2.0378,0.0,0.0,0.0,0.0,0.0,0.0,0.0,-2.2349,-2.2781,-2.3097,-2.4943,-2.661,-2.812,-2.8812,-2.8675,-2.7901,-2.726,0.0,0.0,0.0,0.0,0.0,0.0,0.0,0.0,0.0,0.0,0.0,0.0,0.0,0.0,0.0,0.0,0.0,0.0,0.0,0.0,0.0,0.0,0.0,0.0,0.0,0.0,0.0,0.0,0.0,0.0,0.0,0.0,0.0,0.0,0.0,0.0,0.0,0.0,0.0,0.0,0.0,0.0,0.0,0.0,0.0,0.0,0.0,0.0,0.0,0.0,0.0,0.0,0.0,0.0,0.0,0.0,0.0,0.0,0.0,0.0,0.0,0.0,0.0,-5.3744,-5.4214,-5.4088,-5.4088,-5.3952,-5.3499,-5.0119,-4.844,-4.7968,-4.7013,0.0,0.0,0.0,0.0,0.0,0.0,0.0,0.0,0.0,0.0,0.0,0.0,0.0,0.0,0.0,0.0,0.0,0.0,0.0,0.0,0.0,-1.812,-1.8792,-1.9618,-2.0228,-2.0887,0.0,0.0,0.0,0.0,0.0,0.0,-2.239,-2.285,-2.3928,-2.5548,-2.7626,-2.9022,-2.9695,-3.0382,-3.0913,-3.1182,-2.9274,-2.8118,-2.7508,0.0,0.0,0.0,0.0,0.0,0.0,0.0,0.0,0.0,0.0,0.0,0.0,0.0,0.0,0.0,0.0,0.0,0.0,0.0,0.0,0.0,0.0,0.0,0.0,0.0,0.0,0.0,0.0,0.0,0.0,0.0,0.0,0.0,0.0,0.0,0.0,0.0,0.0,0.0,0.0,0.0,-4.1023,-4.0558,0.0,0.0,0.0,0.0,0.0,0.0,0.0,0.0,0.0,0.0,0.0,0.0,0.0,-5.1718,-5.1781,-5.3509,-5.4123,-5.3596,-5.3996,-5.3911,-5.3356,-5.3356,-5.332,-5.3236,-5.2725,0.0,-5.0051,-4.9387,0.0,0.0,0.0,0.0,0.0,0.0,0.0,0.0,0.0,0.0,0.0,0.0,0.0,0.0,0.0,0.0,0.0,0.0,0.0,0.0,0.0,-1.9989,-2.1096,-2.2862,-2.364,-2.4148,-2.4418,-2.4448,0.0,0.0,0.0,-2.3502,-2.4055,-2.4123,-2.5308,-2.7616,-2.8569,-2.9616,-3.079,-3.1084,-3.1354,-3.1598,-3.0646,-2.9874,-2.9231,-2.8343,0.0,0.0,0.0,0.0,0.0,0.0,0.0,0.0,0.0,0.0,0.0,0.0,0.0,0.0,0.0,0.0,0.0,0.0,0.0,0.0,0.0,0.0,0.0,0.0,0.0,0.0,0.0,0.0,0.0,0.0,0.0,0.0,0.0,0.0,0.0,0.0,0.0,0.0,0.0,-4.1404,-4.1869,-4.2231,-4.327,-4.453,0.0,0.0,0.0,0.0,0.0,0.0,0.0,0.0,0.0,-5.1548,-5.2153,-5.2517,-5.2745,-5.3861,-5.4127,-5.3489,-5.4349,-5.461,-5.4311,-5.4311,-5.4311,-5.4281,-5.3922,-5.3327,-5.2546,-5.2133,-5.1911,-5.1764,0.0,0.0,0.0,0.0,-4.6639,-4.6448,0.0,0.0,0.0,0.0,0.0,0.0,0.0,0.0,0.0,0.0,0.0,0.0,-2.0976,-2.2263,-2.3819,-2.5914,-2.6722,-2.7111,-2.7111,-2.6907,0.0,0.0,-2.5083,-2.4873,-2.5408,-2.5618,-2.6849,-2.9113,-2.9515,-3.0482,-3.1838,-3.1964,-3.2114,-3.224,-3.2089,-3.1549,-3.0673,-2.9504,-2.8633,-2.7877,0.0,0.0,0.0,0.0,0.0,0.0,0.0,0.0,0.0,0.0,0.0,0.0,0.0,0.0,0.0,0.0,0.0,0.0,0.0,0.0,0.0,0.0,0.0,0.0,0.0,0.0,0.0,0.0,0.0,0.0,0.0,0.0,0.0,0.0,0.0,0.0,0.0,-4.2716,-4.3358,-4.4412,-4.5341,-4.6509,0.0,0.0,0.0,0.0,0.0,0.0,-5.0695,-5.1871,-5.2883,-5.3484,-5.3162,-5.3125,-5.3443,-5.4132,-5.4192,-5.3713,-5.47,-5.5179,-5.5179,-5.5179,-5.5179,-5.5149,-5.467,-5.4461,-5.4391,-5.3844,-5.3607,-5.3582,-5.289,-5.2562,-5.2331,-5.0603,-4.9978,-5.007,0.0,0.0,0.0,0.0,0.0,0.0,0.0,0.0,0.0,0.0,0.0,-2.1724,-2.2523,-2.4859,-2.6656,-2.7435,-2.8098,-2.8487,-2.8487,-2.771,-2.7192,-2.7026,-2.567,-2.5165,-2.5739,-2.7181,-2.8536,-2.9754,-3.1286,-3.2365,-3.3036,-3.352,-3.4048,-3.4525,-3.3997,-3.286,-3.1312,-3.0336,-3.0262,-3.0566,-2.7958,0.0,0.0,0.0,0.0,0.0,0.0,0.0,0.0,0.0,0.0,0.0,0.0,0.0,0.0,0.0,0.0,0.0,0.0,0.0,0.0,0.0,0.0,0.0,0.0,0.0,0.0,0.0,0.0,0.0,0.0,0.0,0.0,0.0,0.0,0.0,0.0,0.0,0.0,-4.7031,-4.8492,0.0,0.0,0.0,0.0,-5.2917,-5.3659,-5.3607,-5.2537,-5.3262,-5.3576,-5.323,-5.3841,-5.4121,-5.4162,-5.482,-5.5119,-5.5089,-5.5149,-5.5179,-5.5179,-5.5179,-5.5179,-5.5179,-5.5149,-5.5149,-5.5029,-5.3781,-5.4235,-5.569,-5.428,-5.4737,-5.5918,-5.3502,-5.2595,-5.2555,0.0,0.0,0.0,-1.7356,-1.7126,-1.6972,-1.696,-1.6936,-1.7588,-1.939,-2.0857,-2.2592,-2.4949,-2.6331,-2.79,-2.9928,-2.9667,-2.9625,-3.0191,-2.9355,-2.8472,-2.7605,-2.6608,-2.6447,-2.7274,-2.8571,-3.008,-3.1913,-3.2491,-3.3244,-3.4148,-3.4349,-3.4525,-3.468,-3.4525,-3.4098,-3.342,-3.2025,-3.117,-3.0637,-2.9299,-2.8673,0.0,0.0,0.0,0.0,0.0,0.0,0.0,0.0,0.0,0.0,0.0,0.0,0.0,0.0,0.0,0.0,0.0,0.0,0.0,0.0,0.0,0.0,0.0,0.0,0.0,0.0,0.0,0.0,0.0,0.0,0.0,0.0,0.0,0.0,0.0,0.0,0.0,-4.8579,-4.9418,0.0,-5.1319,-5.1698,-5.2076,-5.2505,-5.3224,-5.3572,-5.3633,-5.3905,-5.4213,-5.4511,-5.5119,-5.5478,-5.5478,-5.6107,-5.6406,-5.6406,-5.6406,-5.6406,-5.6406,-5.6017,-5.5807,-5.5807,-5.5388,-5.5651,-5.6317,-5.5827,-5.5359,-5.4789,-5.4256,-5.4209,-5.4359,-5.4282,-5.4233,-5.4371,0.0,0.0,0.0,-1.7211,-1.6939,-1.6934,-1.7362,-1.7407,-1.8267,-2.0737,-2.2383,-2.4149,-2.6288,-2.7752,-2.9319,-3.1123,-3.0781,-3.0609,-3.0966,-2.9964,-2.8975,-2.8066,-2.7656,-2.7924,-2.8925,-3.003,-3.1411,-3.3111,-3.3646,-3.4274,-3.4956,-3.5203,-3.5278,-3.5278,-3.5278,-3.5177,-3.4881,-3.3778,-3.2616,-3.1386,-3.0633,-2.9999,-2.9269,0.0,0.0,0.0,0.0,0.0,0.0,0.0,0.0,0.0,0.0,0.0,0.0,0.0,0.0,0.0,0.0,0.0,0.0,0.0,0.0,0.0,0.0,0.0,0.0,0.0,0.0,0.0,0.0,0.0,0.0,0.0,0.0,0.0,0.0,0.0,-5.021,-4.9959,-5.069,-5.1319,-5.1528,-5.1977,-5.2396,-5.2845,-5.3683,-5.4401,-5.485,-5.5059,-5.5388,-5.5807,-5.6256,-5.6466,-5.6466,-5.6885,-5.7094,-5.7094,-5.7094,-5.7094,-5.7094,-5.6675,-5.6466,-5.6466,-5.6017,-5.6285,-5.707,-5.7528,-5.6972,-5.5838,-5.5791,-5.5476,-5.5189,-5.5998,-5.6044,-5.5814,0.0,0.0,-1.7577,-1.6933,-1.6805,-1.7015,-1.7631,-1.8296,-1.948,-2.1545,-2.4597,-2.6544,-2.6414,-2.9231,-3.1044,-3.0809,-3.1323,-3.1433,-3.0819,-2.9497,-2.866,-2.8531,-2.8788,-2.9465,-3.0633,-3.1712,-3.2541,-3.3144,-3.4731,-3.5508,-3.5533,-3.6107,-3.6405,-3.6405,-3.6405,-3.6081,-3.5533,-3.5533,-3.4625,-3.3068,-3.1913,-3.1461,-3.1185,0.0,0.0,0.0,0.0,0.0,0.0,0.0,0.0,0.0,0.0,0.0,0.0,0.0,0.0,0.0,0.0,0.0,0.0,0.0,0.0,0.0,0.0,0.0,0.0,0.0,0.0,0.0,0.0,0.0,0.0,0.0,0.0,0.0,-4.9704,-5.0907,-5.1648,-5.1293,-5.2396,-5.2935,-5.2306,-5.3443,-5.4221,-5.4251,-5.5448,-5.6248,-5.6248,-5.6765,-5.7094,-5.7094,-5.7124,-5.7124,-5.7124,-5.7154,-5.7154,-5.7154,-5.7206,-5.7206,-5.7154,-5.7176,-5.7176,-5.7176,-5.7146,-5.7198,-5.7406,-5.872,-5.9314,-5.9336,-5.9009,-5.8876,-5.8876,-5.8876,-5.8148,-5.7081,-1.7783,-1.7612,-1.7296,-1.6863,-1.7007,-1.7435,-1.829,-1.9001,-2.0647,-2.4088,-2.5734,-2.7102,-2.8339,-2.9153,-2.9923,-3.0748,-2.9759,-2.9317,-2.9835,-2.9632,-2.949,-2.9452,-2.987,-3.0618,-3.1763,-3.2466,-3.3495,-3.4831,-3.5282,-3.5708,-3.6132,-3.6329,-3.6405,-3.6405,-3.6405,-3.6329,-3.6132,-3.6132,-3.5655,-3.4731,-3.3671,-3.2717,-3.1996,0.0,0.0,0.0,0.0,0.0,0.0,0.0,0.0,0.0,0.0,0.0,0.0,0.0,0.0,0.0,0.0,0.0,0.0,0.0,0.0,0.0,0.0,0.0,0.0,0.0,0.0,0.0,0.0,0.0,0.0,0.0,-4.8779,-5.0035,-5.008,-5.2041,-5.3302,-5.2714,-5.2965,-5.3114,-5.2935,-5.3713,-5.4401,-5.488,-5.6107,-5.6825,-5.6825,-5.7004,-5.7094,-5.7094,-5.7573,-5.7842,-5.7842,-5.8321,-5.856,-5.856,-5.9497,-5.9444,-5.8584,-5.9061,-5.9276,-5.9246,-5.8754,-5.9892,-6.2095,-6.2418,-6.3412,-6.4399,-6.1549,-6.0376,-6.0376,-6.0362,-6.0325,-6.0344,-1.7783,-1.7647,-1.7356,-1.6863,-1.7205,-1.7772,-1.8577,-1.951,-2.1425,-2.5136,-2.6422,-2.7606,-2.9146,-2.9108,-2.9311,-3.0113,-2.8705,-2.82,-2.9176,-2.9352,-2.9654,-3.0105,-3.0859,-3.1813,-3.2893,-3.3696,-3.4575,-3.5508,-3.578,-3.6056,-3.6405,-3.6405,-3.6405,-3.6405,-3.6405,-3.6405,-3.6405,-3.6405,-3.6485,-3.6519,-3.5923,-3.4666,-3.3262,-3.345,-3.2843,-3.1991,-3.2409,-3.214,-3.1472,-3.113,0.0,0.0,0.0,0.0,0.0,0.0,0.0,0.0,0.0,0.0,0.0,0.0,0.0,0.0,0.0,0.0,0.0,0.0,0.0,0.0,0.0,0.0,0.0,0.0,-5.0516,-5.1468,-5.1468,-5.2815,-5.3623,-5.3234,-5.3174,-5.3084,-5.2785,-5.3892,-5.479,-5.5149,-5.6645,-5.7513,-5.7513,-5.7782,-5.7932,-5.7932,-5.8321,-5.853,-5.853,-5.8919,-5.9099,-5.9099,-6.038,-6.0609,-5.994,-6.087,-6.1487,-6.1739,-6.1379,-6.2444,-6.4491,-6.4996,-6.5879,-6.6711,0.0,0.0,0.0,0.0,-6.3001,-6.332,-1.7783,-1.776,-1.7566,-1.6952,-1.7385,-1.8057,-1.8661,-1.9917,-2.1974,-2.5285,-2.6896,-2.8195,-2.9377,-2.9397,-2.9438,-2.9661,-2.8357,-2.7954,-2.895,-2.9038,-2.9654,-3.0834,-3.1863,-3.2918,-3.4073,-3.5006,-3.5533,-3.5583,-3.6132,-3.6405,-3.6405,-3.6405,-3.6405,-3.6405,-3.6405,-3.6524,-3.6716,-3.6716,-3.7418,-3.852,-3.852,-3.7175,-3.5079,-3.4262,-3.4481,-3.5073,-3.4231,-3.4121,-3.4371,-3.4315,0.0,0.0,0.0,0.0,0.0,0.0,0.0,0.0,0.0,0.0,0.0,0.0,0.0,0.0,0.0,0.0,0.0,0.0,0.0,0.0,0.0,0.0,0.0,0.0,-5.25,-5.3204,-5.3294,-5.3234,-5.3174,-5.3174,-5.3174,-5.2995,-5.2486,-5.4102,-5.5209,-5.5299,-5.7064,-5.8112,-5.8112,-5.874,0.0,0.0,0.0,-5.9099,-5.9099,-5.9099,-5.9099,-5.9099,-6.0536,-6.1142,-6.104,-6.2536,-6.3565,-6.4192,-6.4192,-6.4739,-6.5724,-6.6856,-6.742,-6.7546,-6.7204,-6.6965,-6.6675,-6.5713,-6.5614,-6.5708,-1.7783,-1.7601,-1.7356,-1.7236,-1.7713,-1.8331,-1.9003,-2.0473,-2.2682,-2.5974,-2.756,-2.9028,-3.0678,-3.1298,-3.1504,-3.1358,-2.9961,-2.9248,-2.9591,-3.003,-3.0984,-3.2541,-3.3219,-3.4098,-3.5157,-3.5382,-3.5755,-3.6207,-3.6355,-3.6405,-3.6405,-3.6405,-3.6405,-3.6405,-3.6405,-3.722,-3.8588,-3.8588,-3.9566,-4.1068,-4.1068,-3.9902,-3.8242,-3.888,-3.849,-3.7634,-3.8303,-3.8054,-3.7297,-3.6877,-3.6443,-3.6063,-3.614,-3.624,0.0,0.0,0.0,0.0,0.0,0.0,0.0,0.0,0.0,0.0,0.0,0.0,0.0,0.0,0.0,0.0,0.0,0.0,0.0,-5.1347,-5.236,-5.3384,-5.3922,-5.3533,-5.3174,-5.3174,-5.3174,-5.3354,-5.3773,-5.464,-5.5418,-5.6008,-5.7304,-5.8112,-5.8112,-5.874,-5.9099,-5.9099,-5.9099,-5.9099,-5.9099,-5.9099,-5.9099,-5.9153,-6.1477,0.0,-6.1091,-6.3417,-6.4617,-6.4748,-6.4748,-6.6085,-6.835,-6.8606,-6.9401,-7.0355,-6.9127,-6.797,-6.7082,-6.74,-6.6905,-6.5988,-1.7783,-1.767,-1.7486,-1.7332,-1.8122,-1.877,-1.8718,-2.0574,-2.2859,-2.5279,-2.6782,-2.8327,-3.019,-3.0597,-3.0802,-3.0954,-3.0261,-2.9861,-2.9806,-3.0557,-3.1738,-3.342,-3.4022,-3.47,-3.5483,-3.5805,-3.6081,-3.6405,-3.6405,-3.6405,-3.6405,-3.6405,-3.6709,-3.7243,-3.7619,-3.8576,-3.9961,-4.0304,-4.1332,-4.2713,-4.2713,-4.2281,-4.1616,-4.1341,-4.1085,-4.0958,-4.1532,-4.1497,-4.1163,-4.0567,-3.9971,-3.9528,-3.9528,-3.9428,-3.9188,0.0,0.0,0.0,0.0,0.0,0.0,0.0,0.0,0.0,0.0,0.0,0.0,0.0,0.0,-4.9556,-4.9847,0.0,-5.2378,-5.2222,-5.2755,-5.3294,-5.3653,-5.3384,-5.3294,-5.3653,-5.3683,-5.3832,-5.4192,-5.5089,-5.5807,-5.6188,-5.7064,-5.7603,-5.7603,-5.7932,-5.8261,-5.859,-5.862,-5.877,-5.9099,-5.9705,-5.9705,-5.9153,-6.1728,-6.2634,-6.2094,-6.4012,-6.5459,-6.6389,-6.6389,-6.7645,-6.9688,-7.006,-7.0635,-7.1244,-7.05,-6.9772,-6.924,-6.9595,-6.9323,-6.8483,-1.7817,-1.7918,-1.7917,-1.765,-1.8594,-1.9214,-1.8608,-2.056,-2.2661,-2.4192,-2.5585,-2.7171,-2.9202,-2.9604,-2.9898,-3.0293,-3.0691,-3.0765,-3.0355,-3.1496,-3.2931,-3.4622,-3.5116,-3.568,-3.6345,-3.6852,-3.7083,-3.7083,-3.7083,-3.7083,-3.7083,-3.7083,-3.754,-3.8496,-3.8994,-4.0042,-4.1363,-4.1909,-4.2988,-4.4313,-4.4313,-4.4448,-4.456,-4.3341,-4.3152,-4.3557,-4.3557,-4.3784,-4.4047,-4.3618,-4.318,-4.283,-4.3099,-4.271,-4.1983,-4.1205,-4.1265,0.0,0.0,0.0,0.0,0.0,0.0,0.0,0.0,-4.6052,-4.7459,-4.8117,-4.9733,-5.1122,-5.1708,-5.2217,-5.2755,-5.3294,-5.3264,-5.3234,-5.3354,-5.3384,-5.3623,-5.4311,-5.4281,-5.4251,-5.4401,-5.5359,-5.6038,-5.6038,-5.6555,-5.6974,-5.7094,-5.7214,-5.7603,-5.8291,-5.8201,-5.8518,-5.9469,-6.0362,-6.0517,-5.9895,-6.2242,-6.3387,-6.3402,-6.4688,-6.6155,-6.7692,-6.7827,-6.8605,-6.9823,-7.0737,-7.1109,-7.1109,-7.1244,-7.1312,-7.1312,-7.1312,-7.1312,-7.0961,-1.7918,-1.8335,-1.8775,-1.874,-1.9113,-1.946,-1.9667,-2.0672,-2.1964,-2.3524,-2.4896,-2.6482,-2.8487,-3.0229,-3.1191,-3.111,-3.2573,-3.3136,-3.2343,-3.3875,-3.565,-3.7441,-3.7659,-3.8261,-3.9382,-3.9464,-3.9492,-3.9492,-3.9492,-3.9492,-3.9492,-3.9492,-3.9579,-3.9711,-3.9793,-4.1131,-4.3271,-4.3357,-4.4778,-4.6897,-4.6897,-4.6552,-4.613,-4.6542,-4.528,-4.3339,-4.3339,-4.3389,-4.3469,-4.3977,-4.4167,-4.4317,-4.5514,-4.5394,-4.4616,-4.3319,-4.2641,-4.1991,-4.0546,-4.1624,-4.3349,-4.4556,-4.5813,-4.7219,0.0,-5.0092,-5.084,-5.1528,-5.2785,-5.3803,-5.3862,-5.3952,-5.4012,-5.4072,-5.3593,-5.3384,-5.4012,-5.4102,-5.4341,-5.4999,-5.4551,-5.4431,-5.5029,-5.5209,-5.5299,-5.5299,-5.5897,-5.6526,-5.7064,-5.7663,-5.8321,-5.8979,-5.8441,-5.8964,-6.0764,-6.038,-6.0983,-6.2568,-6.4045,-6.4688,-6.4733,-6.5985,-6.672,-6.6981,-6.7624,-6.7996,-6.8267,-6.9722,-7.0297,-7.0398,-7.1041,-7.1312,-7.1312,-7.1312,-7.1312,-7.1052,-1.9135,-1.9338,-1.9688,-2.0175,-2.035,-2.0409,-2.0275,-2.1279,-2.2378,-2.3315,-2.4259,-2.5364,-2.6716,-2.8637,-2.9711,-2.952,-3.1559,-3.2454,-3.1475,-3.3183,-3.5002,-3.6821,-3.6932,-3.7676,-3.9262,-3.9317,-3.9526,-3.9913,-3.9913,-3.9913,-3.9913,-3.9913,-4.0232,-4.0901,-4.1284,-4.2408,-4.4044,-4.4428,-4.5183,-4.6142,-4.6142,-4.5753,-4.5214,-4.5873,-4.5214,-4.3917,-4.4347,-4.4466,0.0,-4.4347,-4.4317,-4.4496,-4.5424,-4.5274,-4.4588,-4.3753,-4.4228,-4.5131,-4.5743,-4.6467,-4.7189,-4.7542,-4.8596,-4.9793,-5.0584,-5.1618,-5.2546,-5.3234,-5.4132,-5.491,-5.5269,-5.5029,-5.479,-5.479,-5.4221,-5.3892,-5.4162,-5.4221,-5.4461,-5.5119,-5.494,-5.488,-5.5149,-5.5179,-5.5359,-5.5718,-5.6068,-5.6436,-5.7064,-5.7363,-5.7842,-5.853,-5.8261,-5.9039,-6.0989,-6.1972,-6.2614,-6.3004,-6.4747,-6.5342,-6.4914,-6.547,-6.6105,-6.6846,-6.759,-6.7895,-6.7996,-6.9113,-6.9553,-6.9586,-6.9891,-7.0026,-7.0128,-7.1007,-7.1582,-7.1739,-2.0035,-2.0183,-2.0521,-2.1089,-2.136,-2.1359,-2.0864,-2.1665,-2.2475,-2.2892,-2.3371,-2.4133,-2.5387,-2.6855,-2.8003,-2.8576,-3.0484,-3.1659,-3.1667,-3.2772,-3.4417,-3.6644,-3.656,-3.7349,-3.925,-3.9319,-3.9743,-4.0605,-4.0605,-4.0661,-4.0831,-4.0831,-4.1281,-4.2099,-4.2607,-4.3343,-4.4347,-4.4825,-4.5125,-4.5304,-4.5304,-4.4915,-4.4377,-4.5035,-4.4809,-4.4157,-4.4788,-4.521,-4.5324,-4.4881,-4.4737,-4.4913,-4.5544,-4.5422,-4.4939,-4.4489,-4.5753,-4.7606,-4.8922,-4.9791,-5.0278,-4.993,-5.093,-5.2037,-5.2037,-5.3164,-5.4419,-5.4854,-5.5633,-5.6335,-5.6823,-5.6518,-5.6145,-5.6012,-5.5448,-5.4937,-5.478,-5.4581,-5.467,-5.5119,-5.5359,-5.5478,-5.5478,-5.5478,-5.5658,-5.6188,-5.6316,-5.6705,-5.7334,-5.7393,-5.7693,-5.8381,-5.8231,-5.9039,-6.0989,-6.2865,-6.3822,-6.3867,-6.5679,-6.6223,-6.5692,-6.5492,-6.5942,-6.6846,-6.7354,-6.759,-6.7658,-6.8436,-6.8774,-6.8808,-6.9011,-6.9214,-6.9519,-7.0601,-7.1345,-7.1604,-2.0137,-2.0636,-2.1156,-2.119,-2.1786,-2.2118,-2.1657,-2.1597,-2.1724,-2.2015,-2.2075,-2.2893,-2.5058,-2.5553,-2.6693,-2.9231,-3.0129,-3.1618,-3.4112,-3.3789,-3.4946,-3.8202,-3.7689,-3.8286,-4.0286,-4.0345,-4.101,-4.2294,-4.2294,-4.2623,-4.321,-4.321,-4.321,-4.325,-4.328,-4.3678,-4.4317,-4.4347,-4.4706,-4.5304,-4.5304,-4.4915,-4.4377,-4.5035,-4.4567,-4.3598,-4.4118,-4.4929,-4.5688,-4.5758,-4.5865,-4.6152,-4.6752,-4.6943,-4.6784,-4.6088,-4.7097,-4.8265,-4.7941,-4.9801,-5.1739,-5.1239,-5.2665,-5.4132,-5.4132,-5.5536,-5.6881,-5.6912,-5.7869,-5.8677,-5.8709,-5.8767,-5.8596,-5.8004,-5.7442,-5.6823,-5.6191,-5.5568,-5.5179,-5.5179,-5.5748,-5.6188,-5.6188,-5.6188,-5.6188,-5.6218,-5.6735,-5.7363,-5.8052,-5.8082,-5.8411,-5.9069,-5.8471,-5.9039,-6.0989,-6.239,-6.4074,-6.5956,-6.7221,-6.7852,-6.7784,-6.7075,-6.677,-6.6812,-6.6846,-6.6846,-6.6914,-6.7624,-6.7929,-6.7996,-6.8808,-6.9553,-7.0161,-7.0195,-7.0229,-7.0153,-2.1569,-2.1738,-2.1921,-2.1921,-2.2144,-2.2237,-2.2075,-2.2061,-2.2134,-2.2378,-2.2548,0.0,0.0,0.0,0.0,0.0,-3.0078,-3.1373,-3.2352,-3.3459,-3.4787,-3.6349,-3.6658,-3.7748,-3.9835,-3.9866,-4.0551,-4.1922,-4.2427,-4.2519,-4.2181,-4.2677,-4.2834,-4.2671,-4.2671,-4.306,-4.3618,-4.3618,-4.4176,-4.4925,-4.4427,-4.4469,-4.4909,-4.5597,-4.5238,-4.4508,0.0,-4.4741,-4.3854,-4.4397,-4.496,-4.5623,-4.6702,-4.7089,-4.7465,-4.8958,-5.0509,-5.2011,-5.3083,-5.4746,-5.6069,-5.5645,-5.643,-5.7136,-5.662,-5.7396,-5.7892,-5.6852,-5.7401,-5.8064,-5.7943,-5.8371,-5.8632,-5.843,-5.8683,-5.8515,-5.7556,-5.7925,-5.7876,-5.6582,-5.7456,-5.778,-5.6869,-5.6795,-5.6974,-5.7423,-5.7663,-5.8082,-5.874,-5.877,-5.889,-5.9099,-5.889,-5.9493,-6.0989,-6.2833,-6.4268,-6.5309,-6.703,-6.7895,-6.7895,-6.7658,-6.7252,-6.6812,-6.6812,-6.6812,-6.6846,-6.7083,-6.7184,-6.7252,-6.7996,-6.847,-6.8688,-6.8748,-6.8805,-6.8925,-2.2313,-2.2313,-2.2313,-2.2313,-2.2313,0.0,0.0,0.0,0.0,0.0,0.0,0.0,0.0,0.0,0.0,0.0,0.0,-3.0488,-3.1235,-3.2357,-3.3481,-3.4609,-3.514,-3.6282,-3.8068,-3.81,-3.8926,-4.0579,-4.1024,-4.1399,-4.1647,-4.2119,-4.259,-4.2978,-4.2695,-4.2904,-4.3547,-4.3547,-4.4236,-4.5175,-4.3877,-4.4078,-4.508,-4.4982,-4.4479,0.0,-4.504,-4.4366,-4.3163,-4.4172,-4.5048,-4.5865,-4.6679,-4.7399,-4.8487,-5.1488,-5.3277,-5.4661,-5.647,-5.7811,-5.865,-5.8224,-5.8268,-5.8256,-5.7808,-5.8417,-5.8788,-5.7764,-5.8343,-5.8965,-5.888,-5.9239,-5.9501,-5.9294,-5.9702,-5.9826,-5.916,-5.9535,-5.9396,-5.7973,-5.8589,-5.8662,-5.7581,-5.7453,-5.7633,-5.8082,-5.8351,-5.865,-5.9069,-5.9099,-5.9099,-5.9099,-5.9099,-5.9469,-6.0328,-6.2838,-6.4764,-6.6002,-6.7584,-6.8166,-6.7895,-6.7895,-6.7658,-6.7184,-6.6914,-6.6812,-6.6846,-6.7083,-6.7184,-6.7286,-6.803,-6.8504,-6.8678,-6.8255,-6.7961,-6.7851,-2.2313,-2.2313,-2.2313,0.0,0.0,0.0,0.0,0.0,0.0,0.0,0.0,0.0,0.0,0.0,0.0,0.0,0.0,0.0,-3.0937,-3.0665,-3.127,-3.3188,-3.3393,-3.409,-3.5322,-3.5354,-3.6342,-3.8348,-3.838,-3.9431,-4.1374,-4.1406,-4.2202,-4.3577,-4.2839,-4.2968,-4.3737,-4.3769,-4.4635,-4.5795,-4.3577,-4.3611,-4.4802,-4.3324,-4.2425,-4.2114,-4.3687,-4.3864,-4.3535,-4.4851,-4.6021,-4.6887,-4.7056,-4.8173,-5.0067,-5.3687,-5.531,-5.6277,-5.7999,-5.9045,-5.953,-5.9097,-5.8478,-5.7921,-5.7824,-5.8753,-5.9581,-5.9449,-6.0391,-6.1231,-6.1197,-6.1197,-6.1015,-6.0481,-6.0529,-6.0715,-6.0913,-6.0468,-5.9879,-5.9283,-5.9278,-5.9008,-5.8218,-5.8141,-5.8141,-5.8171,0.0,-5.9099,-5.9099,-5.9099,-5.9099,-5.9099,-5.9099,-5.9153,-5.9207,-6.2506,-6.5428,-6.7895,-6.8673,-6.8673,-6.7963,-6.7963,-6.7929,-6.7861,-6.7218,-6.6914,-6.6914,-6.7658,-6.7963,-6.803,-6.8842,-6.9586,-7.0028,-6.8606,-6.7671,-6.6958,0.0,0.0,0.0,0.0,0.0,0.0,0.0,0.0,0.0,0.0,0.0,0.0,0.0,0.0,0.0,0.0,0.0,0.0,-3.0241,-3.0744,-3.145,-3.2507,-3.3128,-3.3828,-3.4705,-3.4738,-3.5248,-3.6355,-3.6945,-3.7173,-3.7091,-3.7638,-3.8048,-3.8296,-3.8613,-3.9183,-3.9881,-4.042,-4.1596,-4.2963,-4.1827,-4.2048,-4.296,-4.256,-4.1671,-4.0829,-4.2903,-4.3176,-4.2733,-4.3625,-4.5563,-4.8105,-5.0913,-5.2807,-5.4397,-5.6461,-5.7949,-5.9194,-6.0241,-6.111,-6.1642,-6.1528,-6.1346,-6.0912,-5.9737,-6.061,-6.1009,-5.8791,-5.9418,-6.025,-5.9708,-5.9607,-5.9696,-6.0102,-6.0701,-6.1213,-6.1393,-6.2567,-6.2672,-6.074,-6.1393,-6.1189,-5.9045,-5.8411,-5.8321,-5.883,-5.9009,-5.9099,-5.9099,-5.9099,-5.9099,-5.9099,-5.9099,-5.9576,-6.0536,-6.3324,-6.5745,-6.7895,-6.8098,-6.8402,-6.8808,-6.8808,-6.847,-6.7929,-6.8335,-6.8166,-6.7692,-6.847,-6.8808,-6.8876,-6.962,-7.0026,-6.9962,-6.8095,-6.7342,-6.6855,0.0,0.0,0.0,0.0,0.0,0.0,0.0,0.0,0.0,0.0,0.0,0.0,0.0,0.0,0.0,0.0,0.0,0.0,0.0,-3.0047,-3.072,-3.1315,-3.2231,-3.3,-3.3554,-3.4062,-3.461,-3.5194,-3.5912,-3.6308,-3.6333,-3.6919,-3.7463,-3.7965,-3.8063,-3.8487,-3.9173,-3.9597,-4.0696,0.0,0.0,-4.0782,-4.1745,-4.1102,-4.0324,-3.9918,-4.2117,-4.3301,-4.4012,-4.5399,-4.7398,-4.9898,-5.301,-5.4769,-5.6122,-5.8254,-5.9438,-6.0351,-6.1467,-6.1839,-6.1907,-6.1907,-6.14,-6.0689,-5.981,-6.0283,-6.0351,-5.8321,-5.8558,-5.8998,-5.8592,-5.8524,-5.8761,-5.9505,-6.0554,-6.1571,-6.234,-6.3665,-6.3929,-6.2102,-6.2282,-6.1631,-5.9308,-5.8501,-5.8411,-5.9069,-5.883,-5.88,-5.9099,-5.9099,-5.9339,-5.9917,-5.9917,-6.0815,-6.2699,-6.3638,-6.5189,-6.7421,-6.776,-6.8132,-6.8605,-6.8944,-6.8842,-6.8436,-6.891,-6.8842,-6.8504,-6.9248,-6.9586,-6.9654,-7.0398,-7.0322,-6.9523,-6.7845,-6.6803,-6.5941,0.0,0.0,0.0,0.0,0.0,0.0,0.0,0.0,0.0,-2.6149,-2.606,-2.5924,0.0,0.0,0.0,0.0,0.0,0.0,0.0,0.0,-2.9633,-3.0074,-3.1079,-3.1847,-3.2242,-3.3208,-3.3959,-3.4412,-3.4932,-3.5745,-3.6809,-3.7126,-3.8007,-3.9287,-3.8754,-3.8856,-3.9491,-3.9593,-4.0366,-4.1407,-3.9478,-3.9478,-4.0493,0.0,-3.8633,-3.8836,-4.117,-4.3707,-4.6312,-4.8342,-4.9999,-5.1623,-5.3991,-5.531,-5.6528,-5.9167,-6.0114,-6.052,-6.1738,-6.1704,-6.1264,-6.1163,-6.0216,-5.9268,-5.9066,-5.9099,-5.8896,-5.7949,-5.7746,-5.7746,-5.7746,-5.7679,-5.7881,-5.8727,-6.008,-6.1501,-6.3024,-6.4005,-6.4227,-6.3239,-6.2539,-6.1414,-5.9516,-5.8607,-5.8411,-5.9069,-5.8501,-5.8411,-5.9069,-5.9099,-5.9683,-6.0938,-6.1142,-6.2358,-6.4642,-6.3905,-6.4538,-6.6567,-6.737,-6.7793,-6.7929,-6.8605,-6.8944,-6.8944,-6.9045,-6.9113,-6.9147,-6.9891,-7.0263,-7.0398,-7.0861,-7.0263,-6.8991,-6.747,-6.6154,-6.4923,0.0,0.0,0.0,0.0,0.0,0.0,0.0,0.0,0.0,0.0,-2.9533,-2.8294,0.0,0.0,0.0,0.0,0.0,0.0,0.0,0.0,0.0,-3.0055,-3.0309,-3.0747,-3.1495,-3.1696,-3.2171,-3.2891,0.0,-3.3297,-3.3744,-3.3839,-3.4318,-3.5255,-3.5739,-3.6015,-3.6167,-3.6766,-3.7329,-3.7743,-3.7337,-3.7337,-3.754,-3.7269,0.0,0.0,-3.9445,-4.3504,-4.7669,-4.868,-4.9999,-5.1692,-5.46,-5.6427,-5.7746,-5.8863,-6.008,-6.1028,-6.0622,-6.0892,-6.1129,-6.0486,-6.0622,-6.0588,-5.9302,-5.9471,-5.9336,-5.7408,-5.7002,-5.7002,-5.7002,-5.6494,-5.6528,-5.7881,-5.8829,-5.9945,-6.1467,-6.3362,-6.4355,-6.3735,-6.3139,-6.2263,-6.0815,-5.913,-5.8411,-5.9069,-5.8501,-5.8411,-5.9069,-5.9099,-5.9683,-6.0938,-6.2094,-6.2876,-6.3339,-6.5171,-6.5855,-6.526,-6.6412,-6.732,-6.7895,-6.803,-6.8098,-6.8132,-6.8808,-6.9113,-6.9147,-6.9891,-7.0567,-7.1019,-6.9963,-6.9409,-6.8894,-6.6417,-6.5328,-6.4985,0.0,0.0,0.0,0.0,0.0,0.0,0.0,-3.1751,-3.2844,-3.4134,-3.3851,-3.264,-3.0391,-3.0084,-2.9554,0.0,0.0,0.0,0.0,0.0,0.0,0.0,0.0,0.0,0.0,0.0,0.0,0.0,0.0,0.0,0.0,0.0,0.0,0.0,0.0,-3.563,-3.5665,-3.649,-3.689,-3.7012,-3.7012,-3.7012,0.0,0.0,0.0,0.0,0.0,-4.4527,-4.8489,-4.9199,-5.0476,-5.23,-5.5344,-5.7036,-5.8118,-5.9235,-6.0114,-6.0588,-6.0216,-6.0114,-6.0013,-5.9641,-5.9844,-5.9708,-5.822,-5.8423,-5.822,-5.5615,-5.5074,-5.5074,-5.5074,-5.4803,-5.504,-5.6528,-5.7712,-5.8964,-6.0452,-6.2279,-6.3564,-6.3782,-6.2987,-6.2026,-6.1111,-5.9591,-5.877,-5.9069,-5.88,-5.877,-5.9099,-6.0359,-6.1376,-6.2045,-6.2634,-6.3623,-6.4947,-6.4856,-6.5171,-6.5898,-6.6525,-6.7015,-6.7354,-6.7726,-6.7895,-6.7929,-6.8741,-6.9113,-6.9113,-6.9485,-6.9401,-6.9082,-6.8762,-6.7769,-6.6448,-6.5442,-6.4863,-6.4475,0.0,0.0,0.0,0.0,0.0,0.0,0.0,-3.3697,-3.4981,-3.6817,-3.7492,-3.6618,-3.3582,-3.2363,-3.1087,0.0,0.0,0.0,0.0,0.0,0.0,0.0,0.0,0.0,0.0,0.0,0.0,0.0,0.0,0.0,0.0,0.0,0.0,0.0,0.0,0.0,0.0,-3.7038,-3.7285,0.0,0.0,0.0,0.0,0.0,0.0,0.0,0.0,-4.5515,-4.892,-4.9651,-5.0948,-5.2785,-5.5654,-5.6947,-5.7712,-5.9201,-5.9844,-6.0047,-5.9708,-5.9438,-5.9167,-5.8863,-5.8896,-5.8663,-5.7353,-5.7355,-5.6913,-5.4261,-5.3343,-5.2938,-5.2807,-5.2909,-5.345,-5.4769,-5.6359,-5.7983,-5.9641,-6.1197,-6.2603,-6.3866,-6.2737,-6.1774,-6.1483,-6.0255,-5.9392,-5.9099,-5.9339,-5.9523,-5.9523,-6.1477,-6.2682,-6.3004,-6.3004,-6.4017,-6.6176,-6.4504,-6.4602,-6.6443,-6.703,-6.7158,-6.6868,-6.7766,-6.8166,-6.8199,-6.8842,-6.9049,-6.893,-6.9228,-6.8438,-6.7159,-6.7701,-6.6433,-6.4367,-6.4542,-6.441,-6.4006,0.0,0.0,0.0,0.0,0.0,0.0,0.0,-3.5055,-3.689,-3.9239,-3.8982,-3.816,-3.7118,-3.56,-3.325,0.0,0.0,0.0,0.0,0.0,0.0,0.0,0.0,0.0,0.0,0.0,0.0,0.0,0.0,0.0,0.0,0.0,0.0,0.0,0.0,0.0,0.0,0.0,0.0,0.0,0.0,0.0,0.0,0.0,0.0,0.0,0.0,-4.5492,-4.8922,-4.9655,-5.0955,-5.2619,-5.495,-5.5796,-5.619,-5.7679,-5.9032,-5.981,-5.8457,-5.9032,-5.9674,-5.8321,-5.849,-5.8776,-5.798,-5.7287,-5.6389,-5.4828,-5.2857,-5.1202,-5.0563,-5.098,-5.1691,-5.2469,0.0,-5.6664,-5.8829,-6.0452,-6.2172,-6.4288,-6.2942,-6.2157,-6.2764,-6.1596,-6.0328,-5.9207,-6.0202,-6.0815,-6.0815,-6.104,-6.1746,-6.2956,-6.3004,-6.3437,-6.4336,-6.5255,-6.5582,-6.5318,-6.7723,-6.8238,-6.7017,-6.8394,-6.8977,-6.8977,-6.9079,-6.8764,-6.83,-6.9581,-6.8931,-6.7176,-6.7272,-6.6375,-6.4885,-6.3732,-6.3584,-6.4096,0.0,0.0,0.0,0.0,0.0,0.0,-3.4197,-3.5078,-3.656,-3.9496,-3.9606,-3.9313,-3.8998,-3.7918,-3.5659,-3.1754,0.0,0.0,0.0,0.0,0.0,0.0,0.0,0.0,0.0,0.0,0.0,0.0,0.0,0.0,0.0,0.0,0.0,0.0,0.0,0.0,0.0,0.0,0.0,0.0,0.0,0.0,0.0,0.0,0.0,0.0,0.0,0.0,-4.8813,-5.0006,-5.0904,-5.19,-5.418,-5.5235,-5.6021,-5.805,-5.9044,-5.9383,-5.8739,-5.9302,-5.9844,-5.8829,-5.8457,-5.8133,-5.7359,-5.5867,-5.4229,-5.2739,-5.1352,-5.0125,-4.9452,-4.9928,-5.0735,0.0,0.0,0.0,-5.7442,-5.937,-6.14,-6.3666,-6.302,-6.2854,-6.4007,-6.2972,-6.1995,-6.1477,-6.1927,-6.2193,-6.2193,-6.2193,-6.2439,-6.3004,-6.3004,-6.3516,-6.4575,-6.4749,-6.5058,-6.5621,-6.711,-6.7571,-6.7043,-6.8439,-6.865,-6.7878,-6.8739,-6.7999,-6.6355,-6.8617,-6.8076,-6.598,-6.6396,-6.568,-6.4421,-6.3864,-6.4066,-6.4725,0.0,0.0,0.0,0.0,0.0,-3.2192,-3.4637,-3.5224,-3.6399,-3.9166,-3.9533,-3.9533,-3.9533,-3.8615,-3.6817,-3.394,-3.2522,0.0,0.0,0.0,0.0,0.0,0.0,0.0,0.0,0.0,-3.4174,-3.4174,-3.4968,0.0,0.0,0.0,0.0,0.0,0.0,0.0,0.0,0.0,0.0,0.0,0.0,0.0,0.0,0.0,0.0,0.0,0.0,0.0,0.0,0.0,0.0,-5.162,-5.346,-5.4622,-5.5659,-5.7814,-5.876,-5.9081,-5.9035,-5.9386,-5.9641,-5.9133,-5.8267,-5.7328,-5.6512,-5.4765,-5.2846,-5.1286,-5.0154,-4.917,-4.8305,-4.8979,-4.9894,0.0,0.0,-5.4871,-5.6562,-5.8524,-6.0622,-6.2922,-6.2873,-6.3276,-6.4737,-6.3764,-6.3004,-6.3004,-6.3004,-6.2828,-6.2439,-6.2779,-6.2811,-6.2439,-6.2779,-6.3356,-6.4103,-6.4063,-6.4497,-6.54,-6.6733,-6.7236,-6.7099,-6.8465,-6.8557,-6.7702,-6.8681,-6.7796,-6.581,-6.859,-6.7876,-6.5179,-6.6065,-6.545,-6.4064,-6.4023,-6.4545,-6.5383,0.0,0.0,0.0,0.0,0.0,0.0,-3.4637,-3.5738,-3.6853,-3.8505,-3.8726,-3.8726,-3.8726,-3.7294,-3.6303,-3.6266,-3.4027,0.0,0.0,0.0,0.0,0.0,0.0,0.0,0.0,0.0,-3.5004,-3.5004,-3.5862,-3.6303,-3.6303,-3.6303,0.0,0.0,0.0,0.0,0.0,0.0,0.0,0.0,0.0,0.0,-4.0157,0.0,0.0,0.0,0.0,0.0,0.0,0.0,0.0,0.0,0.0,-5.3754,-5.4734,-5.6352,-5.7922,-5.9079,-5.9114,-5.904,-5.9032,-5.9032,-5.7842,-5.651,-5.5701,-5.4305,-5.275,-5.1223,-4.9694,-4.8194,-4.6873,-4.783,-4.9097,-4.9955,0.0,0.0,-5.6494,-5.8084,-5.9877,-6.2144,-6.2574,-6.3276,-6.4737,-6.3764,-6.3004,-6.3004,-6.3004,-6.2439,-6.1091,-6.2291,-6.239,-6.104,-6.2291,-6.2738,-6.2229,-6.3486,-6.4102,-6.4133,-6.6873,-6.7834,-6.7266,-6.8569,-6.9184,-6.9184,-6.9184,-6.8421,-6.7419,-7.0136,-6.8879,-6.5243,-6.6647,-6.5864,-6.3977,-6.4006,-6.4844,-6.6011,0.0,0.0,0.0,0.0,0.0,0.0,0.0,-3.4064,-3.5202,-3.6853,-3.7074,-3.7477,-3.8579,-3.7257,-3.6303,-3.6303,-3.4027,0.0,0.0,0.0,0.0,0.0,0.0,0.0,0.0,0.0,-3.6707,-3.6707,-3.808,-3.8762,-3.8762,-3.9313,-3.9717,-3.9974,0.0,0.0,0.0,0.0,0.0,0.0,0.0,-4.1368,-4.2523,0.0,0.0,0.0,0.0,0.0,0.0,0.0,0.0,0.0,0.0,0.0,0.0,-5.4831,-5.6642,-5.8384,-5.8967,-5.9461,-5.9582,-5.8505,-5.6671,-5.5062,-5.4768,-5.2232,-4.9992,-5.0013,-4.9147,-4.8016,-4.6707,-4.8521,-5.0223,-5.0116,-5.2875,0.0,-5.5953,-5.8186,-6.0013,-6.0723,-6.3141,-6.4786,-6.4893,-6.4551,-6.3952,-6.31,-6.3811,-6.3732,-6.2439,-6.3591,-6.3685,-6.239,-6.3638,-6.3815,-6.2738,-6.4479,-6.4884,-6.4051,-6.6825,-6.8024,-6.7867,-6.8794,-6.9217,-6.9217,-6.9217,-6.8454,-6.7317,-6.9121,-6.8552,-6.649,-6.5941,-6.5623,-6.5386,-6.4838,-6.5263,-6.6071,0.0,0.0,0.0,0.0,0.0,0.0,0.0,-3.3293,-3.4174,-3.5202,-3.5349,-3.5973,-3.7624,-3.634,-3.5605,-3.6229,-3.4321,0.0,0.0,0.0,0.0,0.0,0.0,0.0,0.0,-3.7257,-3.8248,-3.8872,-4.0451,-4.1275,-4.1258,-4.2396,-4.258,-4.2029,-4.2029,-4.1552,0.0,0.0,0.0,0.0,-4.1222,-4.2323,-4.3662,0.0,0.0,0.0,0.0,0.0,0.0,0.0,0.0,0.0,0.0,0.0,0.0,0.0,-5.498,-5.6436,-5.781,-5.809,-5.7822,-5.7152,-5.5228,-5.3352,-5.3046,-5.0859,-4.8925,-4.9091,-4.8673,-4.8081,-4.7382,-4.9038,-5.0682,-5.1303,-5.3585,-5.548,-5.6055,-5.8423,-6.052,-6.167,-6.4106,-6.5514,-6.4937,-6.5304,-6.4901,-6.3148,-6.4184,-6.4368,-6.31,-6.423,-6.4551,-6.3732,-6.4045,-6.3544,-6.2242,-6.3948,-6.4255,-6.3268,-6.5996,-6.732,-6.7362,-6.7786,-6.8193,-6.8454,-6.8454,-6.7974,0.0,-6.865,-6.8074,-6.6312,-6.5436,-6.5343,-6.5612,-6.5199,-6.5592,-6.643,0.0,0.0,0.0,0.0,0.0,0.0,0.0,-3.322,-3.3733,-3.3807,-3.3807,-3.4394,-3.5936,-3.4724,-3.4431,-3.5973,0.0,0.0,0.0,0.0,0.0,0.0,0.0,0.0,-3.7566,-3.8505,-3.9717,-4.1279,-4.2947,-4.3772,-4.3808,-4.5333,-4.5259,-4.3828,-4.3828,-4.3351,-4.2433,0.0,0.0,0.0,-4.2249,-4.302,0.0,0.0,0.0,0.0,0.0,0.0,0.0,0.0,0.0,0.0,0.0,0.0,0.0,0.0,0.0,0.0,0.0,-5.541,-5.4578,-5.5256,-5.368,-5.1802,-5.0986,-5.0235,0.0,-4.8636,-4.8526,-4.8571,-4.8673,-4.9498,-5.0857,-5.3038,-5.4126,-5.5175,-5.6664,-5.8795,-6.1264,-6.4174,-6.5222,-6.548,-6.4871,-6.5952,-6.568,-6.3196,-6.4184,-6.4368,-6.3196,-6.4368,-6.5036,-6.5036,-6.3779,-6.2536,-6.1294,-6.2536,-6.2837,-6.2239,-6.4768,-6.6119,-6.6277,-6.6089,-6.6524,-6.7502,-6.7164,-6.7164,-6.7419,-6.8503,-6.7419,-6.5056,-6.5009,-6.5006,-6.5024,-6.5084,-6.5892,-6.6999,0.0,0.0,0.0,0.0,0.0,0.0,0.0,0.0,0.0,0.0,-3.3807,-3.3954,-3.4357,-3.4027,-3.3954,0.0,0.0,0.0,0.0,0.0,0.0,0.0,0.0,0.0,-3.8395,-4.0414,-4.1956,-4.2947,-4.5149,-4.6232,-4.6269,-4.7278,-4.7535,-4.7168,-4.7168,-4.6397,-4.5002,-4.3975,0.0,0.0,-4.4745,-4.5553,0.0,0.0,0.0,0.0,-4.8233,-4.8306,0.0,0.0,0.0,0.0,0.0,0.0,0.0,0.0,-5.1353,-5.1605,-5.2791,0.0,-5.5205,-5.4782,-5.3768,-5.2674,0.0,-5.1083,-5.0472,-5.0251,-5.0692,-5.0654,-4.9066,-5.129,-5.313,-5.2663,-5.4194,-5.5953,-5.7408,-5.9573,-6.1704,-6.3565,-6.4918,-6.5278,-6.4167,-6.484,-6.4688,-6.3148,-6.4184,-6.4778,-6.446,-6.5646,-6.632,-6.632,-6.5126,-6.4289,-6.4012,-6.4322,-6.4387,-6.4226,-6.5417,-6.685,-6.8314,-6.5733,-6.6694,-7.017,-6.699,-6.6803,-6.8601,-6.6803,-6.5674,-6.5009,-6.4475,-6.4539,-6.5084,-6.5592,-6.6281,-6.6999,0.0,0.0,0.0,0.0,0.0,0.0,0.0,0.0,0.0,0.0,0.0,0.0,0.0,0.0,0.0,0.0,0.0,0.0,0.0,0.0,0.0,0.0,0.0,0.0,-4.0304,-4.2359,-4.4158,-4.57,-4.7792,-4.9003,-4.937,-5.0545,-5.0692,-4.9958,-4.882,-4.7609,-4.6361,-4.5205,-4.4929,-4.5296,-4.5736,0.0,0.0,0.0,0.0,0.0,-4.8306,-4.8306,0.0,-4.8306,-4.8306,-4.8379,0.0,0.0,0.0,0.0,-5.0251,-5.0508,-5.1683,-5.2674,-5.3371,-5.3298,-5.2711,-5.2087,-5.2013,-5.1646,-5.1463,-5.183,-5.1965,-5.1769,-5.0992,-5.2544,-5.3762,-5.3413,-5.5243,-5.734,-5.9201,-6.0216,-6.1569,-6.3768,-6.4715,-6.4934,-6.4332,-6.5194,-6.5215,-6.3998,-6.5036,-6.5734,-6.5734,-6.5898,-6.6192,-6.677,-6.4992,-6.4322,-6.4869,-6.4869,-6.4597,-6.4045,-6.5036,-6.6146,-6.7202,-6.5368,-6.6656,-7.017,-6.7317,-6.6906,-6.8157,-6.5994,-6.4703,-6.4158,-6.4086,-6.4425,-6.5114,-6.5772,-6.643,-6.6999,0.0,0.0,0.0,0.0,0.0,0.0,0.0,0.0,0.0,0.0,0.0,0.0,0.0,0.0,0.0,0.0,0.0,0.0,0.0,0.0,0.0,0.0,0.0,-3.99,-4.2433,-4.4195,-4.625,-4.8673,-5.0618,-5.1867,-5.2564,-5.4069,-5.3922,-5.227,-5.0031,-4.8507,-4.7553,-4.6104,-4.5773,-4.6287,-4.6287,0.0,0.0,0.0,0.0,0.0,0.0,0.0,0.0,-4.8306,-4.8306,-4.8306,-4.8306,0.0,0.0,0.0,0.0,0.0,-5.1389,-5.1389,-5.1169,-5.1977,-5.1756,-5.1536,-5.2197,-5.2454,-5.2784,-5.3592,-5.3208,-5.2938,-5.3548,-5.3852,-5.4198,-5.4703,-5.6697,-5.893,-6.1028,-6.0994,-6.1738,-6.4309,-6.4816,-6.495,-6.5039,-6.6124,-6.632,-6.526,-6.6192,-6.6812,-6.6812,-6.5811,-6.569,-6.677,-6.472,-6.3998,-6.4869,-6.4688,-6.4184,-6.3292,-6.4184,-6.4887,-6.5381,-6.5215,-6.6728,-6.9409,-6.7622,-6.701,-6.7061,-6.549,-6.4153,-6.3139,-6.3887,-6.4515,-6.5114,-6.5892,-6.652,-6.6999,0.0,0.0,0.0,0.0,0.0,0.0,0.0,0.0,0.0,0.0,0.0,0.0,0.0,0.0,0.0,0.0,0.0,0.0,0.0,0.0,0.0,0.0,0.0,-4.0157,-4.3258,-4.5553,-4.792,-5.0435,-5.3408,-5.4913,-5.506,-5.6014,-5.5574,-5.3995,-5.2931,-5.1646,-5.0178,-4.9224,-4.8489,-4.7939,-4.7939,0.0,0.0,0.0,0.0,0.0,0.0,0.0,0.0,-4.8306,-4.8306,-4.8306,-4.8306,0.0,0.0,0.0,0.0,0.0,-5.0545,-5.1389,-5.2013,-5.2821,-5.3445,-5.3885,-5.3995,-5.4546,-5.528,-5.6088,-5.6152,-5.5907,-5.5411,-5.6357,-5.681,-5.5721,-5.7915,-6.0114,-6.1163,-6.2821,-6.4072,-6.4546,-6.5696,-6.6221,-6.5615,-6.6356,-6.6728,-6.6525,-6.6686,-6.6812,-6.6812,-6.661,-6.6567,-6.677,-6.644,-6.5811,-6.4914,-6.3858,-6.3732,-6.4597,-6.3685,-6.4524,-6.6729,-6.5626,-6.7214,-7.0791,-6.7042,-6.6101,-6.701,-6.4457,-6.3279,-6.3199,-6.4395,-6.4934,-6.5173,-6.64,-6.6909,-6.6999,0.0,0.0,0.0,0.0,0.0,0.0,0.0,0.0,0.0,0.0,0.0,0.0,0.0,0.0,0.0,0.0,0.0,0.0,0.0,0.0,0.0,0.0,0.0,-4.1956,-4.4745,-4.7609,-5.0325,-5.2747,-5.5097,-5.6675,-5.7556,-5.7483,-5.6602,-5.4987,-5.3739,-5.2564,-5.1353,-5.0124,-4.939,-4.8967,0.0,0.0,0.0,0.0,0.0,0.0,0.0,0.0,0.0,0.0,-4.8306,-4.8306,-4.8306,0.0,0.0,0.0,0.0,0.0,-5.0472,-5.172,-5.2846,-5.364,-5.4457,-5.5148,-5.5584,-5.5975,-5.6361,-5.6783,-5.6514,-5.61,-5.5744,-5.6247,-5.702,-5.7954,-5.9235,-6.0655,-6.2279,-6.3362,-6.4309,-6.5087,-6.5797,-6.6237,-6.6305,-6.6609,-6.6812,-6.6812,-6.6812,-6.6812,-6.6812,-6.6148,-6.6105,-6.677,-6.547,-6.4811,-6.4869,-6.3671,-6.3259,-6.3858,-6.2536,-6.3533,-6.6483,-6.5562,-6.6744,-6.9463,-6.7208,-6.6154,-6.5888,-6.3902,-6.3079,-6.3199,-6.4515,-6.5024,-6.5173,-6.652,-6.6999,-6.6999,0.0,0.0,0.0,0.0,0.0,0.0,0.0,0.0,0.0,0.0,0.0,0.0,0.0,0.0,0.0,0.0,0.0,0.0,0.0,0.0,0.0,0.0,0.0,0.0,-4.6691,-4.9591,-5.2454,-5.5244,-5.6859,-5.829,-5.9441,-5.8657,-5.7299,-5.5559,-5.4326,-5.3115,-5.1903,-5.0712,-4.9941,-4.9537,0.0,0.0,0.0,0.0,0.0,0.0,0.0,0.0,0.0,0.0,0.0,0.0,0.0,0.0,0.0,-4.8306,-4.893,-4.9794,-5.0582,-5.2123,-5.3712,-5.4688,-5.544,-5.6051,-5.6666,-5.6952,-5.7158,-5.7394,-5.6768,-5.6275,-5.648,-5.6474,-5.734,-5.9945,-6.052,-6.1434,-6.37,-6.4038,-6.4512,-6.5797,-6.5967,-6.617,-6.6779,-6.6812,-6.6812,-6.6812,-6.6812,-6.6812,-6.6812,-6.5898,-6.5778,-6.677,-6.4901,-6.423,-6.4869,-6.3952,-6.3292,-6.3004,-6.226,-6.3372,-6.5989,-6.5576,-6.6387,-6.8021,-6.6938,-6.5943,-6.5032,-6.3649,-6.3079,-6.3199,-6.4515,-6.5203,-6.5592,-6.661,-6.6999,-6.6999,0.0,0.0,0.0,0.0,0.0,0.0,0.0,0.0,0.0,0.0,0.0,0.0,0.0,0.0,0.0,0.0,0.0,0.0,0.0,0.0,0.0,0.0,0.0,0.0,-4.915,-5.0986,-5.3812,-5.774,-5.9355,-6.0199,-6.0309,-5.9478,-5.785,-5.5574,-5.5464,-5.4142,-5.1977,-5.1887,-5.0969,-4.961,-4.9537,0.0,0.0,0.0,0.0,0.0,0.0,0.0,0.0,0.0,0.0,0.0,0.0,0.0,-4.8306,-4.8306,-4.893,-4.9794,-5.0582,-5.2527,-5.4686,-5.623,-5.6665,-5.6733,-5.6808,-5.7376,-5.8113,-5.888,-5.8377,-5.7938,-5.8696,-5.8799,-5.9302,-6.096,-6.1772,-6.299,-6.5222,-6.5527,-6.5831,-6.6643,-6.6745,-6.6745,-6.6812,-6.6812,-6.6812,-6.6812,-6.6812,-6.6812,-6.6812,-6.6728,-6.6728,-6.6812,-6.661,-6.5985,-6.4914,-6.4823,-6.4184,-6.3004,-6.4105,-6.5127,-6.5989,-6.5976,-6.6719,-6.7955,-6.5425,-6.463,-6.5032,-6.3649,-6.3079,-6.3199,-6.4515,-6.5772,-6.6849,-6.6939,-6.6999,-6.6999,0.0,0.0,0.0,0.0,0.0,0.0,0.0,0.0,0.0,0.0,0.0,0.0,0.0,0.0,0.0,0.0,0.0,0.0,0.0,0.0,0.0,0.0,0.0,-4.5957,-5.0215,-5.2894,-5.5721,-5.8767,-6.086,-6.163,-6.1117,-6.0309,-5.8951,-5.7042,-5.6051,-5.4803,-5.3445,-5.2417,-5.1646,-5.1006,-5.0014,-4.939,0.0,0.0,0.0,0.0,0.0,0.0,0.0,0.0,-4.7902,-4.8233,-4.77,-4.7883,-4.8416,-4.893,-4.9701,-5.0618,-5.194,-5.4032,-5.6102,-5.7247,-5.7883,-5.8215,-5.8244,-5.8459,-5.8644,-5.8426,-5.8118,-5.7976,-5.8284,-5.9494,-6.0622,-6.1231,-6.2685,-6.4208,-6.5493,-6.6102,-6.6508,-6.6779,-6.6812,-6.6812,-6.6812,-6.6812,-6.6812,-6.6812,-6.6812,-6.6812,-6.6812,-6.6812,-6.6609,-6.6136,-6.5359,-6.4486,-6.3539,-6.4012,-6.3986,-6.3486,-6.3631,-6.4268,-6.533,-6.5426,-6.5252,-6.4894,-6.4764,-6.4377,-6.3789,-6.3279,-6.3079,-6.3199,-6.4515,-6.5832,-6.6999,-6.6999,-6.6999,-6.7091,0.0,0.0,0.0,0.0,0.0,0.0,0.0,0.0,0.0,0.0,0.0,0.0,0.0,0.0,0.0,0.0,0.0,0.0,0.0,-3.8248,-3.968,-4.1846,-4.3424,-4.6067,-4.9921,-5.3665,-5.6638,-5.8841,-6.1263,-6.1998,-6.119,-6.0676,-5.9538,-5.7923,-5.6308,-5.528,-5.4656,-5.3041,-5.2087,-5.1499,-5.0418,-4.9684,0.0,0.0,0.0,0.0,0.0,0.0,0.0,0.0,-4.7095,-4.7498,-4.7186,-4.748,-4.8159,-4.928,-5.0147,-5.1149,-5.2755,-5.4955,-5.6946,-5.7801,-5.8751,-5.9526,-5.9489,-5.9254,-5.8975,-5.8671,-5.8389,-5.8321,-5.8558,-6.008,-6.1467,-6.1941,-6.3666,-6.5189,-6.5933,-6.6474,-6.6812,-6.6812,-6.6812,-6.6812,-6.6812,-6.6812,-6.6812,-6.6812,-6.6812,-6.6711,-6.6474,-6.644,-6.6102,-6.5358,-6.4504,-6.3809,-6.3268,-6.3809,-6.4175,-6.4374,-6.363,-6.3817,-6.4856,-6.411,-6.3512,-6.3021,-6.3548,-6.3563,-6.3079,-6.3079,-6.3318,-6.3767,-6.4695,-6.5832,-6.6999,-6.6999,-6.7274,-6.7819,0.0,0.0,0.0,0.0,0.0,0.0,0.0,0.0,0.0,0.0,0.0,0.0,0.0,0.0,0.0,0.0,0.0,0.0,-3.7492,-3.8248,-3.9423,-4.1022,-4.4158,-4.6617,-4.8233,-5.3078,-5.6345,-5.7997,-6.0419,-6.119,-6.0419,-6.0382,-5.9538,-5.7923,-5.6308,-5.5596,-5.5464,-5.3885,-5.227,-5.0802,-5.0802,-4.9811,-4.8306,0.0,0.0,0.0,0.0,0.0,0.0,0.0,-4.5883,-4.603,-4.6819,-4.7076,-4.7443,-4.9114,-5.0162,-5.1166,-5.2786,-5.5033,-5.71,-5.7823,-5.9224,-6.0397,-6.0312,-5.9623,-5.9235,-5.9945,-5.9539,-5.9268,-5.9979,-6.0791,-6.1806,-6.3294,-6.4749,-6.5967,-6.6711,-6.6812,-6.6812,-6.6812,-6.6812,-6.6812,-6.6812,-6.6812,-6.6812,-6.6812,-6.6812,-6.6474,-6.573,-6.5662,-6.5358,-6.4613,-6.458,-6.458,-6.458,-6.458,-6.4952,-6.5662,-6.4374,-6.4165,-6.4778,-6.2211,-6.1712,-6.2937,-6.1654,-6.1882,-6.3079,-6.3079,-6.3857,-6.5024,-6.5024,-6.5832,-6.6999,-6.6999,-6.7939,-6.9201,0.0,0.0,0.0,0.0,0.0,0.0,0.0,0.0,0.0,0.0,0.0,0.0,0.0,0.0,0.0,0.0,0.0,0.0,-3.8322,-3.8579,-3.9423,-4.1022,-4.258,-4.4378,-4.6544,-5.0839,-5.495,-5.8841,-6.0126,-6.0639,-6.0382,-5.9808,-5.9024,-5.7923,-5.6308,-5.528,-5.4693,-5.3665,-5.2601,-5.1573,-5.1022,-5.0141,-4.915,0.0,0.0,0.0,0.0,0.0,0.0,0.0,0.0,0.0,-4.6177,-4.6636,-4.7553,-4.9774,-5.1009,-5.2105,-5.4296,-5.6196,-5.7783,-5.865,-5.9526,-6.0359,-6.0947,-6.0462,-6.0107,-6.0808,-6.1603,-6.2076,-6.1772,-6.2753,-6.3768,-6.4208,-6.5087,-6.5967,-6.6711,-6.6812,-6.6812,-6.6812,-6.6812,-6.6812,-6.6812,-6.6812,-6.6576,-6.6068,-6.6034,-6.5696,-6.4952,-6.4918,-6.458,-6.3869,-6.3835,-6.3599,-6.3057,-6.3565,-6.4208,-6.4918,-6.3273,-6.2851,-6.3529,-6.2248,-6.1712,-6.1684,-6.1751,-6.2301,-6.3079,-6.3079,-6.3857,-6.5024,-6.5024,-6.5832,-6.6999,-6.6999,-6.7939,-6.9375,0.0,0.0,0.0,0.0,0.0,0.0,0.0,0.0,-3.3807,-3.3807,-3.3807,-3.41,0.0,0.0,0.0,-3.7382,-3.7786,-3.8175,-3.8689,-3.8689,-3.9276,-4.0561,-4.1699,-4.3718,-4.6801,-4.9591,-5.2931,-5.6799,-5.8584,-5.9465,-5.9428,-5.9281,-5.8927,-5.84,-5.6785,-5.5794,-5.528,-5.4142,-5.3041,-5.194,-5.1463,-5.0582,-4.95,0.0,0.0,0.0,0.0,0.0,0.0,0.0,0.0,0.0,-4.5333,-4.5993,-4.7185,-4.9961,-5.1338,-5.2641,-5.5646,-5.7191,-5.8149,-5.8932,-5.9663,-6.0406,-6.1204,-6.124,-6.1266,-6.1651,-6.2448,-6.3024,-6.2854,-6.3802,-6.4681,-6.4986,-6.5662,-6.6305,-6.6745,-6.6812,-6.6812,-6.6812,-6.6812,-6.6677,-6.6406,-6.6373,-6.6068,-6.5324,-6.5256,-6.4952,-6.4208,-6.4174,-6.3835,-6.3091,-6.3057,-6.2854,-6.2381,-6.2854,-6.3599,-6.4573,-6.3263,-6.2887,-6.3323,-6.1908,-6.1358,-6.1553,-6.2211,-6.272,-6.3079,-6.3079,-6.3677,-6.4694,-6.5551,-6.6513,-6.7574,-6.8439,-6.9688,-7.1059,0.0,0.0,0.0,0.0,0.0,0.0,0.0,-3.3807,-3.3844,-3.3917,-3.3917,-3.4247,0.0,0.0,0.0,-3.7529,-3.8285,-3.8689,-3.8689,-3.8689,-3.9056,-3.9863,-4.1442,-4.4121,-4.8012,-4.893,-5.0508,-5.2894,-5.6088,-5.7703,-5.7813,-5.8621,-5.8927,-5.8817,-5.7336,-5.6638,-5.6492,-5.4876,-5.3298,-5.1867,-5.172,-5.0729,-4.928,-4.8416,0.0,0.0,0.0,0.0,0.0,0.0,0.0,0.0,-4.4452,-4.5259,-4.6542,-4.9653,-5.129,-5.2909,-5.6599,-5.7794,-5.8148,-5.8751,-5.9624,-6.0494,-6.1219,-6.1907,-6.2381,-6.2381,-6.2482,-6.2821,-6.3497,-6.4275,-6.5019,-6.5662,-6.6373,-6.6812,-6.6812,-6.6745,-6.6711,-6.6711,-6.6643,-6.6339,-6.5662,-6.5595,-6.529,-6.4546,-6.4512,-6.4174,-6.3463,-6.3429,-6.3091,-6.2415,-6.2381,-6.2381,-6.2381,-6.2448,-6.3193,-6.4613,-6.4108,-6.3955,-6.3977,-6.1514,-6.1031,-6.2121,-6.278,-6.3079,-6.3137,-6.3222,-6.364,-6.4387,-6.6478,-6.7722,-6.8638,-7.0576,-7.227,-7.3617,0.0,0.0,0.0,0.0,0.0,0.0,-3.355,-3.3807,-3.4027,-3.4674,-3.4747,-3.5298,-3.6795,-3.7125,0.0,-3.8358,-3.8615,-3.8689,-3.8689,-3.8689,-3.9056,-3.9863,-4.1442,-4.3608,-4.6361,-4.7241,-4.8526,-5.0381,-5.3592,-5.55,-5.6124,-5.6932,-5.6969,-5.6345,-5.6014,-5.55,-5.4803,-5.3188,-5.194,-5.0949,-4.9627,-4.8526,-4.7553,-4.6728,-4.592,0.0,0.0,0.0,0.0,0.0,0.0,0.0,-4.4452,-4.5259,-4.6415,-4.9009,-5.1262,-5.3411,-5.55,-5.6967,-5.7973,-5.8117,-5.9142,-6.0513,-6.1845,-6.2279,-6.2381,-6.2381,-6.3328,-6.4174,-6.4343,-6.5459,-6.6406,-6.6542,-6.6711,-6.6812,-6.6812,-6.6305,-6.5933,-6.5933,-6.5425,-6.5019,-6.485,-6.485,-6.4546,-6.3802,-6.3768,-6.3429,-6.2685,-6.2618,-6.255,-6.2381,-6.2381,-6.2381,-6.2381,-6.299,-6.3734,-6.4613,-6.465,-6.4673,-6.4679,-6.3131,-6.2299,-6.2121,-6.278,-6.3079,-6.3194,-6.4265,-6.5048,-6.5775,-6.7351,-6.8764,-6.9931,-7.0362,-7.1849,-7.3617,0.0,0.0,0.0,0.0,0.0,0.0,0.0,0.0,-3.4674,-3.5518,-3.5628,-3.6119,-3.7345,-3.7492,0.0,0.0,-3.8689,-3.8689,-3.8689,-3.8689,-3.9056,-3.9863,-4.1075,-4.269,-4.4709,-4.5553,-4.6948,-4.8967,-5.0655,-5.2491,0.0,0.0,0.0,-5.5596,-5.5596,-5.5133,-5.4326,-5.3078,-5.2123,-5.1242,-4.9994,-4.9003,-4.8159,-4.6948,-4.5993,-4.5186,-4.4415,0.0,0.0,0.0,0.0,0.0,0.0,0.0,-4.581,-4.8202,-5.0398,-5.259,-5.5327,-5.6671,-5.7494,-5.8221,-5.9261,-6.0419,-6.1603,-6.2144,-6.2381,-6.2381,-6.3294,-6.4072,-6.4072,-6.4986,-6.5764,-6.5764,-6.5764,-6.5764,-6.5764,-6.5425,-6.5155,-6.5155,-6.4816,-6.4478,-6.4106,-6.4072,-6.3768,-6.3024,-6.2956,-6.2821,-6.2415,-6.2381,-6.2381,-6.2381,-6.2381,-6.2381,-6.2381,-6.3125,-6.3869,-6.4613,-6.5138,-6.5205,-6.4947,-6.368,-6.2884,-6.2627,-6.3637,-6.404,-6.4153,-6.5544,-6.6321,-6.6827,-6.8505,-6.965,-7.0447,-7.1829,-7.3094,-7.4186,0.0,0.0,0.0,0.0,0.0,0.0,0.0,0.0,0.0,-3.6376,-3.6486,-3.6817,-3.7639,-3.7713,-3.797,0.0,0.0,0.0,-3.8909,-3.9056,-3.946,-4.0267,-4.0965,-4.1992,-4.3478,-4.4305,-4.5755,-4.7902,-4.8159,-4.9774,0.0,0.0,0.0,-5.539,-5.539,-5.5023,-5.4326,-5.3261,-5.2417,-5.1683,-5.0618,-4.9774,-4.9003,-4.7462,-4.6471,-4.57,-4.4232,-4.3718,-4.3681,-4.3551,0.0,0.0,0.0,0.0,-4.5132,-4.7419,-4.9235,-5.1343,-5.5199,-5.6547,-5.7222,-5.864,-5.9573,-6.0317,-6.1129,-6.1873,-6.2381,-6.2381,-6.299,-6.3531,-6.3531,-6.4106,-6.4613,-6.4613,-6.4613,-6.4613,-6.4613,-6.4478,-6.441,-6.441,-6.4309,-6.3971,-6.3396,-6.3328,-6.3057,-6.2448,-6.2381,-6.2381,-6.2381,-6.2381,-6.2381,-6.2381,-6.2381,-6.2448,-6.2584,-6.3328,-6.4072,-6.4816,-6.5658,-6.6015,-6.5728,-6.4401,-6.3706,-6.3535,-6.4868,-6.549,-6.5598,-6.6958,-6.7521,-6.7737,-6.9697,-7.0512,-7.0955,-7.3474,-7.4632,-7.5126,0.0,0.0,0.0,0.0,0.0,0.0,0.0,0.0,0.0,0.0,-3.7345,-3.7639,-3.8469,-3.8542,-3.8579,-3.8689,-3.8689,-3.9019,-3.968,0.0,0.0,-4.1956,-4.2066,-4.258,-4.3478,-4.4305,-4.5223,-4.6214,-4.7609,-4.8893,0.0,0.0,0.0,-5.4546,0.0,-5.4509,-5.4252,-5.205,-5.1059,-5.0765,-4.8507,-4.7516,-4.7333,-4.6397,-4.5993,-4.5773,-4.4892,-4.4562,-4.4452,-4.3718,-4.3515,0.0,0.0,0.0,-4.504,-4.6743,-4.84,-5.0378,-5.377,-5.6182,-5.791,-5.8812,-5.9573,-6.0317,-6.1129,-6.1873,-6.2381,-6.2381,-6.299,-6.3531,-6.3531,-6.4106,-6.4613,-6.4613,-6.4613,-6.4613,-6.4613,-6.4072,-6.3666,-6.3666,-6.3091,-6.2651,-6.255,-6.255,-6.2516,-6.2381,-6.2381,-6.2381,-6.2381,-6.2381,-6.2381,-6.2381,-6.2381,-6.2719,-6.3362,-6.4072,-6.4816,-6.5561,-6.6467,-6.7466,-6.8601,-6.7266,-6.5994,-6.4923,-6.6312,-6.6906,-6.701,-6.8405,-6.8943,-6.9073,-7.0582,-7.1592,-7.2233,-7.3261,-7.4639,-7.6123,0.0,0.0,0.0,0.0,0.0,0.0,0.0,0.0,0.0,0.0,0.0,-3.7639,-3.8006,-3.8028,-3.8028,-3.8028,-3.8432,-3.9239,-4.0487,-4.0912,-4.1462,-4.2249,-4.2286,-4.269,-4.3478,-4.3828,-4.4415,-4.5223,-4.5957,-4.7388,0.0,-5.0618,-5.1573,0.0,0.0,0.0,-5.2307,0.0,-5.0802,-5.0692,-4.9627,-4.9444,0.0,-4.7902,-4.7829,-4.8343,-4.6177,-4.5369,-4.5186,-4.3901,-4.3204,-4.2837,-4.2837,0.0,0.0,0.0,-4.6903,-4.8974,-5.2712,-5.4811,-5.6224,-5.7452,-5.8321,-5.9066,-5.9844,-6.0926,-6.1772,-6.1772,-6.2381,-6.2888,-6.2888,-6.3159,-6.3362,-6.3362,-6.3362,-6.3362,-6.3362,-6.3091,-6.2888,-6.2888,-6.2584,-6.2381,-6.2381,-6.2381,-6.2381,-6.2381,-6.2381,-6.2381,-6.2381,-6.2381,-6.2381,-6.2381,-6.2381,-6.2753,-6.3497,-6.4241,-6.5026,-6.5813,-6.6601,-6.7144,-6.7473,-6.8061,-6.7572,-6.6365,-6.7723,-6.8355,-6.8454,-6.9808,-7.0356,-7.0436,-7.1052,-7.1848,-7.269,-7.3445,-7.4833,-7.6614,0.0,0.0,0.0,0.0,0.0,0.0,0.0,0.0,0.0,0.0,0.0,-3.7676,-3.808,0.0,0.0,0.0,-3.8469,-3.9313,-4.0691,-4.0985,-4.1352,-4.1992,-4.2176,-4.258,-4.3167,-4.3387,-4.3901,-4.4691,0.0,0.0,-4.8893,-4.8893,-4.937,0.0,-5.0839,-5.0986,0.0,0.0,0.0,-5.0839,-5.1022,0.0,0.0,0.0,0.0,0.0,0.0,0.0,-4.6581,-4.4966,-4.3608,-4.2616,-4.2616,-4.247,0.0,0.0,0.0,-4.8417,-5.1433,-5.3162,-5.4509,-5.6333,-5.719,-5.7936,-5.9313,-6.0501,-6.1378,-6.1605,-6.2261,-6.2775,-6.2775,-6.2561,-6.2381,-6.2381,-6.2381,-6.2381,-6.2381,-6.2381,-6.2381,-6.2381,-6.2381,-6.2381,-6.2381,-6.2381,-6.2381,-6.2381,-6.2381,-6.2381,-6.2381,-6.2381,-6.2381,-6.2381,-6.2381,-6.2821,-6.3768,-6.4715,-6.5572,-6.6431,-6.6962,-6.7227,-6.7167,-6.8771,-6.9004,-6.8306,-6.9265,-6.9727,-6.9855,-7.0837,-7.1457,-7.1688,-7.1688,-7.2279,-7.3276,-7.4008,-7.5429,-7.7217,0.0,0.0,0.0,0.0,0.0,0.0,0.0,0.0,0.0,0.0,0.0,-3.808,-3.9622,-3.9093,-3.8946,-3.9717,-3.9129,-3.9056,-3.99,-4.0671,-4.1132,-4.1168,-4.1882,0.0,-4.2359,-4.3094,-4.3901,-4.4691,0.0,0.0,-4.7223,-4.7223,-4.7663,-4.8526,-5.0875,-5.1499,-5.0802,0.0,0.0,0.0,0.0,0.0,0.0,0.0,0.0,0.0,0.0,0.0,-4.917,-4.7498,-4.5369,-4.3441,-4.3441,-4.291,-4.2616,0.0,0.0,0.0,-4.9649,-5.1419,-5.3841,-5.6233,-5.6756,-5.7486,-6.0656,-6.1355,-6.1606,-6.238,-6.3176,-6.3741,-6.3741,-6.2981,-6.2381,-6.2381,-6.2381,-6.2381,-6.2381,-6.2381,-6.2381,-6.2381,-6.2381,-6.2381,-6.2381,-6.2381,-6.2381,-6.2381,-6.2381,-6.2381,-6.2381,-6.2381,-6.2381,-6.2381,-6.2381,-6.3091,-6.4546,-6.5967,-6.7075,-6.7809,-6.7843,-6.8577,-6.9984,-7.0107,-7.0467,-7.1098,-7.1143,-7.1222,-7.1222,-7.1267,-7.1873,-7.2714,-7.2714,-7.3332,-7.4302,-7.5045,-7.6508,-7.8242,0.0,0.0,0.0,0.0,0.0,0.0,0.0,0.0,0.0,0.0,0.0,0.0,0.0,-3.9313,-3.957,-3.9863,-4.012,-4.0361,-4.0671,-4.0948,-4.1095,-4.1095,-4.1389,-4.1552,-4.1552,-4.2323,-4.2873,0.0,0.0,-4.4745,-4.6324,-4.6324,-4.6746,-4.759,-4.9003,-4.9481,-4.9224,-4.9774,0.0,0.0,0.0,0.0,0.0,0.0,0.0,0.0,0.0,0.0,-5.1499,-4.8783,-4.6287,-4.4195,-4.3644,-4.2947,0.0,-4.4232,-4.4819,-4.5498,-4.8107,-4.9464,-5.0833,-5.3741,-5.5244,-5.6531,-5.8759,-5.9984,-6.0911,-6.1722,-6.2917,-6.3801,-6.3801,-6.3935,-6.4043,-6.4043,-6.4043,-6.4043,-6.4043,-6.4043,-6.4043,-6.4043,-6.4043,-6.4043,-6.4043,-6.4043,-6.3829,-6.3277,-6.3202,-6.2973,-6.242,-6.2381,-6.2381,-6.2381,-6.2854,-6.3802,-6.529,-6.6305,-6.6948,-6.7218,-6.7658,-6.847,-6.9519,-6.9958,-7.0974,-7.2279,-7.2279,-7.1917,-7.1312,-7.1312,-7.1917,-7.2797,-7.2797,-7.3811,-7.537,-7.6159,-7.7624,-7.9347,0.0,0.0,0.0,0.0,0.0,0.0,0.0,0.0,0.0,-3.808,0.0,0.0,0.0,0.0,-4.0304,-4.0304,-4.0561,-4.0708,-4.0708,-4.0435,-4.0288,-4.0288,-4.0561,-4.0708,-4.0708,-4.1479,0.0,0.0,0.0,0.0,0.0,-4.5516,-4.592,-4.6709,-4.7278,-4.7498,0.0,0.0,0.0,-4.9407,0.0,0.0,-5.4106,0.0,0.0,0.0,0.0,0.0,-5.3665,-5.1499,-4.8967,-4.6507,0.0,0.0,0.0,0.0,0.0,0.0,-4.6352,0.0,0.0,-5.1896,-5.3583,-5.5141,-5.8121,-5.9373,-6.0291,-6.1657,-6.297,-6.3902,-6.3902,-6.4578,-6.5073,-6.5027,-6.4999,-6.4999,-6.4999,-6.4999,-6.4999,-6.4999,-6.4999,-6.4999,-6.4999,-6.4999,-6.4766,-6.4183,-6.4148,-6.3864,-6.3314,-6.2973,-6.2958,-6.3196,-6.39,-6.4843,-6.6165,-6.6875,-6.725,-6.725,-6.8096,-6.891,-6.9701,-7.0423,-7.1559,-7.2908,-7.3188,-7.2921,-7.2279,-7.2279,-7.288,-7.3811,-7.3811,-7.483,-7.6406,-7.7238,-7.8475,-7.991,0.0,0.0,0.0,0.0,0.0,0.0,0.0,0.0,-3.8117,-3.9696,0.0,0.0,0.0,0.0,0.0,-4.1132,-4.0414,-3.9937,-3.99,-3.9166,-3.8689,-3.8689,0.0,0.0,0.0,0.0,0.0,0.0,0.0,0.0,0.0,0.0,-4.5076,-4.581,-4.581,-4.581,-4.592,0.0,-4.8306,-4.8673,0.0,-5.3959,-5.3607,0.0,0.0,0.0,-5.8707,-5.774,0.0,-5.5669,0.0,0.0,0.0,0.0,0.0,0.0,0.0,0.0,0.0,0.0,0.0,0.0,-5.1922,-5.3412,-5.8956,-5.9718,-5.9905,-6.2251,-6.3466,-6.409,-6.409,-6.4751,-6.5223,-6.5038,-6.4994,-6.4994,-6.503,-6.503,-6.503,-6.5098,-6.5098,-6.5098,-6.5098,-6.5098,-6.5065,-6.5032,-6.5032,-6.5032,-6.4999,-6.4218,-6.4173,-6.4973,-6.5533,-6.624,-6.7153,-6.7881,-6.8227,-6.8266,-6.9241,-7.0097,-7.084,-7.1618,-7.2434,-7.3177,-7.3991,-7.4348,-7.4385,-7.431,-7.4867,-7.5787,-7.5787,-7.6432,-7.742,-7.8295,-7.914,-7.9979,0.0,0.0,0.0,0.0,0.0,-3.6229,-3.7052,-3.7845,-3.8726,0.0,0.0,0.0,0.0,0.0,-4.2616,-4.2029,-4.1222,-4.0524,-3.9937,-3.9166,-3.8689,-3.8689,-3.8909,-3.9019,-3.9019,0.0,0.0,0.0,0.0,0.0,0.0,0.0,0.0,0.0,-4.4158,-4.4158,-4.4342,-4.7131,0.0,-4.8673,-5.2747,-5.462,0.0,0.0,0.0,0.0,0.0,-6.0126,-5.8804,-5.7042,-5.473,-5.1903,0.0,0.0,0.0,0.0,0.0,0.0,-4.3277,0.0,0.0,0.0,0.0,0.0,-5.5566,-5.815,-6.0274,-6.0921,-6.2695,-6.409,-6.409,-6.4751,-6.528,-6.524,-6.523,-6.5412,-6.6022,-6.6094,-6.6313,-6.6858,-6.6931,-6.6931,-6.6931,-6.6931,-6.67,0.0,-6.5997,-6.5748,-6.5032,-6.5295,-6.6144,-6.7518,-6.7725,-6.8181,-6.8961,-6.9172,-6.9277,-6.9277,-6.9565,-7.0097,-7.084,-7.1618,-7.2798,-7.4221,-7.5046,-7.5823,-7.6366,-7.4867,-7.4867,-7.5787,-7.5787,-7.6796,-7.8332,-7.914,-7.9984,-8.085,0.0,0.0,-3.5004,-3.5004,-3.6288,-3.7551,-3.8374,-3.946,-4.0487,0.0,0.0,0.0,0.0,0.0,-4.3314,-4.2837,-4.2066,-4.1405,-4.0928,-3.9827,-3.9203,-3.9203,-3.8872,-3.8689,-3.8689,-3.9166,0.0,0.0,0.0,0.0,0.0,0.0,0.0,0.0,-4.2983,-4.3167,-4.3735,-4.6948,0.0,0.0,-5.2123,0.0,0.0,-5.8914,-6.0676,0.0,0.0,0.0,-6.075,-5.9685,-5.6822,0.0,0.0,0.0,0.0,0.0,0.0,0.0,0.0,0.0,0.0,0.0,0.0,0.0,-5.3849,-5.6748,-5.9171,-6.0199,-6.1814,-6.3062,-6.3062,-6.3429,-6.387,-6.42,-6.4567,-6.5081,-6.5888,-6.5999,-6.6292,-6.71,-6.7173,-6.7467,-6.8128,-6.8201,-6.8147,-6.7949,-6.792,-6.7559,-6.665,-6.7299,-6.8189,-6.9151,-6.9101,-6.9457,-7.0298,-7.0298,-7.0298,-7.0298,-7.0668,-7.1084,-7.1552,-7.2703,-7.3763,-7.4797,-7.5923,-7.6761,-7.7212,-7.6027,-7.5891,-7.6396,-7.6396,-7.7304,-7.873,-7.9835,-8.0732,-8.1629,0.0,0.0,-3.5188,-3.5261,-3.7242,-3.9093,-3.99,-4.1332,-4.2543,0.0,-4.3515,-4.3644,0.0,0.0,0.0,0.0,-4.2884,-4.2369,-4.2369,-4.0887,-3.9974,-3.99,-3.9203,-3.8799,-3.8689,-3.8689,0.0,0.0,0.0,0.0,0.0,0.0,0.0,0.0,-4.2359,-4.2837,-4.3681,-4.6838,-4.7498,-4.6874,-5.1573,-5.3518,0.0,0.0,-6.075,-6.1117,-6.3503,-6.3369,-6.2181,-6.2671,-5.938,0.0,0.0,0.0,0.0,0.0,-4.3348,0.0,0.0,0.0,0.0,0.0,0.0,0.0,-5.2601,-5.506,-5.7005,-5.9171,-6.0309,-6.097,-6.1043,-6.108,-6.1337,-6.2144,-6.2989,-6.3943,-6.5154,-6.5375,-6.5742,-6.6549,-6.6623,-6.721,-6.8641,-6.8788,-6.9045,-6.9779,-6.9926,-6.9718,-6.911,-6.97,-7.0134,-7.0273,-7.011,-7.04,-7.1255,-7.1255,-7.1255,-7.1255,-7.2101,-7.2496,-7.2569,-7.4184,-7.4918,-7.4992,-7.6576,-7.7273,-7.7273,-7.7273,-7.7273,-7.731,-7.7384,-7.8027,-7.902,-8.0431,-8.1485,-8.2434,-3.3807,-3.5018,-3.6266,-3.689,-3.8469,-3.9937,-4.0744,-4.1699,-4.2359,-4.2506,-4.3681,-4.4709,0.0,0.0,0.0,-4.4878,-4.3556,-4.2716,-4.2716,-4.1562,-4.0598,-3.9937,-3.9753,-3.935,-3.8726,-3.8689,-3.8799,0.0,0.0,0.0,0.0,0.0,0.0,0.0,-4.269,-4.3368,-4.3662,-4.6232,-4.8287,-5.0141,-5.3702,-5.5537,-5.6565,-6.075,-6.2768,-6.3613,-6.5375,-6.5681,-6.5016,-6.3603,-6.1544,-5.8988,0.0,0.0,0.0,-4.7849,0.0,0.0,0.0,0.0,0.0,0.0,0.0,0.0,-4.814,-5.1295,-5.4032,-5.4509,-5.5757,-5.6969,-5.7629,-5.774,-5.7997,-5.8804,-5.9612,-6.1374,-6.4824,-6.5852,-6.6549,-6.7357,-6.7467,-6.7577,-6.7907,-6.7907,-6.7981,-6.8164,-6.8752,-6.9623,-7.0726,-7.0945,-7.1348,-7.1999,-7.1968,-7.2041,-7.2226,-7.2226,-7.2226,-7.2226,-7.2409,-7.2496,-7.2569,-7.4184,-7.4918,-7.4992,-7.6576,-7.7273,-7.7273,-7.7273,-7.7273,-7.7347,-7.8075,-7.9201,-8.0488,-8.141,-8.2607,-8.3878,-3.3807,-3.5165,-3.6574,-3.7345,-3.9166,-4.0781,-4.1589,-4.2396,-4.302,-4.3461,-4.4733,-4.5773,0.0,0.0,0.0,-4.6157,-4.4993,-4.4383,-4.4639,-4.3345,-4.2353,-4.1961,-4.102,-4.0178,-3.9556,-3.8979,-3.8689,-3.8689,0.0,0.0,0.0,0.0,0.0,0.0,-4.247,-4.3644,-4.5957,-4.7205,-4.8673,-5.0435,-5.3261,0.0,-5.834,-6.1569,-6.3613,-6.4949,-6.6826,-6.7347,-6.6875,-6.552,-6.3239,0.0,-5.9515,-5.6903,-5.3662,0.0,-4.8046,-4.5475,0.0,0.0,0.0,-4.1405,-4.2616,0.0,0.0,-4.869,-5.0765,-5.0765,-5.2711,-5.4546,-5.495,-5.5475,-5.6098,-5.6683,-5.8311,-5.9854,-6.092,-6.2805,-6.464,-6.6292,-6.6512,-6.699,-6.8164,-6.8311,-6.8458,-6.8862,-6.9265,-6.9853,-7.066,-7.1101,-7.1505,-7.1908,-7.2312,-7.2496,-7.2496,-7.2496,-7.2496,-7.2496,-7.2496,-7.2716,-7.3156,-7.4368,-7.5139,-7.5609,-7.7134,-7.7826,-7.7826,-7.7826,-7.8239,-7.8915,-7.8998,-8.0011,-8.1512,-8.2561,-8.3677,-8.474,-3.3844,-3.5165,-3.6574,-3.7345,-3.9496,-4.1315,-4.1992,-4.302,-4.4083,-4.5126,-4.6409,-4.7303,0.0,0.0,0.0,0.0,-4.7615,-4.7229,-4.7417,-4.5963,-4.5006,-4.4856,-4.2863,-4.1534,-4.0982,-3.9696,-3.8958,-3.8773,0.0,0.0,0.0,0.0,0.0,0.0,0.0,0.0,0.0,0.0,0.0,-5.1074,0.0,-5.6235,-5.9698,-6.2144,-6.42,-6.5992,-6.7784,-6.8323,-6.8092,-6.7316,-6.4878,-6.2273,-6.2692,-5.957,0.0,0.0,0.0,0.0,0.0,0.0,0.0,-4.1992,-4.1919,-4.2286,0.0,0.0,0.0,-4.7572,-4.9738,-5.163,-5.1858,-5.2842,-5.3738,-5.4088,0.0,0.0,0.0,-5.8231,0.0,-6.398,-6.4787,-6.5778,-6.754,-6.8458,-6.9192,-6.9816,-7.0146,-7.0257,-7.011,-7.0881,-7.1293,-7.1293,-7.2092,-7.2553,-7.2686,-7.2686,-7.2742,-7.2844,-7.2844,-7.3231,-7.3901,-7.4818,-7.5638,-7.6361,-7.7828,-7.8484,-7.8484,-7.8633,-7.9529,-8.0684,-8.0009,-8.0837,-8.2519,-8.3661,-8.463,-8.5379,-3.3954,-3.5165,-3.6574,-3.7345,-3.9496,-4.1132,-4.1205,-4.3113,-4.5235,-4.7124,-4.8762,0.0,0.0,0.0,0.0,0.0,0.0,-5.1599,-5.0913,-4.9652,-4.8654,-4.795,-4.5528,-4.3843,-4.3077,-4.121,-3.9821,-3.9063,0.0,0.0,0.0,0.0,0.0,0.0,-4.4618,0.0,0.0,0.0,-5.3776,0.0,-5.6682,-5.8397,0.0,-6.2989,-6.5375,-6.7468,-6.7904,-6.8338,-6.86,0.0,-6.6738,-6.531,0.0,-6.1995,-6.1278,-5.4145,0.0,0.0,0.0,-4.3828,-4.2947,-4.2433,-4.2763,-4.3497,-4.4599,0.0,-4.4232,-4.4966,0.0,-4.5955,-4.7003,0.0,0.0,0.0,0.0,0.0,-5.2203,-5.3311,-5.5696,-6.0404,-6.2915,-6.4053,-6.3539,-6.6769,-6.8935,-6.9045,-7.0367,-7.0844,-7.0146,-7.0881,-7.1293,-7.1293,-7.2092,-7.2733,-7.329,-7.329,-7.359,-7.4094,-7.4094,-7.4244,-7.4555,-7.5904,-7.668,-7.7064,-7.8478,-7.9105,-7.918,-7.992,-8.0773,-8.1503,-8.0881,-8.1884,-8.3794,-8.466,-8.5418,-8.5988,-3.4674,-3.6229,-3.7955,-3.8726,-4.0487,-4.1956,-4.2433,-4.4764,-4.6962,-4.8261,-5.0289,0.0,0.0,0.0,0.0,0.0,0.0,-5.3981,0.0,0.0,0.0,-4.8682,-4.628,-4.4448,-4.3366,-4.2336,-4.1043,-3.9571,-3.9905,0.0,0.0,0.0,0.0,0.0,-4.4801,0.0,-4.9077,0.0,-5.4181,0.0,0.0,-6.114,0.0,-6.4264,-6.5694,-6.7659,-6.7732,-6.8095,-6.8507,0.0,-6.6787,0.0,0.0,0.0,0.0,-5.8053,0.0,0.0,0.0,-4.7499,-4.6322,-4.476,-4.4858,-4.5062,-4.4208,-4.3387,-4.2616,-4.2029,0.0,0.0,0.0,0.0,0.0,0.0,-4.8404,0.0,0.0,0.0,-5.3965,0.0,0.0,0.0,-6.2341,-6.6223,-6.8343,-6.7567,-6.9336,-6.9943,-6.8779,-6.9926,-7.0587,-7.0587,-7.1672,-7.2637,-7.3391,-7.3236,-7.3537,-7.4293,-7.4768,-7.5291,-7.5863,-7.6934,-7.7777,-7.8352,-7.9318,-8.0009,-8.0486,-8.0866,-8.2005,-8.3484,-8.2861,-8.3443,-8.4686,-8.5436,-8.5846,-8.6094,-3.5848,0.0,-3.8872,-3.946,-4.1075,-4.2727,-4.3975,-4.6059,-4.7965,-4.9332,-5.1926,0.0,-5.4663,-5.5861,0.0,0.0,-5.7665,-5.724,0.0,0.0,-5.3274,-5.1491,-4.8401,-4.6334,-4.5533,-4.4049,-4.2476,-4.0844,-4.1114,0.0,0.0,0.0,0.0,0.0,0.0,-4.7849,-5.1595,0.0,-5.5562,-6.0215,-6.0809,-6.3387,-6.6736,-6.5783,-6.6329,-6.7545,-6.7316,-6.7599,-6.8038,-6.7892,-6.6383,0.0,-6.6002,-6.4457,-6.1994,0.0,0.0,0.0,-5.2602,-5.086,-4.9548,-4.7721,-4.6979,-4.6475,-4.554,-4.3979,-4.2389,-4.1089,-4.1793,0.0,0.0,0.0,0.0,0.0,0.0,-4.7342,0.0,-4.7945,0.0,0.0,0.0,0.0,0.0,-6.4843,-6.696,-6.6061,-6.849,-6.9293,-6.7635,-6.9241,-7.0084,-6.9862,-7.1243,-7.2365,-7.3152,-7.301,-7.328,-7.4084,-7.4901,-7.5618,-7.6322,-7.7324,-7.8159,-7.8788,-7.9419,-8.0294,-8.1326,-8.1556,-8.2922,-8.4868,-8.4631,-8.4863,-8.5418,-8.5937,-8.6094,-8.6094,-3.7566,-3.8102,-3.8726,-3.8726,-4.0708,-4.3094,-4.5443,-4.6281,-4.7641,-5.038,0.0,0.0,0.0,0.0,0.0,0.0,0.0,-6.2346,-6.0692,-5.9758,-5.8873,-5.8038,-5.322,-5.0702,-5.1115,-4.6796,-4.4082,-4.3189,-4.2128,0.0,0.0,0.0,0.0,0.0,-4.6597,-4.8975,-5.0671,-5.5361,-5.9377,-6.2642,-6.3436,-6.4638,-6.6074,0.0,-6.7751,-6.7469,-6.663,0.0,0.0,-6.6522,-6.5808,-6.5019,-6.461,0.0,0.0,0.0,0.0,0.0,-5.5163,-5.3214,-5.2268,-5.0961,-4.8857,-4.7592,-4.9447,-4.6834,-4.3789,-4.3314,-4.2624,0.0,0.0,0.0,0.0,0.0,0.0,0.0,0.0,0.0,0.0,0.0,0.0,0.0,0.0,-6.1902,-6.4445,0.0,-6.8328,-6.9504,-6.7347,-6.931,-7.0098,-6.9265,-7.0851,-7.1988,-7.2617,-7.2635,-7.2914,-7.3548,-7.4356,-7.4871,-7.5188,-7.6667,-7.744,-7.7665,-7.8273,-7.9538,-8.1192,-8.1962,-8.3308,-8.4978,-8.5731,-8.6038,-8.6077,-8.6077,-8.6094,-8.6094,-3.9937,-4.0524,-4.0928,-4.0361,-4.1846,-4.3718,-4.559,-4.7436,-4.9724,0.0,-5.5834,0.0,0.0,-6.2204,-6.3358,0.0,0.0,-6.4859,-6.2589,-6.1416,-6.0048,-5.8385,-5.3683,-5.1197,-5.1381,-4.8186,-4.5735,-4.4184,-4.3777,0.0,0.0,0.0,0.0,0.0,0.0,-4.9189,0.0,0.0,0.0,0.0,0.0,-6.6781,-6.7564,0.0,-6.7002,-6.6441,-6.6134,-6.6139,0.0,-6.6099,-6.5618,-6.513,-6.5344,-6.5019,-6.4396,-6.3177,-6.233,-6.1141,-5.8336,-5.7619,-5.6759,-5.3011,-5.2842,-5.3035,-5.0695,-4.8224,-4.6343,-4.5906,-4.3561,0.0,0.0,0.0,0.0,0.0,0.0,0.0,0.0,0.0,0.0,0.0,0.0,0.0,0.0,0.0,0.0,0.0,-6.7184,0.0,-6.7009,-6.8642,-6.9478,-6.9214,-7.0118,-7.1254,-7.2594,-7.2438,-7.2999,-7.4322,-7.5168,-7.5902,-7.6568,-7.7608,-7.8131,-7.8234,-7.9031,-8.0323,-8.1939,-8.2824,-8.417,-8.5709,-8.5978,-8.6094,-8.6094,-8.6094,-8.6094,-8.617,-4.1168,-4.1772,-4.2139,-4.1625,-4.2873,-4.4412,-4.5894,-4.8609,-5.1514,0.0,-5.7609,0.0,-6.3038,0.0,-6.5089,0.0,-6.709,-6.6744,-6.4782,-6.3923,-6.2605,-6.0615,-5.6762,-5.4472,-5.4066,-5.0924,-4.8414,-4.6569,0.0,-4.4436,0.0,0.0,0.0,0.0,0.0,-4.9409,-5.285,-5.5367,-5.9662,0.0,0.0,-6.7434,0.0,0.0,-6.6974,-6.6744,0.0,-6.632,-6.6244,-6.5628,-6.5216,-6.4934,-6.4949,-6.4537,-6.3981,-6.3762,-6.3047,-6.2053,-6.0589,-6.0175,-5.9382,-5.599,-5.5856,-5.5907,-5.3402,-5.108,-4.9309,-4.8897,-4.5857,-4.3484,0.0,0.0,0.0,0.0,0.0,0.0,0.0,-4.1585,0.0,0.0,0.0,0.0,0.0,0.0,0.0,0.0,0.0,0.0,0.0,-6.807,-6.8785,-6.8481,-6.942,-7.0483,-7.157,-7.1694,-7.2437,-7.3822,-7.4707,-7.5553,-7.6399,-7.7246,-7.7784,-7.8092,-7.8669,-8.0054,-8.1939,-8.2785,-8.4132,-8.5709,-8.5978,-8.6094,-8.6094,-8.6094,-8.6286,-8.6709,-4.1352,-4.1882,-4.2433,-4.2433,-4.3718,-4.5161,-4.6445,-4.983,-5.2964,0.0,-5.9344,-6.2551,-6.3474,-6.5743,-6.7244,-6.7282,-6.8052,-6.8167,-6.7282,-6.7167,-6.6436,-6.4859,-6.2281,-6.0315,-5.9147,-5.4868,-5.1839,-5.0174,0.0,0.0,0.0,0.0,0.0,0.0,-4.6468,0.0,-5.4015,-5.6574,-6.0814,-6.5897,-6.6744,-6.6667,-6.609,-6.6859,-6.7705,-6.8359,-6.7436,-6.709,-6.6859,-6.5205,-6.4666,-6.4512,-6.3705,-6.3385,-6.3346,-6.3346,-6.3308,-6.3027,-6.1802,-6.0891,-6.0156,-5.9609,-5.7748,-5.6269,-5.7349,-5.5107,-5.2664,-5.2179,-4.9423,-4.7548,0.0,0.0,0.0,0.0,0.0,0.0,0.0,0.0,0.0,0.0,0.0,0.0,0.0,0.0,0.0,0.0,0.0,0.0,0.0,-6.7616,-6.8013,-6.7128,-6.8744,-6.9667,-6.9706,-7.0552,-7.1398,-7.2283,-7.3129,-7.3976,-7.4784,-7.5668,-7.6515,-7.7284,-7.74,-7.8823,-8.117,-8.2016,-8.3362,-8.4978,-8.5786,-8.6094,-8.6094,-8.617,-8.6709,-8.7517,-4.291,-4.3534,-4.4085,-4.4085,-4.4929,-4.621,-4.8079,-5.156,0.0,0.0,-6.1454,-6.4743,-6.6846,-6.8244,-6.9283,-6.986,-7.0129,-6.9898,-6.909,-6.8436,-6.7859,-6.7436,-6.3782,-6.1911,-6.217,-5.618,-5.2521,-5.1436,-4.8288,0.0,-4.5222,0.0,0.0,0.0,0.0,-4.966,-5.3569,-5.6103,-6.0184,-6.5051,-6.6513,-6.7359,-6.7782,0.0,-6.8629,-6.9167,-6.7628,-6.709,-6.6936,-6.5897,-6.5551,-6.5513,-6.5282,-6.4782,-6.4282,-6.4282,-6.382,-6.3218,-6.2913,-6.2209,-6.1186,-5.9469,-5.901,-5.8758,-5.7881,-5.6469,-5.5237,-5.4792,-5.2049,-4.9663,-4.9433,0.0,0.0,0.0,0.0,0.0,0.0,0.0,0.0,-3.9631,0.0,0.0,0.0,0.0,0.0,0.0,0.0,0.0,0.0,0.0,-6.8013,-6.7128,-6.8167,-6.9052,-6.9706,-7.1129,-7.2283,-7.3168,-7.4014,-7.4861,-7.5707,-7.6553,-7.7092,-7.7361,-7.8631,-7.99,-8.1208,-8.267,-8.3901,-8.4978,-8.5786,-8.6094,-8.617,-8.6824,-8.7209,-8.7594,-4.4011,-4.4378,-4.5131,-4.6544,-4.7647,-4.8687,-4.9621,-5.3309,-5.7006,-5.9932,-6.3463,0.0,-6.8744,-6.9706,-7.0398,-7.086,-7.0898,-7.0706,-7.0244,-6.9783,-6.936,-6.8975,-6.6705,-6.5089,-6.4436,-5.9973,-5.628,-5.3549,-5.0538,0.0,-4.5878,0.0,0.0,0.0,0.0,-4.9803,-5.3472,-5.7511,-6.1512,-6.5282,-6.659,-6.7167,0.0,-6.8129,-6.8475,-6.8436,-6.7436,-6.709,-6.6898,-6.5743,-6.532,-6.5282,-6.4897,-6.4436,-6.3974,-6.3628,-6.3166,-6.2781,-6.2781,-6.2435,-6.1796,-6.0597,-6.0648,-6.0634,-5.9358,-5.8336,-5.7519,-5.6978,-5.4741,-5.2866,-5.2741,0.0,0.0,0.0,0.0,0.0,0.0,0.0,0.0,0.0,-4.1816,0.0,0.0,0.0,0.0,0.0,0.0,0.0,0.0,0.0,-6.6705,-6.659,-6.7744,-6.8629,-6.9129,-7.1168,-7.2629,-7.3514,-7.4322,-7.5168,-7.6015,-7.6899,-7.7476,-7.79,-7.9208,-8.0285,-8.1208,-8.2516,-8.3555,-8.4439,-8.5632,-8.6324,-8.6786,-8.7632,-8.7979,-8.8132,-4.5021,-4.5186,-4.6305,-4.9377,-5.1193,-5.2203,-5.2189,-5.5684,-5.9356,-6.2065,-6.5359,-6.8013,-6.9513,-7.0437,-7.0898,-7.0898,-7.0898,-7.0898,-7.0898,-7.0898,-7.0591,-6.9898,-6.9744,-6.8667,-6.6436,-6.4474,-6.1204,-5.6549,-5.378,0.0,0.0,0.0,0.0,0.0,0.0,0.0,0.0,-5.9876,-6.3629,-6.582,-6.6744,-6.6667,-6.6205,-6.7667,-6.7744,-6.709,-6.6974,-6.7013,-6.6859,-6.5282,-6.4782,-6.4628,-6.3897,-6.3551,-6.332,-6.2512,-6.2178,-6.2101,-6.1947,-6.1947,-6.1947,-6.1947,-6.1947,-6.1716,-6.0973,-6.0204,-5.9435,-5.8627,-5.7165,-5.628,-5.7022,0.0,0.0,0.0,0.0,0.0,0.0,0.0,0.0,0.0,0.0,0.0,0.0,0.0,0.0,0.0,0.0,0.0,0.0,0.0,-6.5243,-6.5859,-6.7552,-6.8385,-6.8385,-7.1052,-7.2745,-7.3514,-7.4437,-7.5322,-7.6207,-7.7053,-7.79,-7.8707,-7.9592,-8.04,-8.117,-8.1977,-8.2862,-8.3901,-8.5363,-8.6555,-8.7517,-8.8363,-8.8748,-8.8979,-4.6672,-4.7792,-4.9434,-5.1749,-5.43,-5.6841,-5.9259,-6.0886,-6.2404,-6.3975,-6.7128,-6.936,-6.9667,-7.0437,-7.0898,-7.0898,-7.0898,-7.0898,-7.0898,-7.0898,-7.0821,-7.0706,-7.0052,-6.9475,-6.9052,-6.5974,-6.3243,-6.0985,-5.6973,0.0,0.0,0.0,0.0,0.0,0.0,0.0,-5.7109,-6.1602,0.0,-6.4974,-6.6474,-6.7013,-6.6898,-6.7205,-6.7244,-6.7013,-6.6359,-6.6551,-6.6936,-6.5974,-6.5667,-6.5628,-6.5474,-6.4936,-6.4205,-6.3358,-6.2627,-6.1947,-6.1204,-6.1012,-6.1012,-6.1012,-6.1012,-6.0973,-6.0819,-6.0666,-6.0319,-5.9473,-5.8511,-5.7896,-5.805,-5.5742,0.0,0.0,0.0,0.0,0.0,0.0,0.0,0.0,0.0,0.0,0.0,0.0,0.0,0.0,0.0,0.0,0.0,0.0,0.0,0.0,-6.7552,-6.8385,0.0,0.0,-7.336,-7.3514,-7.5053,-7.6245,-7.7092,-7.79,-7.8746,-7.9631,-8.0477,-8.0977,-8.117,-8.1977,-8.3247,-8.4709,-8.5016,-8.6055,-8.7517,-8.8363,-8.9133,-8.9825,-4.8911,-5.0193,-5.2048,-5.4764,-5.7519,-6.0251,-6.3024,-6.469,-6.5893,-6.6487,-6.8398,-6.986,-7.0283,-7.0667,-7.0898,-7.0898,-7.0898,-7.0898,-7.0898,-7.0898,-7.0898,-7.0898,-7.0514,-7.0129,-6.9706,-6.7628,-6.5089,-6.2101,-5.9127,0.0,0.0,0.0,0.0,0.0,0.0,-5.4598,0.0,0.0,-6.3552,-6.4743,-6.6436,-6.659,-6.5897,-6.6782,-6.6821,-6.6436,-6.6051,-6.6128,-6.6397,-6.6013,-6.5897,-6.5897,-6.5897,-6.559,-6.5013,-6.3705,-6.3051,-6.2435,-6.1127,-6.0781,-6.0781,-6.0781,-6.0781,-6.0781,-6.0781,-6.0781,-6.055,-5.9665,-5.955,-5.9319,-5.8473,-5.7319,-5.6064,-5.4871,0.0,0.0,0.0,0.0,0.0,0.0,0.0,0.0,0.0,0.0,0.0,0.0,0.0,0.0,0.0,0.0,0.0,0.0,0.0,0.0,-6.8385,0.0,-7.3514,-7.3514,-7.5207,-7.6476,-7.7323,-7.813,-7.8977,-7.9862,-8.0708,-8.1093,-8.117,-8.1977,-8.2785,-8.367,-8.5016,-8.6286,-8.7555,-8.8863,-8.9863,-9.0633,-5.1791,-5.305,-5.5024,-5.8371,-6.0806,-6.3159,-6.5765,-6.7582,-6.8667,-6.8667,-6.9436,-7.0206,-7.0821,-7.0898,-7.0898,-7.0898,-7.0898,-7.0821,-7.0667,-7.0629,-7.0629,-7.0629,-7.0629,-7.0437,-6.9975,-6.9283,-6.7128,-6.3435,-6.1704,-5.8642,0.0,0.0,0.0,0.0,0.0,0.0,0.0,-6.2144,-6.345,-6.4743,-6.6244,-6.5936,-6.4743,-6.6282,-6.6436,-6.5897,-6.5897,-6.5897,-6.5897,-6.5897,-6.5897,-6.5897,-6.5897,-6.5782,-6.532,-6.3782,-6.3166,-6.2704,-6.1204,-6.0781,-6.0742,-6.055,-6.0512,-6.0473,-6.0319,-6.0281,-6.0089,-5.9396,-5.9935,-6.0127,-5.8819,-5.8605,-5.8392,-5.7666,-5.556,0.0,0.0,0.0,0.0,0.0,0.0,0.0,0.0,0.0,0.0,0.0,0.0,0.0,0.0,0.0,0.0,0.0,0.0,-6.8577,-6.8936,0.0,-7.3591,-7.3783,-7.5476,-7.6746,-7.7592,-7.84,-7.9246,-8.0131,-8.0785,-8.1093,-8.1131,-8.1785,-8.2131,-8.2516,-8.4709,-8.6209,-8.7325,-8.8825,-8.994,-9.071,-5.5544,-5.7095,-5.9328,-6.2807,-6.4199,-6.5856,-6.8855,-6.9448,-6.959,-6.959,-7.0283,-7.0821,-7.0898,-7.0898,-7.0898,-7.0898,-7.0898,-7.0591,-6.986,-6.9821,-6.9821,-6.9821,-6.9821,-7.0129,-7.0783,-7.0706,-6.9744,-6.7821,-6.6128,-6.1466,-5.4176,0.0,0.0,0.0,-5.8195,-6.0345,-6.2542,-6.4131,-6.4719,-6.4666,-6.5628,-6.5436,-6.4705,-6.5628,-6.5974,-6.5897,-6.5897,-6.5897,-6.5897,-6.5897,-6.5897,-6.5897,-6.5897,-6.5359,-6.4551,-6.3589,-6.2781,-6.2024,-6.105,-6.0781,-6.0589,-5.9819,-5.9627,-5.9435,-5.8704,-5.855,-5.8511,-5.8434,-5.905,-5.9588,-5.9435,-5.9533,-6.0316,-6.2286,-5.8861,0.0,0.0,0.0,-5.5545,0.0,0.0,0.0,0.0,0.0,0.0,0.0,0.0,0.0,0.0,0.0,0.0,-6.5859,-6.7552,-6.9129,-7.0667,-7.2552,-7.386,-7.463,-7.6361,-7.7592,-7.84,-7.9285,-8.0169,-8.0977,-8.1054,-8.1093,-8.1093,-8.117,-8.1631,-8.2401,-8.3439,-8.4824,-8.6324,-8.7286,-8.8171,-8.9017,-5.9346,-6.0642,-6.2275,-6.4953,-6.681,-6.8325,-6.9525,-7.0129,-7.0437,-7.0437,-7.0706,-7.0898,-7.0898,-7.0898,-7.0706,-7.0206,-7.0167,-6.9821,-6.8975,-6.8936,-6.8936,-6.8936,-6.8936,-6.909,-6.9398,-6.9398,-6.8821,-6.7628,-6.6474,-6.4014,-6.0404,-6.0181,-5.9817,-5.9431,-6.0251,-6.169,-6.3459,-6.3838,-6.4231,-6.4628,-6.4974,-6.4897,-6.4705,-6.5551,-6.5897,-6.5897,-6.5897,-6.5897,-6.5897,-6.5897,-6.5897,-6.582,-6.5282,-6.4897,-6.432,-6.2974,-6.2358,-6.1793,-6.0396,-6.0012,-5.9819,-5.8973,-5.8781,-5.8704,-5.8357,-5.8319,-5.8319,-5.8319,-5.855,-5.8798,-5.8896,-5.9782,-6.0708,-6.133,-6.0287,-5.9829,0.0,0.0,0.0,-5.8078,0.0,0.0,0.0,0.0,0.0,0.0,0.0,0.0,0.0,0.0,0.0,-6.7359,0.0,-6.8667,-7.0898,-7.2091,-7.3399,-7.4707,-7.6476,-7.7707,-7.8515,-7.94,-8.0285,-8.1093,-8.1093,-8.1093,-8.1093,-8.1093,-8.1554,-8.2439,-8.3824,-8.5093,-8.6286,-8.7671,-8.8402,-8.8748,-6.2597,-6.3727,-6.4929,-6.6996,-6.867,-6.9783,-7.0014,-7.0552,-7.0898,-7.0898,-7.0898,-7.0898,-7.0898,-7.0898,-7.0591,-6.9783,-6.9706,-6.9206,-6.809,-6.8013,-6.8013,-6.8013,-6.8013,-6.8129,-6.8385,-6.8385,-6.7975,-6.709,-6.6513,-6.5026,-6.258,-6.1158,-6.1147,-6.2352,-6.2341,-6.3145,-6.4484,-6.418,-6.4282,-6.4628,-6.4897,-6.482,-6.4705,-6.5551,-6.5897,-6.5897,-6.5897,-6.5743,-6.5513,-6.5513,-6.5359,-6.5051,-6.4705,-6.4243,-6.3628,-6.2447,-6.1755,-6.105,-5.9819,-5.9319,-5.8934,-5.8127,-5.7934,-5.7857,-5.7588,-5.755,-5.7627,-5.7857,-5.7961,-5.8075,-5.8454,-5.9514,-6.0424,-6.0469,-6.0684,-6.0872,-6.1046,-6.015,0.0,0.0,-6.0985,-6.0804,-5.9672,-6.1362,0.0,0.0,0.0,0.0,0.0,0.0,0.0,0.0,0.0,0.0,-7.1629,-7.2014,-7.3283,-7.5476,-7.6938,-7.8092,-7.89,-7.9785,-8.0516,-8.1093,-8.1093,-8.1093,-8.1093,-8.1093,-8.1554,-8.2439,-8.3939,-8.5016,-8.594,-8.7401,-8.794,-8.7979,-6.5025,-6.6181,-6.737,-6.9299,-6.9667,-6.9975,-7.0744,-7.0898,-7.0898,-7.0898,-7.0898,-7.0898,-7.0898,-7.0898,-7.0591,-6.9783,-6.9706,-6.8975,-6.7244,-6.7128,-6.7128,-6.7128,-6.7128,-6.7513,-6.8385,-6.8385,-6.7975,-6.709,-6.709,-6.3963,-5.7953,-5.706,-5.9485,-6.4538,-6.4538,-6.5051,-6.5897,-6.5859,-6.5397,-6.4666,-6.5551,-6.5359,-6.4705,-6.5551,-6.5897,-6.5897,-6.5897,-6.5359,-6.4628,-6.4628,-6.4051,-6.3462,-6.432,-6.3474,-6.2139,-6.2101,-6.0858,-5.9511,-5.9511,-5.8934,-5.8127,-5.7253,-5.7022,-5.6791,-5.5934,-5.5742,-5.5972,-5.683,-5.711,-5.7495,-5.8355,-5.8732,-5.9432,-6.0927,-6.0102,-6.0035,-6.2359,-6.1225,0.0,-6.3631,-6.5178,-6.5483,-6.4072,-6.6718,0.0,0.0,0.0,0.0,0.0,0.0,0.0,-6.7368,-6.7224,0.0,-7.3423,-7.2629,-7.3899,-7.7284,-7.8092,-7.8938,-7.9823,-8.0708,-8.1093,-8.1093,-8.1093,-8.1093,-8.1093,-8.1093,-8.1554,-8.2401,-8.3247,-8.4132,-8.5016,-8.5824,-8.6132,-8.6247,-6.691,-6.7483,-6.8149,-6.9715,-7.0268,-7.0591,-7.086,-7.0898,-7.0898,-7.0898,-7.0898,-7.0898,-7.0898,-7.0398,-6.9744,-6.8898,-6.8282,-6.7475,-6.6359,-6.6282,-6.6282,-6.6282,-6.6282,-6.6397,-6.6705,-6.7244,-6.7359,-6.709,-6.709,-6.5795,-6.3348,-6.3079,-6.3847,-6.5474,-6.5474,-6.5628,-6.5859,-6.5282,-6.5205,-6.5474,-6.5128,-6.5205,-6.5513,-6.5782,-6.5897,-6.582,-6.5243,-6.4859,-6.4512,-6.3897,-6.3166,-6.2512,-6.282,-6.2524,-6.187,-6.0666,-5.9935,-5.9242,-5.8088,-5.7588,-5.7203,-5.6319,-5.6088,-5.6049,-5.5742,-5.5769,-5.5929,-5.62,-5.6373,-5.6813,-5.7766,-5.8031,-5.8465,-5.9655,-5.9956,-6.0273,-6.1048,-6.1165,-6.1282,-6.1515,-6.2464,-6.2689,-6.1668,-6.3928,0.0,0.0,0.0,0.0,0.0,0.0,0.0,0.0,-6.7494,0.0,-7.1706,-7.2052,-7.363,-7.6438,-7.7823,-7.9246,-8.0708,-8.0977,-8.1093,-8.1093,-8.1093,-8.1093,-8.1131,-8.1708,-8.2401,-8.3247,-8.4132,-8.4978,-8.5747,-8.6017,-8.6094,-8.6209,-6.8251,-6.8697,-6.9185,-7.0238,-7.0666,-7.0898,-7.0898,-7.0898,-7.0898,-7.0898,-7.0898,-7.0898,-7.0898,-6.9898,-6.9013,-6.8462,-6.759,-6.6744,-6.5936,-6.5897,-6.5897,-6.5897,-6.5897,-6.5897,-6.5897,-6.6397,-6.6628,-6.6628,-6.6628,-6.6397,-6.5897,-6.5897,-6.5897,-6.5897,-6.6205,-6.6167,-6.5859,-6.5628,-6.5667,-6.5859,-6.532,-6.5397,-6.5859,-6.5551,-6.5397,-6.5282,-6.4436,-6.3935,-6.3589,-6.3012,-6.2281,-6.1601,-6.1601,-6.1601,-6.132,-5.9935,-5.9281,-5.8742,-5.7368,-5.6753,-5.6368,-5.5818,-5.5703,-5.5703,-5.5703,-5.5798,-5.5915,-5.5915,-5.609,-5.648,-5.7085,-5.7231,-5.7605,-5.8554,-5.9414,-6.0039,-6.0351,-6.1133,-6.1835,-6.2216,-6.2722,-6.2838,0.0,-6.3899,-6.4563,0.0,0.0,0.0,0.0,0.0,-6.7743,-6.773,-6.7321,-6.8321,-7.0898,-7.1745,-7.363,-7.6515,-7.8515,-8.0054,-8.1093,-8.1093,-8.1093,-8.1093,-8.1093,-8.1093,-8.117,-8.1977,-8.2824,-8.367,-8.4555,-8.5401,-8.6094,-8.6094,-8.6094,-8.6209,-6.9162,-6.9738,-7.0266,-7.0762,-7.0885,-7.0898,-7.0898,-7.0898,-7.0898,-7.0898,-7.0898,-7.0898,-7.0821,-6.936,-6.8398,-6.8321,-6.7513,-6.6705,-6.5936,-6.5897,-6.5897,-6.5897,-6.5897,-6.5897,-6.5897,-6.5897,-6.5897,-6.5897,-6.5897,-6.5897,-6.5897,-6.5897,-6.5897,-6.5936,-6.6667,-6.659,-6.5936,-6.6705,-6.659,-6.5897,-6.582,-6.582,-6.5705,-6.4859,-6.4512,-6.4397,-6.3551,-6.2743,-6.2101,-6.2024,-6.1485,-6.0781,-6.0781,-6.0781,-6.0627,-5.9742,-5.8934,-5.8127,-5.7253,-5.6368,-5.5703,-5.5703,-5.5703,-5.5714,-5.5696,-5.5816,-5.5909,-5.5924,-5.6184,-5.6397,-5.6397,-5.6514,-5.6875,-5.7695,-5.8594,-5.9453,-6.0195,-6.1133,-6.2573,-6.486,-6.5159,-6.5159,-6.5237,-6.5978,-6.5582,0.0,0.0,0.0,0.0,0.0,-6.7813,-6.6439,-6.6907,-6.8359,-7.0898,-7.1822,-7.3976,-7.74,-7.99,-8.1093,-8.1093,-8.1093,-8.1093,-8.1093,-8.1093,-8.1131,-8.1246,-8.2054,-8.2901,-8.3785,-8.4632,-8.544,-8.6094,-8.6094,-8.6132,-8.6324,-6.9275,-6.9738,-7.0129,-7.0282,-7.0637,-7.0898,-7.0898,-7.0898,-7.0898,-7.0898,-7.0898,-7.0667,-7.0052,-6.9052,-6.8129,-6.7475,-6.6667,-6.609,-6.5897,-6.5897,-6.5897,-6.5897,-6.5897,-6.5897,-6.5897,-6.5897,-6.5897,-6.5897,-6.5897,-6.5897,-6.5897,-6.5897,-6.5897,-6.5897,-6.609,-6.609,-6.5897,-6.609,-6.6051,-6.582,-6.5166,-6.4897,-6.482,-6.3935,-6.3628,-6.3512,-6.2666,-6.2255,-6.1985,-6.132,-6.0973,-6.0781,-6.0781,-6.0781,-6.0627,-5.9742,-5.8934,-5.8127,-5.7253,-5.6368,-5.5703,-5.5703,-5.5703,-5.5728,-5.5843,-5.6008,-5.6169,-5.6269,-5.6448,-5.6559,-5.6559,-5.6562,-5.668,-5.6875,-5.8203,-5.9258,-5.9453,-6.0742,-6.2148,-6.3395,-6.355,-6.3823,-6.4487,-6.4722,-6.5378,0.0,0.0,-6.6949,-6.8273,-6.849,-6.8161,-6.7301,-6.7796,-6.9013,-7.0898,-7.2437,-7.4899,-7.8246,-8.0169,-8.1093,-8.1093,-8.1093,-8.1093,-8.1093,-8.1093,-8.1439,-8.2093,-8.2939,-8.3824,-8.467,-8.5517,-8.594,-8.6094,-8.6094,-8.6517,-8.7209,-6.972,-7.0095,-7.0478,-7.0478,-7.0719,-7.0898,-7.0898,-7.0898,-7.0898,-7.0898,-7.0591,-7.0206,-6.9744,-6.859,-6.7628,-6.7128,-6.6359,-6.5897,-6.5897,-6.5897,-6.5897,-6.5897,-6.5897,-6.5897,-6.5897,-6.5897,-6.5897,-6.5897,-6.5897,-6.5897,-6.5897,-6.5897,-6.5897,-6.5897,-6.6282,-6.6013,-6.532,-6.5743,-6.5436,-6.4666,-6.4205,-6.4012,-6.3897,-6.3089,-6.2743,-6.2627,-6.182,-6.1524,-6.1435,-6.0973,-6.0781,-6.0781,-6.0781,-6.0781,-6.0627,-5.9742,-5.8934,-5.8127,-5.7253,-5.6368,-5.5696,-5.5779,-5.5769,-5.5834,-5.6015,-5.6186,-5.6293,-5.638,-5.6511,-5.6601,-5.6601,-5.6601,-5.6875,-5.7656,-5.8906,-6.0039,-6.082,-6.207,-6.3047,-6.3555,-6.3594,-6.3789,-6.4258,-6.4297,-6.4842,-6.6149,-6.654,0.0,-6.8101,-6.8593,-6.8468,-6.7626,-6.853,-6.9629,-7.0898,-7.3783,-7.6322,-7.853,-8.0285,-8.1093,-8.1093,-8.1093,-8.1093,-8.1093,-8.1093,-8.1554,-8.2362,-8.3247,-8.4093,-8.4978,-8.5786,-8.6094,-8.617,-8.6555,-8.6978,-8.7594,-7.0123,-7.0286,-7.0514,-7.0514,-7.0514,-7.0514,-7.0514,-7.0514,-7.0514,-7.0514,-6.9937,-6.9436,-6.9321,-6.7975,-6.7051,-6.6936,-6.6282,-6.5897,-6.5897,-6.5897,-6.5897,-6.5897,-6.5897,-6.5897,-6.5897,-6.5897,-6.5897,-6.5897,-6.5897,-6.5897,-6.5897,-6.5897,-6.5897,-6.5897,-6.6474,-6.5936,-6.4628,-6.5243,-6.4666,-6.3269,-6.3166,-6.3128,-6.3051,-6.2204,-6.1908,-6.1831,-6.105,-6.0781,-6.0781,-6.0781,-6.0781,-6.0781,-6.0781,-6.0781,-6.0627,-5.9742,-5.8934,-5.8127,-5.7253,-5.6368,-5.5738,-5.5866,-5.5915,-5.5947,-5.6186,-5.6336,-5.6394,-5.6443,-5.6515,-5.6601,-5.6601,-5.6719,-5.7422,-5.9412,-6.0234,-6.1289,-6.3279,-6.3984,-6.4336,-6.4492,-6.4492,-6.4531,-6.4687,-6.4805,-6.4883,-6.4883,-6.6367,-6.7344,-6.7461,-6.8685,-6.9068,-6.841,-6.9385,-7.0413,-7.1475,-7.5476,-7.7823,-7.853,-8.0285,-8.1093,-8.1093,-8.1093,-8.1093,-8.1093,-8.1246,-8.1747,-8.2554,-8.3439,-8.4286,-8.517,-8.5824,-8.6094,-8.6209,-8.7094,-8.7478,-8.7825,-6.9778,-6.9242,-6.8783,-6.8783,-6.8783,-6.8783,-6.8783,-6.8783,-6.8783,-6.8783,-6.8667,-6.8321,-6.759,-6.7244,-6.6821,-6.6128,-6.5974,-6.5897,-6.5897,-6.5897,-6.5897,-6.5897,-6.5897,-6.5897,-6.5897,-6.5897,-6.5897,-6.5897,-6.5897,-6.5897,-6.5897,-6.5897,-6.5897,-6.5859,-6.5243,-6.4859,-6.4551,-6.3974,-6.3551,-6.3231,-6.2551,-6.2281,-6.2178,-6.132,-6.1012,-6.0973,-6.0858,-6.0781,-6.0781,-6.0781,-6.0781,-6.0781,-6.0781,-6.0781,-6.0627,-5.9742,-5.8934,-5.8127,-5.7253,-5.6368,-5.5738,-5.5866,-5.5915,-5.5976,-5.6293,-5.638,-5.6445,-5.6558,-5.6601,-5.6601,-5.6601,-5.7187,-5.8668,-6.166,-6.1782,-6.2574,-6.5608,-6.5026,-6.457,-6.5312,-6.539,-6.5703,-6.6445,-6.7148,-6.7578,-6.7578,-6.8515,-6.9375,-7.0078,-7.0247,-7.078,-7.1867,-7.131,-7.1989,-7.4091,-7.6899,-7.8361,-7.853,-8.0285,-8.1093,-8.1093,-8.1093,-8.1093,-8.1131,-8.1823,-8.2593,-8.3478,-8.4324,-8.517,-8.594,-8.6055,-8.6094,-8.6209,-8.7094,-8.7863,-8.8632,-6.9013,-6.8667,-6.8385,-6.8385,-6.8385,-6.8385,-6.8385,-6.8385,-6.8385,-6.8385,-6.7975,-6.7552,-6.7128,-6.6705,-6.6282,-6.5936,-6.5897,-6.5897,-6.5897,-6.5897,-6.5897,-6.5897,-6.5897,-6.5897,-6.5897,-6.5897,-6.5897,-6.5897,-6.5897,-6.5897,-6.5897,-6.5897,-6.5897,-6.5859,-6.4974,-6.4359,-6.3858,-6.3012,-6.2397,-6.1935,-6.155,-6.1408,-6.1358,-6.0935,-6.0781,-6.0781,-6.0781,-6.0781,-6.0781,-6.0781,-6.0781,-6.0781,-6.0781,-6.0781,-6.055,-5.9242,-5.8242,-5.7396,-5.656,-5.6048,-5.5861,-5.6037,-5.6108,-5.6217,-5.6458,-5.6511,-5.6516,-5.6601,-5.6601,-5.6601,-5.6601,-5.7695,-5.9217,-6.1154,-6.2378,-6.3788,-6.5764,-6.5855,-6.5859,-6.625,-6.6289,-6.664,-6.7539,-6.7969,-6.8398,-6.8828,-6.9648,-7.0312,-7.0664,-7.1087,-7.1795,-7.2823,-7.2996,-7.36,-7.4707,-7.7246,-7.8477,-7.853,-8.0285,-8.1093,-8.1093,-8.1093,-8.1093,-8.1131,-8.1939,-8.2785,-8.367,-8.4555,-8.5363,-8.6094,-8.6094,-8.6401,-8.6901,-8.7786,-8.8632,-8.9479,-6.809,-6.7936,-6.7821,-6.7821,-6.7821,-6.7821,-6.7821,-6.7821,-6.7821,-6.7821,-6.7244,-6.6821,-6.6821,-6.6282,-6.5897,-6.5897,-6.5897,-6.5897,-6.5897,-6.5897,-6.5897,-6.5897,-6.5897,-6.5897,-6.5897,-6.5897,-6.5897,-6.5897,-6.5897,-6.5897,-6.5897,-6.5705,-6.559,-6.5551,-6.4474,-6.3666,-6.2974,-6.2127,-6.1408,-6.0781,-6.0781,-6.0781,-6.0781,-6.0781,-6.0781,-6.0781,-6.0781,-6.0781,-6.0781,-6.0781,-6.0781,-6.0781,-6.0781,-6.0666,-6.0204,-5.8742,-5.7555,-5.6616,-5.5912,-5.5825,-5.5939,-5.6197,-5.6301,-5.6448,-5.6561,-5.6601,-5.664,-5.6875,-5.707,-5.7265,-5.7461,-5.8906,-6.0546,-6.1909,-6.3515,-6.5117,-6.6519,-6.6835,-6.6914,-6.6914,-6.707,-6.7461,-6.8125,-6.8555,-6.9023,-6.9648,-7.0508,-7.1015,-7.1015,-7.1836,-7.2689,-7.3569,-7.4363,-7.4871,-7.5064,-7.7328,-7.8477,-7.853,-8.0285,-8.1093,-8.1093,-8.1093,-8.1208,-8.14,-8.2247,-8.3093,-8.3978,-8.4824,-8.5555,-8.6094,-8.6094,-8.6632,-8.7517,-8.8363,-8.921,-9.0017,-6.7205,-6.659,-6.609,-6.609,-6.609,-6.609,-6.609,-6.609,-6.609,-6.609,-6.6013,-6.5974,-6.5974,-6.5936,-6.5897,-6.5897,-6.5897,-6.5897,-6.5897,-6.5897,-6.5897,-6.5897,-6.5897,-6.5897,-6.5897,-6.5897,-6.5897,-6.5897,-6.5897,-6.5897,-6.5859,-6.5051,-6.4705,-6.4628,-6.3012,-6.2255,-6.2139,-6.1243,-6.0858,-6.0781,-6.0781,-6.0781,-6.0781,-6.0781,-6.0781,-6.0781,-6.0781,-6.0781,-6.0781,-6.0781,-6.0781,-6.0781,-6.0781,-6.0242,-5.9435,-5.855,-5.7188,-5.5968,-5.5891,-5.5907,-5.5976,-5.6301,-5.6386,-5.6448,-5.6561,-5.6601,-5.6836,-5.7656,-5.8437,-5.9258,-5.9961,-6.1523,-6.3745,-6.6847,-6.6312,-6.6558,-6.9621,-6.8227,-6.6914,-6.6914,-6.7617,-6.8125,-6.8203,-6.9609,-7.0547,-7.0586,-7.1406,-7.1914,-7.1914,-7.2734,-7.3899,-7.5361,-7.5119,-7.5371,-7.6173,-7.7726,-7.8477,-7.853,-8.0285,-8.1093,-8.1093,-8.1093,-8.1516,-8.2247,-8.3131,-8.4016,-8.4863,-8.567,-8.6055,-8.6094,-8.6094,-8.6632,-8.7517,-8.8363,-8.921,-9.0017,-6.6359,-6.609,-6.5897,-6.5897,-6.5897,-6.5897,-6.5897,-6.5897,-6.5897,-6.5897,-6.5897,-6.5897,-6.5897,-6.5897,-6.5897,-6.5897,-6.5897,-6.5897,-6.5897,-6.5897,-6.5897,-6.5897,-6.5897,-6.5897,-6.5897,-6.5897,-6.5897,-6.5897,-6.5897,-6.5628,-6.5089,-6.4743,-6.432,-6.3743,-6.2589,-6.2101,-6.2062,-6.1166,-6.0781,-6.0781,-6.0781,-6.0781,-6.0781,-6.0781,-6.0781,-6.0781,-6.0781,-6.0781,-6.0781,-6.0781,-6.0781,-6.0781,-6.0781,-6.0204,-5.9238,-5.7979,-5.6815,-5.5939,-5.6153,-5.6198,-5.6221,-5.6374,-5.6458,-5.6557,-5.6601,-5.7031,-5.75,-5.7812,-5.8984,-6.0039,-6.0351,-6.2265,-6.4218,-6.5457,-6.6091,-6.6835,-6.8074,-6.7458,-6.7109,-6.7656,-6.8008,-6.8594,-6.9648,-7.0312,-7.0937,-7.1484,-7.1797,-7.2226,-7.2773,-7.414,-7.5194,-7.5771,-7.6058,-7.6498,-7.7108,-7.8009,-7.8746,-7.9323,-8.0516,-8.1093,-8.1131,-8.1631,-8.2016,-8.2362,-8.3785,-8.4593,-8.4978,-8.5786,-8.6094,-8.617,-8.6709,-8.744,-8.8325,-8.9133,-8.9979,-9.0748,-6.5897,-6.5897,-6.5897,-6.5897,-6.5897,-6.5897,-6.5897,-6.5897,-6.5897,-6.5897,-6.5897,-6.5897,-6.5897,-6.5897,-6.5897,-6.5897,-6.5897,-6.5897,-6.5897,-6.5897,-6.5897,-6.5897,-6.5897,-6.5897,-6.5897,-6.5897,-6.5897,-6.5897,-6.5628,-6.5205,-6.4589,-6.4051,-6.3512,-6.2897,-6.205,-6.1678,-6.1639,-6.105,-6.0781,-6.0781,-6.0781,-6.0781,-6.0781,-6.0781,-6.0781,-6.0781,-6.0781,-6.0781,-6.0781,-6.0781,-6.0781,-6.0781,-6.0781,-6.0012,-5.8836,-5.7241,-5.6389,-5.6045,-5.6312,-5.6445,-5.6458,-5.6458,-5.6751,-5.707,-5.7344,-5.789,-5.8555,-5.9336,-6.043,-6.1367,-6.1914,-6.3711,-6.5117,-6.5117,-6.6133,-6.6914,-6.6914,-6.7148,-6.7539,-6.8125,-6.8672,-6.9453,-7.0586,-7.0937,-7.1367,-7.1953,-7.2265,-7.289,-7.4062,-7.5234,-7.6015,-7.6289,-7.6961,-7.7556,-7.8088,-7.84,-7.898,-7.9823,-8.0669,-8.1093,-8.1131,-8.1939,-8.2439,-8.2785,-8.4247,-8.5055,-8.5324,-8.5863,-8.6094,-8.6209,-8.7055,-8.794,-8.8786,-8.9594,-9.0441,-9.121,-6.5897,-6.5897,-6.5897,-6.5897,-6.5897,-6.5897,-6.5897,-6.5897,-6.5897,-6.5897,-6.5897,-6.5897,-6.5897,-6.5897,-6.5897,-6.5897,-6.5897,-6.5897,-6.5897,-6.5897,-6.5897,-6.5897,-6.5897,-6.5897,-6.5897,-6.5897,-6.5897,-6.5897,-6.5013,-6.4628,-6.4551,-6.2897,-6.2101,-6.2062,-6.1204,-6.0819,-6.0781,-6.0781,-6.0781,-6.0781,-6.0781,-6.0781,-6.0781,-6.0781,-6.0781,-6.0781,-6.0781,-6.0781,-6.0781,-6.0781,-6.0781,-6.0781,-6.0781,-5.9627,-5.7989,-5.636,-5.6025,-5.6222,-5.6371,-5.6508,-5.6601,-5.6601,-5.7265,-5.8125,-5.9023,-5.9219,-5.9961,-6.2461,-6.3008,-6.3555,-6.5273,-6.6328,-6.6914,-6.6914,-6.6914,-6.6914,-6.6914,-6.7656,-6.8203,-6.8203,-6.9687,-7.0703,-7.0703,-7.1484,-7.1992,-7.1992,-7.2812,-7.4062,-7.582,-7.5898,-7.6328,-7.7187,-7.7859,-7.8501,-7.9096,-7.8902,-7.9134,-7.9823,-8.0708,-8.1093,-8.1131,-8.1939,-8.2785,-8.367,-8.4516,-8.5363,-8.6094,-8.6094,-8.6094,-8.6209,-8.7055,-8.794,-8.8786,-8.9594,-9.0441,-9.121,-6.6013,-6.5897,-6.5897,-6.5897,-6.5897,-6.5897,-6.5897,-6.5897,-6.5897,-6.5897,-6.5897,-6.5897,-6.5897,-6.5897,-6.5897,-6.5897,-6.5897,-6.5897,-6.5897,-6.5897,-6.5897,-6.5897,-6.5897,-6.5897,-6.5897,-6.5897,-6.5897,-6.5897,-6.5628,-6.5205,-6.4589,-6.4089,-6.3243,-6.2101,-6.1831,-6.1358,-6.0781,-6.0781,-6.0781,-6.0781,-6.0781,-6.0781,-6.0781,-6.0781,-6.0781,-6.0781,-6.0781,-6.0781,-6.0781,-6.0781,-6.0781,-6.0589,-5.9435,-5.8757,-5.8139,-5.6576,-5.6227,-5.6374,-5.6511,-5.746,-5.8437,-5.8437,-5.8633,-5.918,-6.0625,-6.1445,-6.207,-6.2851,-6.3984,-6.4961,-6.5508,-6.6328,-6.6914,-6.6914,-6.6914,-6.7109,-6.7734,-6.8047,-6.8633,-6.9805,-7.039,-7.0937,-7.1562,-7.1836,-7.2265,-7.2851,-7.4297,-7.5351,-7.5859,-7.6484,-7.6914,-7.7187,-7.8005,-7.8614,-7.9096,-7.9533,-8.0036,-8.0708,-8.0977,-8.14,-8.1977,-8.2824,-8.367,-8.4555,-8.5401,-8.5901,-8.6094,-8.6094,-8.6094,-8.6247,-8.7709,-8.8479,-8.8786,-8.9594,-9.0441,-9.1133,-6.6474,-6.6128,-6.5897,-6.5897,-6.5897,-6.5897,-6.5897,-6.5897,-6.5897,-6.5897,-6.5897,-6.5897,-6.5897,-6.5897,-6.5897,-6.5897,-6.5897,-6.5897,-6.5897,-6.5897,-6.5897,-6.5897,-6.5897,-6.5897,-6.5897,-6.5897,-6.5897,-6.5897,-6.5551,-6.5128,-6.4589,-6.4243,-6.3551,-6.2551,-6.2551,-6.2281,-6.1781,-6.1435,-6.132,-6.1293,-6.0935,-6.0781,-6.0781,-6.0781,-6.0781,-6.0781,-6.0781,-6.0781,-6.0781,-6.0781,-6.0823,-6.0671,-5.9388,-5.9008,-5.8796,-5.7245,-5.7095,-5.7421,-5.7576,-5.8633,-5.9922,-6.0976,-6.0976,-6.1055,-6.2422,-6.3125,-6.3711,-6.4414,-6.5117,-6.5703,-6.6055,-6.6523,-6.6914,-6.6914,-6.7187,-6.7617,-6.8125,-6.8789,-6.957,-7.0586,-7.1015,-7.1406,-7.1953,-7.2305,-7.3008,-7.4258,-7.5312,-7.6055,-7.6406,-7.6914,-7.7187,-7.7187,-7.8359,-7.9042,-7.9208,-8.0228,-8.0868,-8.1093,-8.14,-8.1823,-8.2324,-8.3555,-8.4401,-8.4939,-8.5747,-8.6094,-8.6094,-8.6094,-8.6286,-8.6748,-8.8132,-8.8709,-8.8825,-8.9979,-9.0517,-9.0671,-6.7244,-6.6551,-6.6013,-6.6013,-6.5936,-6.5897,-6.5897,-6.5897,-6.5897,-6.5897,-6.5897,-6.5897,-6.5897,-6.5897,-6.5897,-6.5897,-6.5897,-6.5859,-6.5782,-6.5782,-6.5743,-6.5667,-6.5743,-6.5782,-6.5782,-6.5859,-6.5897,-6.5897,-6.5128,-6.4705,-6.4705,-6.3897,-6.3512,-6.3423,-6.3423,-6.3346,-6.3231,-6.2512,-6.2216,-6.2139,-6.1243,-6.0935,-6.0896,-6.0819,-6.0781,-6.0781,-6.0781,-6.0781,-6.0793,-6.0816,-6.0905,-6.091,-6.0203,-6.0027,-5.9747,-5.8322,-5.8465,-5.9109,-5.9335,-6.0078,-6.1328,-6.3711,-6.3828,-6.3555,-6.4336,-6.4531,-6.4961,-6.6562,-6.6289,-6.5976,-6.6758,-6.6914,-6.6914,-6.6992,-6.7695,-6.8242,-6.8398,-6.9726,-7.0742,-7.082,-7.1523,-7.2031,-7.2109,-7.2969,-7.418,-7.5781,-7.5976,-7.6367,-7.7148,-7.7265,-7.7305,-7.7305,-7.8945,-7.9718,-7.953,-8.0955,-8.1532,-8.1154,-8.1916,-8.2324,-8.2477,-8.4132,-8.4939,-8.5055,-8.5786,-8.6094,-8.6094,-8.6094,-8.6594,-8.7478,-8.8248,-8.8632,-8.8863,-9.0325,-9.0441,-9.0017,-6.8244,-6.7436,-6.6821,-6.6821,-6.632,-6.5897,-6.5897,-6.5897,-6.5897,-6.5897,-6.5897,-6.5897,-6.5897,-6.5897,-6.5897,-6.5897,-6.5897,-6.559,-6.4936,-6.4897,-6.4589,-6.3897,-6.4512,-6.4897,-6.4897,-6.5551,-6.5897,-6.5897,-6.5705,-6.5628,-6.559,-6.5436,-6.4974,-6.432,-6.432,-6.3935,-6.3269,-6.3128,-6.3051,-6.2974,-6.2127,-6.1831,-6.1755,-6.105,-6.0781,-6.0781,-6.0781,-6.0781,-6.0827,-6.0935,-6.1073,-6.1085,-6.0277,-6.0083,-6.0074,-5.9745,-5.9862,-6.0232,-6.0976,-6.2265,-6.3594,-6.414,-6.5195,-6.6094,-6.6289,-6.6328,-6.6445,-6.6836,-6.6758,-6.668,-6.6875,-6.6914,-6.7109,-6.7812,-6.8086,-6.8672,-6.9961,-7.0469,-7.0937,-7.164,-7.1875,-7.2265,-7.2969,-7.4414,-7.5508,-7.5859,-7.6523,-7.6992,-7.7187,-7.7851,-7.8203,-7.8203,-7.9844,-8.0617,-8.0427,-8.1267,-8.1582,-8.1336,-8.1976,-8.267,-8.3362,-8.4439,-8.5247,-8.5863,-8.6017,-8.6094,-8.6094,-8.6094,-8.6594,-8.7401,-8.7594,-8.8094,-8.8671,-8.8325,-8.894,-9.0017,-6.9129,-6.8321,-6.7705,-6.7705,-6.7013,-6.6474,-6.6474,-6.6128,-6.5897,-6.5897,-6.5897,-6.5897,-6.5897,-6.5897,-6.5897,-6.5897,-6.5897,-6.5705,-6.5243,-6.5205,-6.5013,-6.4551,-6.4974,-6.5205,-6.5205,-6.5667,-6.5897,-6.5897,-6.5897,-6.5897,-6.5897,-6.5897,-6.5667,-6.5205,-6.5205,-6.4974,-6.4512,-6.4089,-6.3935,-6.382,-6.2589,-6.2101,-6.1985,-6.1127,-6.0834,-6.0913,-6.0913,-6.0954,-6.1053,-6.1182,-6.1289,-6.1396,-6.1413,-6.1488,-6.1546,-6.1548,-6.1871,-6.2344,-6.2812,-6.3906,-6.5039,-6.543,-6.6211,-6.6914,-6.6914,-6.6914,-6.6914,-6.6914,-6.6914,-6.6914,-6.6914,-6.7226,-6.7656,-6.8125,-6.8867,-6.9687,-7.0586,-7.1055,-7.1484,-7.1953,-7.1992,-7.25,-7.3789,-7.5117,-7.6055,-7.6484,-7.6953,-7.7187,-7.7187,-7.8047,-7.8515,-7.8515,-8.0117,-8.0935,-8.0838,-8.1811,-8.2276,-8.2184,-8.2684,-8.3362,-8.4247,-8.5093,-8.5709,-8.6094,-8.6094,-8.6094,-8.6055,-8.5709,-8.6286,-8.7363,-8.694,-8.7325,-8.8055,-8.8017,-8.8825,-8.9979,-6.9898,-6.9206,-6.8629,-6.8629,-6.7898,-6.7321,-6.7321,-6.6744,-6.6282,-6.6128,-6.609,-6.6051,-6.5897,-6.5897,-6.5897,-6.5897,-6.5897,-6.582,-6.5705,-6.5667,-6.559,-6.5474,-6.559,-6.5667,-6.5667,-6.582,-6.5897,-6.5897,-6.5897,-6.5897,-6.5897,-6.5897,-6.5897,-6.5897,-6.5897,-6.5897,-6.5859,-6.5128,-6.4857,-6.4713,-6.3172,-6.2601,-6.2491,-6.1477,-6.1196,-6.125,-6.1095,-6.1186,-6.1383,-6.1634,-6.1746,-6.1922,-6.2928,-6.3203,-6.3242,-6.3398,-6.3945,-6.4531,-6.4687,-6.5273,-6.6015,-6.6719,-6.6914,-6.6914,-6.6914,-6.6914,-6.6914,-6.6914,-6.6914,-6.6953,-6.7109,-6.7695,-6.8281,-6.8594,-6.9805,-7.0742,-7.0898,-7.1523,-7.1992,-7.1992,-7.2265,-7.3086,-7.4687,-7.5625,-7.6406,-7.7148,-7.7344,-7.7422,-7.7422,-7.8398,-7.8945,-7.8945,-8.0429,-8.1211,-8.1211,-8.2455,-8.3104,-8.322,-8.3683,-8.425,-8.4939,-8.5747,-8.6094,-8.6094,-8.594,-8.5901,-8.5824,-8.5016,-8.567,-8.7094,-8.6247,-8.6517,-8.7517,-8.8363,-8.9017,-8.9556,-7.0744,-7.009,-6.9513,-6.9513,-6.8821,-6.8244,-6.8244,-6.8129,-6.7782,-6.7051,-6.6936,-6.6667,-6.5974,-6.5897,-6.5897,-6.5897,-6.5897,-6.559,-6.482,-6.4782,-6.4436,-6.3666,-6.4359,-6.4782,-6.4782,-6.5513,-6.5897,-6.5897,-6.5897,-6.5897,-6.5897,-6.5897,-6.5897,-6.5897,-6.5897,-6.5897,-6.5897,-6.5782,-6.5797,-6.5828,-6.4822,-6.4532,-6.4538,-6.2938,-6.2374,-6.2277,-6.1531,-6.1349,-6.1605,-6.2359,-6.2713,-6.2968,-6.3828,-6.4101,-6.4258,-6.5039,-6.5312,-6.5586,-6.6328,-6.664,-6.6758,-6.6875,-6.6914,-6.6914,-6.6914,-6.6914,-6.6914,-6.6914,-6.6914,-6.7148,-6.789,-6.8125,-6.8672,-7.0117,-7.0547,-7.0976,-7.1719,-7.1914,-7.1992,-7.1992,-7.332,-7.4648,-7.5625,-7.6523,-7.707,-7.7187,-7.789,-7.832,-7.832,-7.9805,-8.0664,-8.0664,-8.1601,-8.2109,-8.2109,-8.2885,-8.3504,-8.4029,-8.4676,-8.4927,-8.4939,-8.5747,-8.6094,-8.6055,-8.5363,-8.5055,-8.5016,-8.4132,-8.4747,-8.6209,-8.5401,-8.6017,-8.7517,-8.8363,-8.8286,-8.8055,-7.0898,-7.0591,-7.036,-7.036,-6.9667,-6.9129,-6.9129,-6.8706,-6.8282,-6.7898,-6.7398,-6.6974,-6.659,-6.6167,-6.5897,-6.5897,-6.5897,-6.5743,-6.5359,-6.532,-6.5166,-6.4782,-6.5128,-6.532,-6.532,-6.5705,-6.5897,-6.5897,-6.5897,-6.5897,-6.5897,-6.5897,-6.5897,-6.5897,-6.5897,-6.5919,-6.6003,-6.6003,-6.6129,-6.6182,-6.5336,-6.5005,-6.4914,-6.3241,-6.2629,-6.266,-6.2362,-6.2275,-6.2489,-6.3348,-6.3668,-6.3867,-6.4765,-6.5039,-6.5195,-6.6055,-6.6328,-6.6406,-6.6797,-6.6914,-6.6914,-6.6914,-6.6914,-6.6914,-6.6914,-6.7265,-6.7617,-6.7617,-6.7617,-6.789,-6.8711,-6.9258,-6.9844,-7.0586,-7.1094,-7.1562,-7.1953,-7.1992,-7.2187,-7.2656,-7.4258,-7.5664,-7.6523,-7.7422,-7.8125,-7.8555,-7.8945,-7.918,-7.918,-8.0312,-8.1015,-8.1015,-8.1836,-8.2539,-8.3008,-8.3674,-8.434,-8.4932,-8.5613,-8.5794,-8.5593,-8.594,-8.5863,-8.5401,-8.5055,-8.4632,-8.4132,-8.3747,-8.4324,-8.5401,-8.5055,-8.5632,-8.6709,-8.7094,-8.7632,-8.8286]},{"header":{"parameterUnit":"m.s-1","parameterCategory":1,"la1":30.6,"la2":28.766,"lo1":-90.7593,"lo2":-88.6598,"dx":0.0162,"dy":0.0183,"nx":116,"ny":114,"refTime":"2022-12-27T06:00:00:Z","depth":0,"parameterNumber":3,"parameterNumberName":"V-component_of_WINDS"},"data":[0.0,0.0,0.0,0.0,0.0,0.0,0.0,0.0,0.0,0.0,0.0,0.0,0.0,0.0,0.0,0.0,0.0,0.0,0.0,0.0,0.0,0.0,0.0,0.0,0.0,0.0,0.0,0.0,0.0,0.0,0.0,0.0,0.0,0.0,0.0,0.0,0.0,0.0,0.0,0.0,0.0,0.0,0.0,0.0,0.0,0.0,0.0,0.0,0.0,0.0,0.0,0.0,0.0,0.0,0.0,0.0,0.0,0.0,0.0,0.0,0.0,0.0,0.0,0.0,0.0,0.0,0.0,0.0,0.0,0.0,0.0,0.0,0.0,0.0,0.0,0.0,0.0,0.0,0.0,0.0,0.0,0.0,0.0,0.0,0.0,0.0,0.0,0.0,0.0,0.0,0.0,0.0,0.0,0.0,0.0,0.0,0.0,0.0,0.0,0.0,0.0,0.0,0.0,0.0,0.0,0.0,0.0,0.0,0.0,0.0,0.0,0.0,0.0,0.0,0.0,0.0,0.0,0.0,0.0,0.0,0.0,0.0,0.0,0.0,0.0,0.0,0.0,0.0,0.0,0.0,0.0,0.0,0.0,0.0,0.0,0.0,0.0,0.0,0.0,0.0,0.0,0.0,0.0,0.0,0.0,0.0,0.0,0.0,0.0,0.0,0.0,0.0,0.0,0.0,0.0,0.0,0.0,0.0,0.0,0.0,0.0,0.0,0.0,0.0,0.0,0.0,0.0,0.0,0.0,0.0,0.0,0.0,0.0,0.0,0.0,0.0,0.0,0.0,0.0,0.0,0.0,0.0,0.0,0.0,0.0,0.0,0.0,0.0,0.0,0.0,0.0,0.0,0.0,0.0,0.0,0.0,0.0,0.0,0.0,0.0,0.0,0.0,0.0,0.0,0.0,0.0,0.0,0.0,0.0,0.0,0.0,0.0,0.0,0.0,0.0,0.0,0.0,0.0,0.0,0.0,0.0,0.0,0.0,0.0,0.0,0.0,0.0,0.0,0.0,0.0,0.0,0.0,0.0,0.0,0.0,0.0,0.0,0.0,0.0,0.0,0.0,0.0,0.0,0.0,0.0,0.0,0.0,0.0,0.0,0.0,0.0,0.0,0.0,0.0,0.0,0.0,0.0,0.0,0.0,0.0,0.0,0.0,0.0,0.0,0.0,0.0,0.0,0.0,0.0,0.0,0.0,0.0,0.0,0.0,0.0,0.0,0.0,0.0,0.0,0.0,0.0,0.0,0.0,0.0,0.0,0.0,0.0,0.0,0.0,0.0,0.0,0.0,0.0,0.0,0.0,0.0,0.0,0.0,0.0,0.0,0.0,0.0,0.0,0.0,0.0,0.0,0.0,0.0,0.0,0.0,0.0,0.0,0.0,0.0,0.0,0.0,0.0,0.0,0.0,0.0,0.0,0.0,0.0,0.0,0.0,0.0,0.0,0.0,0.0,0.0,0.0,0.0,0.0,0.0,0.0,0.0,0.0,0.0,0.0,0.0,0.0,0.0,0.0,0.0,0.0,0.0,0.0,0.0,0.0,0.0,0.0,0.0,0.0,0.0,0.0,0.0,0.0,0.0,0.0,0.0,0.0,0.0,0.0,0.0,0.0,0.0,0.0,0.0,0.0,0.0,0.0,0.0,0.0,0.0,0.0,0.0,0.0,0.0,0.0,0.0,0.0,0.0,0.0,0.0,0.0,0.0,0.0,0.0,0.0,0.0,0.0,0.0,0.0,0.0,0.0,0.0,0.0,0.0,0.0,0.0,0.0,0.0,0.0,0.0,0.0,0.0,0.0,0.0,0.0,0.0,0.0,0.0,0.0,0.0,0.0,0.0,0.0,0.0,0.0,0.0,0.0,0.0,0.0,0.0,0.0,0.0,0.0,0.0,0.0,0.0,0.0,0.0,0.0,0.0,0.0,0.0,0.0,0.0,0.0,0.0,0.0,0.0,0.0,0.0,0.0,0.0,0.0,0.0,0.0,0.0,0.0,0.0,0.0,0.0,0.0,0.0,0.0,0.0,0.0,0.0,0.0,0.0,0.0,0.0,0.0,0.0,0.0,0.0,0.0,0.0,0.0,0.0,0.0,0.0,0.0,0.0,0.0,0.0,0.0,0.0,0.0,0.0,0.0,0.0,0.0,0.0,0.0,0.0,0.0,0.0,0.0,0.0,0.0,0.0,0.0,0.0,0.0,0.0,0.0,0.0,0.0,0.0,0.0,0.0,0.0,0.0,0.0,0.0,0.0,0.0,0.0,0.0,0.0,0.0,0.0,0.0,0.0,0.0,0.0,0.0,0.0,0.0,0.0,0.0,0.0,0.0,0.0,0.0,0.0,0.0,0.0,0.0,0.0,0.0,0.0,0.0,0.0,0.0,0.0,0.0,0.0,0.0,0.0,0.0,0.0,0.0,0.0,0.0,0.0,0.0,0.0,0.0,0.0,0.0,0.0,0.0,0.0,0.0,0.0,0.0,0.0,0.0,0.0,0.0,0.0,0.0,0.0,0.0,0.0,0.0,0.0,0.0,0.0,0.0,0.0,0.0,0.0,0.0,0.0,0.0,0.0,0.0,0.0,0.0,0.0,0.0,0.0,0.0,0.0,0.0,0.0,0.0,0.0,0.0,0.0,0.0,0.0,0.0,0.0,0.0,0.0,0.0,0.0,0.0,0.0,0.0,0.0,0.0,0.0,0.0,0.0,0.0,0.0,0.0,0.0,0.0,0.0,0.0,0.0,0.0,0.0,0.0,0.0,0.0,0.0,0.0,0.0,0.0,0.0,0.0,0.0,0.0,0.0,0.0,0.0,0.0,0.0,0.0,0.0,0.0,0.0,0.0,0.0,0.0,0.0,0.0,0.0,0.0,0.0,0.0,0.0,0.0,0.0,0.0,0.0,0.0,0.0,0.0,0.0,0.0,0.0,0.0,0.0,0.0,0.0,0.0,0.0,0.0,0.0,0.0,0.0,0.0,0.0,0.0,0.0,0.0,0.0,0.0,0.0,0.0,0.0,0.0,0.0,0.0,0.0,0.0,0.0,0.0,0.0,0.0,0.0,0.0,0.0,0.0,0.0,0.0,0.0,0.0,0.0,0.0,0.0,0.0,0.0,0.0,0.0,0.0,0.0,0.0,0.0,0.0,0.0,0.0,0.0,0.0,0.0,0.0,0.0,0.0,0.0,0.0,0.0,0.0,0.0,0.0,0.0,0.0,0.0,0.0,0.0,0.0,0.0,0.0,0.0,0.0,0.0,0.0,0.0,0.0,0.0,0.0,0.0,0.0,0.0,0.0,0.0,0.0,0.0,0.0,0.0,0.0,0.0,0.0,0.0,0.0,0.0,0.0,0.0,0.0,0.0,0.0,0.0,0.0,0.0,0.0,0.0,0.0,0.0,0.0,0.0,0.0,0.0,0.0,0.0,0.0,0.0,0.0,0.0,0.0,0.0,0.0,0.0,0.0,0.0,0.0,0.0,0.0,0.0,0.0,0.0,0.0,0.0,0.0,0.0,0.0,0.0,0.0,0.0,0.0,0.0,0.0,0.0,0.0,0.0,0.0,0.0,0.0,0.0,0.0,0.0,0.0,0.0,0.0,0.0,0.0,0.0,0.0,0.0,0.0,0.0,0.0,0.0,0.0,0.0,0.0,0.0,0.0,0.0,0.0,0.0,0.0,0.0,0.0,0.0,0.0,0.0,0.0,0.0,0.0,0.0,0.0,0.0,0.0,0.0,0.0,0.0,0.0,0.0,0.0,0.0,0.0,0.0,0.0,0.0,0.0,0.0,0.0,0.0,0.0,0.0,0.0,0.0,0.0,0.0,0.0,0.0,0.0,0.0,0.0,0.0,0.0,0.0,0.0,0.0,0.0,0.0,0.0,0.0,0.0,0.0,0.0,0.0,0.0,0.0,0.0,0.0,0.0,0.0,0.0,0.0,0.0,0.0,0.0,0.0,0.0,0.0,0.0,0.0,0.0,0.0,0.0,0.0,0.0,0.0,0.0,0.0,0.0,0.0,0.0,0.0,0.0,0.0,0.0,0.0,0.0,0.0,0.0,0.0,0.0,0.0,0.0,0.0,0.0,0.0,0.0,0.0,0.0,0.0,0.0,0.0,0.0,0.0,0.0,0.0,0.0,0.0,0.0,0.0,0.0,0.0,0.0,0.0,0.0,0.0,0.0,0.0,0.0,0.0,0.0,0.0,0.0,0.0,0.0,0.0,0.0,0.0,0.0,0.0,0.0,0.0,0.0,0.0,0.0,0.0,0.0,0.0,0.0,0.0,0.0,0.0,0.0,0.0,0.0,0.0,0.0,0.0,0.0,0.0,0.0,0.0,0.0,0.0,0.0,0.0,0.0,0.0,0.0,0.0,0.0,0.0,0.0,0.0,0.0,0.0,0.0,0.0,0.0,0.0,0.0,0.0,0.0,0.0,0.0,0.0,0.0,0.0,0.0,0.0,0.0,0.0,0.0,0.0,0.0,0.0,0.0,0.0,0.0,0.0,0.0,0.0,0.0,0.0,0.0,0.0,0.0,0.0,0.0,0.0,0.0,0.0,0.0,0.0,0.0,0.0,0.0,0.0,0.0,0.0,0.0,0.0,0.0,0.0,0.0,0.0,0.0,0.0,0.0,0.0,0.0,0.0,0.0,0.0,0.0,0.0,0.0,0.0,0.0,0.0,0.0,0.0,0.0,0.0,0.0,0.0,0.0,0.0,0.0,0.0,0.0,0.0,0.0,0.0,0.0,0.0,0.0,0.0,0.0,0.0,0.0,0.0,0.0,0.0,0.0,0.0,0.0,0.0,0.0,0.0,0.0,0.0,0.0,0.0,0.0,0.0,0.0,0.0,0.0,0.0,0.0,0.0,0.0,0.0,0.0,0.0,0.0,0.0,0.0,0.0,0.0,0.0,0.0,0.0,0.0,0.0,0.0,0.0,0.0,0.0,0.0,0.0,0.0,0.0,0.0,0.0,0.0,0.0,0.0,0.0,0.0,0.0,0.0,0.0,0.0,0.0,0.0,0.0,0.0,0.0,0.0,0.0,0.0,0.0,0.0,0.0,0.0,0.0,0.0,0.0,0.0,0.0,0.0,0.0,0.0,0.0,0.0,0.0,0.0,0.0,0.0,0.0,0.0,0.0,0.0,0.0,0.0,0.0,0.0,0.0,0.0,0.0,0.0,0.0,0.0,0.0,0.0,0.0,0.0,0.0,0.0,0.0,0.0,0.0,0.0,0.0,0.0,0.0,0.0,0.0,0.0,0.0,0.0,0.0,0.0,0.0,0.0,0.0,0.0,0.0,0.0,0.0,0.0,0.0,0.0,0.0,0.0,0.0,0.0,0.0,0.0,0.0,0.0,0.0,0.0,0.0,0.0,0.0,0.0,0.0,0.0,0.0,0.0,0.0,0.0,0.0,0.0,0.0,0.0,0.0,0.0,0.0,0.0,0.0,0.0,0.0,0.0,0.0,0.0,0.0,0.0,0.0,0.0,0.0,0.0,0.0,0.0,0.0,0.0,0.0,0.0,0.0,0.0,0.0,0.0,0.0,0.0,0.0,0.0,0.0,0.0,0.0,0.0,0.0,0.0,0.0,0.0,0.0,0.0,0.0,0.0,0.0,0.0,0.0,0.0,0.0,0.0,0.0,0.0,0.0,0.0,0.0,0.0,0.0,0.0,0.0,0.0,0.0,0.0,0.0,0.0,0.0,0.0,0.0,0.0,0.0,0.0,0.0,0.0,0.0,0.0,0.0,0.0,0.0,0.0,0.0,0.0,0.0,0.0,0.0,0.0,0.0,0.0,0.0,0.0,0.0,0.0,0.0,0.0,0.0,0.0,0.0,0.0,0.0,0.0,0.0,0.0,0.0,0.0,0.0,0.0,0.0,0.0,0.0,0.0,0.0,0.0,0.0,0.0,0.0,0.0,0.0,0.0,0.0,0.0,0.0,0.0,0.0,0.0,0.0,0.0,0.0,0.0,0.0,0.0,0.0,0.0,0.0,0.0,0.0,0.0,0.0,0.0,0.0,0.0,0.0,0.0,0.0,0.0,0.0,0.0,0.0,0.0,0.0,0.0,0.0,0.0,0.0,0.0,0.0,0.0,0.0,0.0,3.2949,2.9741,0.0,0.0,0.0,0.0,0.0,0.0,0.0,0.0,0.0,0.0,0.0,0.0,0.0,0.0,0.0,0.0,0.0,0.0,0.0,0.0,0.0,0.0,0.0,0.0,0.0,0.0,0.0,0.0,0.0,0.0,0.0,0.0,0.0,0.0,0.0,0.0,1.9387,1.9957,2.1772,2.3797,2.5984,2.4578,2.3437,2.2444,0.0,0.0,0.0,0.0,0.0,0.0,0.0,0.0,0.0,0.0,0.0,0.0,0.0,0.0,0.0,0.0,0.0,0.0,0.0,0.0,0.0,0.0,0.0,0.0,0.0,0.0,0.0,0.0,0.0,0.0,0.0,0.0,0.0,0.0,0.0,0.0,0.0,0.0,0.0,0.0,0.0,0.0,0.0,0.0,0.0,0.0,0.0,0.0,0.0,0.0,0.0,0.0,0.0,0.0,0.0,0.0,0.0,0.0,0.0,0.0,0.0,0.0,0.0,0.0,0.0,0.0,0.0,0.0,0.0,0.0,3.6031,3.3485,0.0,0.0,0.0,0.0,0.0,0.0,0.0,0.0,0.0,0.0,0.0,0.0,0.0,0.0,0.0,0.0,0.0,0.0,0.0,0.0,0.0,0.0,0.0,0.0,1.4934,1.6396,1.66,1.7099,0.0,0.0,0.0,0.0,0.0,0.0,0.0,2.0479,2.1619,2.1966,2.5272,2.7737,2.9374,2.9901,2.9053,2.7003,2.4599,0.0,0.0,0.0,0.0,0.0,0.0,0.0,0.0,0.0,0.0,0.0,0.0,0.0,0.0,0.0,0.0,0.0,0.0,0.0,0.0,0.0,0.0,0.0,0.0,0.0,0.0,0.0,0.0,0.0,0.0,0.0,0.0,0.0,0.0,0.0,0.0,0.0,0.0,0.0,0.0,0.0,0.0,0.0,0.0,0.0,0.0,0.0,0.0,0.0,0.0,0.0,0.0,0.0,0.0,0.0,0.0,0.0,0.0,0.0,0.0,0.0,0.0,0.0,3.9137,3.9752,3.9659,3.9659,4.0564,4.1987,3.9334,3.793,3.7392,3.4709,0.0,0.0,0.0,0.0,0.0,0.0,0.0,0.0,0.0,0.0,0.0,0.0,0.0,0.0,0.0,0.0,0.0,0.0,0.0,0.0,0.0,1.5171,1.5768,1.6425,1.6974,1.7526,0.0,0.0,0.0,0.0,0.0,0.0,2.0607,2.2503,2.4243,2.5772,2.9625,3.1951,3.2764,3.3301,3.3662,3.3733,3.0051,2.8118,2.7568,0.0,0.0,0.0,0.0,0.0,0.0,0.0,0.0,0.0,0.0,0.0,0.0,0.0,0.0,0.0,0.0,0.0,0.0,0.0,0.0,0.0,0.0,0.0,0.0,0.0,0.0,0.0,0.0,0.0,0.0,0.0,0.0,0.0,0.0,0.0,0.0,0.0,0.0,0.0,0.0,0.0,2.9464,3.0493,0.0,0.0,0.0,0.0,0.0,0.0,0.0,0.0,0.0,0.0,0.0,0.0,0.0,3.6466,3.685,4.0048,4.1437,4.1033,4.3433,4.4342,4.3788,4.3788,4.3954,4.4178,4.3754,0.0,3.9104,3.824,0.0,0.0,0.0,0.0,0.0,0.0,0.0,0.0,0.0,0.0,0.0,0.0,0.0,0.0,0.0,0.0,0.0,0.0,0.0,0.0,0.0,1.6773,1.7702,1.9183,1.9836,2.0263,2.0489,2.0514,0.0,0.0,0.0,2.1821,2.2431,2.4763,2.7619,3.1009,3.272,3.4295,3.5655,3.5917,3.6148,3.635,3.4639,3.2389,2.9875,2.8281,0.0,0.0,0.0,0.0,0.0,0.0,0.0,0.0,0.0,0.0,0.0,0.0,0.0,0.0,0.0,0.0,0.0,0.0,0.0,0.0,0.0,0.0,0.0,0.0,0.0,0.0,0.0,0.0,0.0,0.0,0.0,0.0,0.0,0.0,0.0,0.0,0.0,0.0,0.0,2.9738,3.1479,3.2551,3.2018,3.1544,0.0,0.0,0.0,0.0,0.0,0.0,0.0,0.0,0.0,3.8756,3.9122,3.9935,4.1302,4.3228,4.3831,4.3315,4.5101,4.5824,4.5573,4.5573,4.5573,4.5547,4.5246,4.4253,4.2741,4.1006,3.9118,3.7008,0.0,0.0,0.0,0.0,3.3498,3.4291,0.0,0.0,0.0,0.0,0.0,0.0,0.0,0.0,0.0,0.0,0.0,0.0,1.7601,1.8681,1.9987,2.1744,2.2422,2.2749,2.2749,2.293,0.0,0.0,2.339,2.4177,2.486,2.7653,3.0955,3.4773,3.5252,3.6327,3.7943,3.8093,3.8272,3.8422,3.8242,3.6134,3.2606,3.1023,2.991,2.912,0.0,0.0,0.0,0.0,0.0,0.0,0.0,0.0,0.0,0.0,0.0,0.0,0.0,0.0,0.0,0.0,0.0,0.0,0.0,0.0,0.0,0.0,0.0,0.0,0.0,0.0,0.0,0.0,0.0,0.0,0.0,0.0,0.0,0.0,0.0,0.0,0.0,3.2043,3.3647,3.509,3.5425,3.5446,0.0,0.0,0.0,0.0,0.0,0.0,3.7086,3.786,3.958,4.2448,4.2287,4.302,4.4844,4.5422,4.5472,4.507,4.5899,4.6301,4.6301,4.6301,4.6301,4.6276,4.5874,4.5698,4.5538,4.3311,4.1976,4.1115,3.9047,3.7839,3.7155,3.6681,3.6478,3.6881,0.0,0.0,0.0,0.0,0.0,0.0,0.0,0.0,0.0,0.0,0.0,1.8229,1.8857,2.0813,2.2318,2.297,2.3577,2.3904,2.3904,2.4624,2.5081,2.5202,2.6582,2.7644,2.8336,3.1545,3.3932,3.5459,3.7285,3.8571,3.9284,3.9948,4.0576,4.1145,4.0516,3.9074,3.6905,3.4288,3.3463,3.3503,2.9205,0.0,0.0,0.0,0.0,0.0,0.0,0.0,0.0,0.0,0.0,0.0,0.0,0.0,0.0,0.0,0.0,0.0,0.0,0.0,0.0,0.0,0.0,0.0,0.0,0.0,0.0,0.0,0.0,0.0,0.0,0.0,0.0,0.0,0.0,0.0,0.0,0.0,0.0,3.9116,3.8745,0.0,0.0,0.0,0.0,3.7746,3.8186,3.9127,4.0679,4.1147,4.2331,4.4369,4.4978,4.5313,4.5447,4.5999,4.625,4.6225,4.6276,4.6301,4.6301,4.6301,4.6301,4.6301,4.6276,4.6276,4.6175,4.4928,4.3821,4.2732,4.1745,4.0688,3.9794,4.0317,4.054,4.0784,0.0,0.0,0.0,1.0924,1.1282,1.1856,1.2868,1.3472,1.4466,1.6271,1.7501,1.8957,2.0888,2.2939,2.4468,2.5224,2.6889,2.7626,2.7065,2.7857,2.804,2.7305,2.8224,2.9696,3.1723,3.3749,3.5848,3.8033,3.8721,3.9619,4.0696,4.0935,4.1145,4.1422,4.1145,4.0636,3.9828,3.758,3.6255,3.5477,3.3483,3.1845,0.0,0.0,0.0,0.0,0.0,0.0,0.0,0.0,0.0,0.0,0.0,0.0,0.0,0.0,0.0,0.0,0.0,0.0,0.0,0.0,0.0,0.0,0.0,0.0,0.0,0.0,0.0,0.0,0.0,0.0,0.0,0.0,0.0,0.0,0.0,0.0,0.0,4.0492,4.0827,0.0,4.1836,4.1492,4.1331,4.1671,4.2147,4.29,4.382,4.4042,4.459,4.5639,4.625,4.6552,4.6552,4.7079,4.733,4.733,4.733,4.733,4.733,4.7004,4.6828,4.6828,4.6476,4.5671,4.4596,4.4208,4.4232,4.4565,4.423,4.3605,4.2853,4.1935,4.1614,4.1627,0.0,0.0,0.0,1.1151,1.156,1.2247,1.3626,1.4318,1.5361,1.74,1.8781,2.0444,2.2751,2.4988,2.6749,2.784,2.9531,3.0211,2.945,3.0029,3.007,2.9318,3.0447,3.2194,3.4472,3.5789,3.7434,3.9373,4.0098,4.0846,4.1752,4.1953,4.2043,4.2043,4.2043,4.1923,4.1662,4.0344,3.8871,3.7404,3.6507,3.5047,3.3302,0.0,0.0,0.0,0.0,0.0,0.0,0.0,0.0,0.0,0.0,0.0,0.0,0.0,0.0,0.0,0.0,0.0,0.0,0.0,0.0,0.0,0.0,0.0,0.0,0.0,0.0,0.0,0.0,0.0,0.0,0.0,0.0,0.0,0.0,0.0,3.9849,4.1643,4.2534,4.3062,4.3237,4.3614,4.3966,4.4342,4.5045,4.5648,4.6024,4.62,4.6476,4.6828,4.7205,4.738,4.738,4.7732,4.7908,4.7908,4.7908,4.7908,4.7908,4.7556,4.738,4.738,4.7004,4.6192,4.5092,4.4442,4.4712,4.5318,4.4378,4.3832,4.3313,4.2197,4.2136,4.2634,0.0,0.0,1.064,1.1638,1.1822,1.2533,1.4599,1.5387,1.6346,1.8078,2.0639,2.2872,2.431,2.6903,2.914,3.0675,3.1323,3.1433,3.0887,3.1083,3.1277,3.1341,3.341,3.5192,3.6507,3.7793,3.8781,3.9499,4.1482,4.241,4.244,4.303,4.329,4.329,4.329,4.3,4.244,4.244,4.1265,3.9409,3.8033,3.7494,3.7165,0.0,0.0,0.0,0.0,0.0,0.0,0.0,0.0,0.0,0.0,0.0,0.0,0.0,0.0,0.0,0.0,0.0,0.0,0.0,0.0,0.0,0.0,0.0,0.0,0.0,0.0,0.0,0.0,0.0,0.0,0.0,0.0,0.0,3.8659,3.9594,4.0991,4.2849,4.3966,4.4418,4.389,4.4844,4.5497,4.5522,4.6527,4.7093,4.7093,4.7631,4.7908,4.7908,4.7933,4.7933,4.7933,4.7958,4.7958,4.7958,4.7895,4.7895,4.7958,4.787,4.787,4.787,4.7845,4.7783,4.7533,4.5774,4.5001,4.4713,4.2188,4.1226,4.1226,4.1226,4.2247,4.3998,1.0293,1.0582,1.1019,1.1671,1.2413,1.3469,1.5212,1.5944,1.7325,2.0213,2.1594,2.3301,2.5911,2.7786,2.9405,3.0681,3.2123,3.2632,3.1785,3.3346,3.43,3.4332,3.5362,3.657,3.7853,3.8691,3.9918,4.1602,4.2141,4.265,4.306,4.32,4.329,4.329,4.329,4.32,4.306,4.306,4.2491,4.1482,4.0127,3.899,3.7963,0.0,0.0,0.0,0.0,0.0,0.0,0.0,0.0,0.0,0.0,0.0,0.0,0.0,0.0,0.0,0.0,0.0,0.0,0.0,0.0,0.0,0.0,0.0,0.0,0.0,0.0,0.0,0.0,0.0,0.0,0.0,3.8887,4.1246,4.1191,4.2804,4.4037,4.4134,4.4443,4.4568,4.4418,4.507,4.5648,4.605,4.7079,4.7682,4.7682,4.7832,4.7908,4.7908,4.8309,4.8535,4.8535,4.8937,4.9138,4.9138,4.7751,4.7816,4.9049,4.7295,4.652,4.6496,4.611,4.4622,4.2478,4.2002,4.1279,4.0534,4.1613,4.208,4.208,4.2168,4.2831,4.3943,1.0293,1.0525,1.0924,1.1671,1.2472,1.3606,1.5416,1.6371,1.7978,2.1091,2.2171,2.3734,2.6591,2.8171,2.9632,3.1251,3.2445,3.3091,3.3123,3.4367,3.534,3.5878,3.6776,3.7913,3.92,4.0157,4.1205,4.241,4.2641,4.297,4.329,4.329,4.329,4.329,4.329,4.329,4.329,4.329,4.2813,4.201,4.1234,4.041,3.9553,3.8311,3.7285,3.6318,3.5523,3.4922,3.4421,3.4047,0.0,0.0,0.0,0.0,0.0,0.0,0.0,0.0,0.0,0.0,0.0,0.0,0.0,0.0,0.0,0.0,0.0,0.0,0.0,0.0,0.0,0.0,0.0,0.0,4.109,4.3187,4.3187,4.4317,4.4995,4.4669,4.4618,4.4543,4.4292,4.5221,4.5974,4.6276,4.7531,4.8259,4.8259,4.8485,4.8611,4.8611,4.8937,4.9113,4.9113,4.9439,4.959,4.959,4.7707,4.7353,4.8322,4.6182,4.5291,4.5476,4.5108,4.4029,4.2484,4.1707,4.0966,4.0282,0.0,0.0,0.0,0.0,4.2395,4.3316,1.0293,1.0332,1.0659,1.1542,1.2287,1.3423,1.5315,1.6676,1.8479,2.1217,2.2518,2.4187,2.6801,2.8265,2.9891,3.1947,3.2335,3.3094,3.4502,3.4683,3.534,3.6746,3.7973,3.923,4.0606,4.1811,4.244,4.25,4.306,4.329,4.329,4.329,4.329,4.329,4.329,4.324,4.318,4.318,4.2573,4.1579,4.1579,4.1378,4.0982,3.9676,3.8547,3.7529,3.623,3.4873,3.3629,3.3574,0.0,0.0,0.0,0.0,0.0,0.0,0.0,0.0,0.0,0.0,0.0,0.0,0.0,0.0,0.0,0.0,0.0,0.0,0.0,0.0,0.0,0.0,0.0,0.0,4.2799,4.4644,4.4719,4.4669,4.4618,4.4618,4.4618,4.4468,4.4041,4.5397,4.6326,4.6401,4.7883,4.8761,4.8761,4.9289,0.0,0.0,0.0,4.959,4.959,4.959,4.959,4.959,4.7509,4.6599,4.6732,4.471,4.3994,4.4324,4.4324,4.4494,4.4645,4.3003,4.2334,4.2207,3.9685,3.8857,3.9275,4.0863,4.1901,4.2978,1.0293,1.0602,1.0924,1.1113,1.2635,1.4098,1.5014,1.6801,1.9032,2.1794,2.3125,2.4957,2.7866,2.8868,2.9962,3.1563,3.1989,3.3059,3.5188,3.5789,3.6926,3.8781,3.9589,4.0636,4.1991,4.2261,4.2611,4.315,4.323,4.329,4.329,4.329,4.329,4.329,4.329,4.3005,4.2576,4.2576,4.2152,4.1518,4.1518,4.0693,3.9257,3.8124,3.7741,3.7717,3.6587,3.6508,3.6893,3.6318,3.5812,3.5362,3.5283,3.4391,0.0,0.0,0.0,0.0,0.0,0.0,0.0,0.0,0.0,0.0,0.0,0.0,0.0,0.0,0.0,0.0,0.0,0.0,0.0,4.2233,4.3644,4.4794,4.5246,4.492,4.4618,4.4618,4.4618,4.4769,4.5121,4.5849,4.6502,4.6892,4.8083,4.8761,4.8761,4.9289,4.959,4.959,4.959,4.959,4.959,4.959,4.959,4.9525,4.6221,0.0,4.6665,4.3382,4.1862,4.1947,4.1947,4.1596,4.0967,4.0614,4.0881,4.1339,4.0112,4.0538,4.1917,4.2732,4.4074,4.5778,1.0293,1.0486,1.0715,1.0962,1.2252,1.3575,1.4428,1.6365,1.8635,2.1164,2.2472,2.4033,2.6418,2.7549,2.8598,2.9632,3.1542,3.3456,3.5365,3.6417,3.7823,3.9828,4.0546,4.1354,4.2381,4.2671,4.3,4.329,4.329,4.329,4.329,4.329,4.2981,4.2467,4.2708,4.2376,4.1562,4.1827,4.1422,4.0622,4.0622,3.96,3.8134,3.906,3.9159,3.8783,3.8225,3.7859,3.7472,3.6849,3.6227,3.5669,3.5669,3.496,3.399,0.0,0.0,0.0,0.0,0.0,0.0,0.0,0.0,0.0,0.0,0.0,0.0,0.0,0.0,4.004,4.0365,0.0,4.27,4.3626,4.4267,4.4719,4.502,4.4794,4.4719,4.502,4.5045,4.5171,4.5472,4.6225,4.6828,4.7043,4.7883,4.8335,4.8335,4.8611,4.8887,4.9163,4.9188,4.9314,4.959,4.8673,4.8673,4.9525,4.5885,4.4573,4.5321,4.257,4.0903,4.0286,4.0286,4.0244,4.0234,4.0449,4.0781,4.1133,4.0703,4.1099,4.1913,4.2231,4.2899,4.4156,1.0312,1.0371,1.0528,1.0896,1.1817,1.2868,1.3927,1.5812,1.7945,2.021,2.1468,2.2799,2.4449,2.5962,2.7157,2.7941,3.096,3.3427,3.4843,3.6232,3.7883,3.9829,4.0486,4.1135,4.1902,4.2393,4.2659,4.2659,4.2659,4.2659,4.2659,4.2659,4.2152,4.1281,4.1725,4.1374,4.0558,4.1005,4.0616,3.9812,3.9812,3.8894,3.7806,4.0239,4.0328,3.9133,3.9133,3.8229,3.696,3.6681,3.6232,3.5859,3.6085,3.5759,3.5228,3.4575,3.4625,0.0,0.0,0.0,0.0,0.0,0.0,0.0,0.0,3.8642,3.9823,4.0375,4.1731,4.2992,4.3388,4.3815,4.4267,4.4719,4.4694,4.4669,4.4769,4.4794,4.4995,4.5573,4.5547,4.5522,4.5648,4.6451,4.6918,4.6918,4.7456,4.7807,4.7908,4.8008,4.8335,4.8912,4.8837,4.8885,4.9023,4.7479,4.7281,4.8502,4.5118,4.3565,4.3473,4.1608,4.0144,3.9082,3.916,3.9609,4.0312,4.084,4.1055,4.1055,4.1133,4.1172,4.1172,4.1172,4.1172,4.1695,1.0371,1.0586,1.084,1.0901,1.1798,1.285,1.3932,1.5471,1.7315,1.9608,2.0891,2.2221,2.3904,2.5534,2.7054,2.8321,3.0308,3.1929,3.2841,3.4622,3.6437,3.8183,3.8406,3.902,4.0163,4.0247,4.0275,4.0275,4.0275,4.0275,4.0275,4.0275,4.0189,4.0059,4.0142,4.0068,3.9912,3.9991,3.9878,3.9701,3.9701,3.9322,3.8793,3.9576,3.8588,3.677,3.677,3.665,3.6556,3.6983,3.7061,3.7186,3.8191,3.809,3.7437,3.643,3.578,3.5157,3.4022,3.4926,3.6455,3.7387,3.8442,3.9622,0.0,4.2032,4.266,4.3237,4.4292,4.5146,4.5196,4.5271,4.5321,4.5372,4.497,4.4794,4.5321,4.5397,4.5598,4.615,4.5773,4.5673,4.6175,4.6326,4.6401,4.6401,4.6903,4.7431,4.7883,4.8385,4.8937,4.949,4.9038,4.8283,4.7154,4.6436,4.5642,4.4732,4.2591,4.1608,4.1538,3.9746,3.8812,3.8672,3.9043,3.9258,3.9414,4.0254,4.0586,4.0644,4.1016,4.1172,4.1172,4.1172,4.1172,4.154,1.1076,1.1193,1.1367,1.1619,1.2017,1.2599,1.3388,1.4556,1.6184,1.8504,1.9513,2.0631,2.2368,2.4029,2.56,2.6991,2.9045,3.0663,3.1612,3.3329,3.5155,3.6982,3.7093,3.7841,3.9348,3.9403,3.9526,3.9913,3.9913,3.9913,3.9913,3.9913,3.9536,3.8899,3.9177,3.8945,3.8287,3.862,3.8761,3.8718,3.8718,3.8391,3.7939,3.8492,3.7939,3.6933,3.7211,3.7312,0.0,3.7211,3.7186,3.7337,3.8115,3.799,3.7166,3.5351,3.5259,3.5818,3.6304,3.6962,3.7873,3.954,4.0777,4.1781,4.2539,4.3313,4.4091,4.4669,4.5422,4.6075,4.6376,4.6175,4.5974,4.5974,4.5497,4.5221,4.5447,4.5497,4.5698,4.625,4.61,4.605,4.6276,4.6301,4.6451,4.6753,4.6943,4.7355,4.7883,4.8134,4.8535,4.9113,4.8887,4.813,4.6798,4.5752,4.4869,4.4116,4.245,4.1527,4.1255,4.0514,3.9622,3.8594,3.9023,3.9199,3.9258,3.9902,4.0156,4.0176,4.0351,4.043,4.0488,4.0996,4.1328,4.1837,1.1626,1.1682,1.1878,1.2145,1.2301,1.2613,1.3196,1.3902,1.5088,1.7133,1.7731,1.8728,2.0788,2.2385,2.3811,2.506,2.7148,2.882,2.9789,3.1236,3.3019,3.5156,3.5075,3.5832,3.7574,3.7558,3.7963,3.8701,3.8701,3.8755,3.8917,3.8917,3.8496,3.7658,3.8028,3.7844,3.7211,3.7613,3.7864,3.8015,3.8015,3.7688,3.7236,3.7789,3.7267,3.64,3.7415,3.7518,3.7196,3.6751,3.6308,3.5966,3.6553,3.6455,3.5746,3.3907,3.4243,3.5549,3.737,3.8292,3.9194,4.125,4.2735,4.3664,4.3664,4.402,4.4462,4.4918,4.495,4.5012,4.5402,4.5158,4.5061,4.5662,4.5303,4.5186,4.5864,4.5799,4.5874,4.625,4.6451,4.6552,4.6552,4.6552,4.6702,4.7043,4.7255,4.7581,4.8109,4.8159,4.841,4.8987,4.8862,4.813,4.6798,4.5256,4.4172,4.3485,4.1943,4.108,4.075,4.0627,3.9818,3.8594,3.8887,3.9023,3.9062,3.9512,3.9707,3.9726,3.9844,3.9961,4.0137,4.0762,4.1191,4.1758,1.1685,1.1914,1.2184,1.2203,1.2578,1.3094,1.3697,1.3792,1.4243,1.5415,1.5601,1.6671,1.9446,2.0832,2.1906,2.2735,2.4616,2.6064,2.6892,2.7792,2.9454,3.2198,3.1836,3.234,3.4029,3.4079,3.4564,3.5646,3.5646,3.5923,3.6499,3.6499,3.6499,3.6452,3.6477,3.6732,3.7186,3.7211,3.7513,3.8015,3.8015,3.7688,3.7236,3.7789,3.6332,3.4293,3.6449,3.6383,3.5296,3.527,3.4093,3.2768,3.3271,3.3407,3.3294,3.2723,3.3054,3.411,3.6208,3.8214,4.0242,4.2426,4.4192,4.5422,4.5422,4.4572,4.3745,4.3769,4.2431,4.1373,4.1396,4.1245,4.1893,4.4207,4.3977,4.4395,4.6734,4.6627,4.6301,4.6301,4.6778,4.7043,4.7043,4.7043,4.7043,4.7068,4.7606,4.8134,4.8711,4.8736,4.9012,4.9565,4.9063,4.813,4.6798,4.4914,4.332,4.2018,4.0191,3.9273,3.9234,3.8823,3.8647,3.8574,3.8594,3.8594,3.8633,3.9043,3.9219,3.9258,3.9726,4.0156,4.0508,4.0527,4.0547,4.0912,1.2484,1.2582,1.2656,1.2656,1.2817,1.2968,1.3166,1.319,1.3597,1.4741,1.5606,0.0,0.0,0.0,0.0,0.0,2.246,2.3534,2.3722,2.4985,2.6273,2.764,2.7749,2.8575,3.0154,3.0178,3.0696,3.1734,3.1971,3.2626,3.3628,3.3946,3.4686,3.5805,3.5805,3.6132,3.6681,3.6681,3.6254,3.5575,3.526,3.451,3.3611,3.4126,3.3627,3.2709,0.0,3.3182,3.2081,3.2331,3.2218,3.2094,3.3005,3.3202,3.3005,3.2405,3.2023,3.2421,3.5302,3.71,3.8625,4.0707,4.1947,4.2568,4.228,4.2085,4.1868,4.1306,4.0944,4.0751,4.0855,4.1062,4.1437,4.2257,4.244,4.32,4.517,4.4247,4.431,4.7059,4.6423,4.627,4.7507,4.7657,4.7807,4.8184,4.8385,4.8736,4.9289,4.9314,4.9414,4.959,4.9414,4.85,4.6798,4.5234,4.3451,4.1506,3.9978,3.9199,3.9199,3.9062,3.8828,3.8574,3.8574,3.8574,3.8594,3.873,3.8789,3.8828,3.9258,3.9531,3.9857,4.182,4.2474,4.2652,1.2915,1.2915,1.2915,1.2915,1.2915,0.0,0.0,0.0,0.0,0.0,0.0,0.0,0.0,0.0,0.0,0.0,0.0,2.1497,2.1518,2.2709,2.3827,2.4801,2.5065,2.582,2.7217,2.7239,2.783,2.9011,2.9262,3.0078,3.1384,3.1667,3.2533,3.3881,3.3734,3.3974,3.4484,3.4484,3.4174,3.3581,3.2839,3.2172,3.1712,3.1716,3.1072,0.0,3.0811,2.9925,2.8704,2.9864,3.0171,3.0142,3.0823,3.115,3.1413,3.1784,3.1618,3.2117,3.5458,3.6918,3.7997,4.011,4.08,4.0886,4.0572,4.0243,3.984,3.933,3.8891,3.8659,3.8787,3.9024,3.9477,4.0277,4.0649,4.1503,4.3576,4.2662,4.3055,4.6528,4.5878,4.6038,4.7996,4.8209,4.836,4.8736,4.8962,4.9213,4.9565,4.959,4.959,4.959,4.959,4.9023,4.7773,4.576,4.3274,4.0545,3.981,3.9355,3.9199,3.9199,3.9062,3.8789,3.8633,3.8574,3.8594,3.873,3.8789,3.8848,3.9277,3.9551,3.9951,4.2547,4.4029,4.4909,1.2915,1.2915,1.2915,0.0,0.0,0.0,0.0,0.0,0.0,0.0,0.0,0.0,0.0,0.0,0.0,0.0,0.0,0.0,2.0139,2.083,2.1946,2.3564,2.3545,2.3981,2.5079,2.5102,2.5803,2.7228,2.725,2.7996,2.9444,2.9466,2.9964,3.0726,3.0416,3.0437,3.0839,3.0861,3.1326,3.1917,3.0726,3.0678,3.1225,3.0406,2.8751,2.7024,2.7899,2.688,2.5453,2.7958,2.7995,2.707,2.7168,2.7812,2.8906,3.0996,3.1934,3.3067,3.633,3.7526,3.8291,4.0427,4.0568,4.0275,4.0208,3.898,3.7775,3.7691,3.6466,3.5351,3.5332,3.5332,3.603,3.8253,3.8468,3.9335,4.206,4.1948,4.2515,4.4978,4.5178,4.6102,4.8634,4.8786,4.8786,4.8812,0.0,4.959,4.959,4.959,4.959,4.959,4.959,4.9525,4.9461,4.6147,4.2693,3.9199,3.9648,3.9648,3.9238,3.9238,3.9219,3.918,3.8809,3.8633,3.8633,3.9062,3.9238,3.9277,3.9746,4.0176,4.0737,4.287,4.511,4.7321,0.0,0.0,0.0,0.0,0.0,0.0,0.0,0.0,0.0,0.0,0.0,0.0,0.0,0.0,0.0,0.0,0.0,0.0,1.8081,1.861,1.9178,1.992,2.0251,2.0679,2.1267,2.1288,2.1653,2.2388,2.2695,2.3511,2.4784,2.509,2.6088,2.7569,2.7797,2.8143,2.8644,2.8965,2.8856,2.8369,2.775,2.6982,2.6262,2.6017,2.5224,2.4351,2.5525,2.5369,2.4734,2.5761,2.6705,2.7773,2.9394,3.0488,3.1406,3.2598,3.3457,3.4348,3.5574,3.6176,3.6582,3.7153,3.7226,3.6963,3.6339,3.6329,3.6117,3.4803,3.4739,3.4785,3.4473,3.4414,3.4727,3.558,3.6024,3.7145,3.9869,3.9191,4.0409,4.5771,4.5221,4.5692,4.9107,4.9012,4.8937,4.9364,4.9515,4.959,4.959,4.959,4.959,4.959,4.959,4.8893,4.7509,4.393,4.1182,3.9199,3.9316,3.9492,3.9726,3.9726,3.9531,3.9219,3.9453,3.9355,3.9082,3.9531,3.9726,3.9766,4.0195,4.043,4.1006,4.4752,4.6499,4.7467,0.0,0.0,0.0,0.0,0.0,0.0,0.0,0.0,0.0,0.0,0.0,0.0,0.0,0.0,0.0,0.0,0.0,0.0,0.0,1.6698,1.6853,1.6738,1.7591,1.8057,1.7935,1.8639,1.8939,1.8762,2.0215,2.1174,2.167,2.2513,2.3637,2.495,2.5015,2.5293,2.5744,2.6023,2.6051,0.0,0.0,2.4504,2.4102,2.373,2.3281,2.3047,2.4316,2.5,2.541,2.6211,2.7434,2.8809,3.0605,3.1621,3.2402,3.3633,3.4316,3.4844,3.5488,3.5703,3.5742,3.5742,3.5449,3.5039,3.4531,3.4805,3.4844,3.3672,3.3809,3.4062,3.3828,3.3789,3.3926,3.4355,3.4961,3.6087,3.7922,3.7689,3.9368,4.4913,4.4528,4.5293,4.9217,4.9088,4.9012,4.9565,4.9364,4.9339,4.959,4.959,4.9242,4.8412,4.8412,4.7088,4.4414,4.3127,4.1331,3.8926,3.9121,3.9336,3.9609,3.9805,3.9746,3.9512,3.9785,3.9746,3.9551,3.998,4.0176,4.0215,4.0644,4.1319,4.25,4.5762,4.754,4.8794,0.0,0.0,0.0,0.0,0.0,0.0,0.0,0.0,0.0,1.286,1.2326,1.2157,0.0,0.0,0.0,0.0,0.0,0.0,0.0,0.0,1.4977,1.4345,1.558,1.5965,1.5335,1.6738,1.707,1.623,1.8672,1.9712,1.9469,2.0685,2.1668,2.2341,2.2094,2.2152,2.2457,2.2515,2.313,2.3906,2.2793,2.2793,2.3379,0.0,2.2305,2.2422,2.3769,2.5234,2.6738,2.791,2.8867,2.9805,3.1172,3.1934,3.2637,3.416,3.4707,3.4941,3.5644,3.5625,3.5371,3.5312,3.4766,3.4219,3.4101,3.4121,3.4004,3.3457,3.334,3.334,3.334,3.3301,3.3418,3.3906,3.4687,3.5508,3.6387,3.6953,3.8878,4.3159,4.3486,4.4928,4.8843,4.896,4.9012,4.9565,4.9088,4.9012,4.9565,4.959,4.8763,4.6865,4.6599,4.4891,4.1679,4.2801,4.1912,3.8918,3.9092,3.9141,3.9219,3.9609,3.9805,3.9805,3.9863,3.9902,3.9922,4.0351,4.0566,4.0644,4.1325,4.2637,4.4377,4.6588,4.8506,5.0269,0.0,0.0,0.0,0.0,0.0,0.0,0.0,0.0,0.0,0.0,1.2995,1.2894,0.0,0.0,0.0,0.0,0.0,0.0,0.0,0.0,0.0,1.4295,1.4579,1.4748,1.4812,1.5118,1.5302,1.5425,0.0,1.6647,1.766,1.7898,1.8247,1.8647,1.8903,1.9049,1.918,1.9549,2.048,2.1736,2.1502,2.1502,2.1619,2.1463,0.0,0.0,2.2773,2.5117,2.7591,2.8105,2.8867,2.992,3.1523,3.2578,3.334,3.3984,3.4687,3.5234,3.5,3.5156,3.5293,3.4922,3.5,3.498,3.4238,3.4336,3.4258,3.3144,3.291,3.291,3.291,3.2617,3.2637,3.3418,3.3965,3.4609,3.5488,3.6582,3.8287,4.0996,4.2889,4.4823,4.7088,4.8204,4.9012,4.9565,4.9088,4.9012,4.9565,4.959,4.8763,4.6865,4.5321,4.4231,4.3634,4.0921,3.9962,4.0779,3.9413,3.8867,3.9199,3.9277,3.9316,3.9336,3.9726,3.9902,3.9922,4.0351,4.0742,4.121,4.2978,4.3794,4.4527,4.8144,4.9677,5.0316,0.0,0.0,0.0,0.0,0.0,0.0,0.0,1.2547,1.2649,1.3103,1.3292,1.327,1.2979,1.3003,1.3236,0.0,0.0,0.0,0.0,0.0,0.0,0.0,0.0,0.0,0.0,0.0,0.0,0.0,0.0,0.0,0.0,0.0,0.0,0.0,0.0,1.7571,1.7588,1.7945,1.8544,1.9165,1.9165,1.9165,0.0,0.0,0.0,0.0,0.0,2.3675,2.6533,2.5953,2.7621,3.0195,3.1953,3.293,3.3555,3.4199,3.4707,3.498,3.4766,3.4707,3.4648,3.4434,3.4551,3.4473,3.3613,3.373,3.3613,3.2109,3.1797,3.1797,3.1797,3.1641,3.1777,3.2637,3.332,3.4043,3.4902,3.5957,3.7629,4.0341,4.2485,4.455,4.6575,4.8256,4.9314,4.9565,4.9339,4.9314,4.959,4.7797,4.6355,4.5389,4.4573,4.3218,4.1276,4.1418,4.0921,3.989,3.8991,3.8691,3.8887,3.9101,3.9199,3.9219,3.9687,3.9902,3.9902,4.0117,4.0881,4.2023,4.3281,4.4962,4.6961,4.9202,5.0791,5.2094,0.0,0.0,0.0,0.0,0.0,0.0,0.0,1.2265,1.2732,1.34,1.36,1.36,1.3228,1.2912,1.2837,0.0,0.0,0.0,0.0,0.0,0.0,0.0,0.0,0.0,0.0,0.0,0.0,0.0,0.0,0.0,0.0,0.0,0.0,0.0,0.0,0.0,0.0,1.6879,1.709,0.0,0.0,0.0,0.0,0.0,0.0,0.0,0.0,2.2076,2.4792,2.3749,2.5889,2.9259,3.085,3.2219,3.332,3.418,3.4551,3.4668,3.4473,3.4316,3.416,3.3984,3.4004,3.3784,3.2532,3.245,3.22,3.0699,3.018,3.0103,3.0411,3.0547,3.0859,3.1621,3.2539,3.3476,3.4434,3.5332,3.6876,3.9618,4.2018,4.4164,4.6016,4.7929,4.9177,4.959,4.9242,4.8958,4.8958,4.6221,4.4505,4.4116,4.4116,4.2774,3.9959,4.2392,4.2456,4.0121,3.9287,3.9068,3.9486,3.9421,3.9355,3.9375,3.9746,4.0167,4.0603,4.0171,4.1427,4.3614,4.407,4.6301,4.939,5.0313,5.1926,5.3708,0.0,0.0,0.0,0.0,0.0,0.0,0.0,1.2759,1.3427,1.4282,1.4188,1.3936,1.3601,1.3089,1.268,0.0,0.0,0.0,0.0,0.0,0.0,0.0,0.0,0.0,0.0,0.0,0.0,0.0,0.0,0.0,0.0,0.0,0.0,0.0,0.0,0.0,0.0,0.0,0.0,0.0,0.0,0.0,0.0,0.0,0.0,0.0,0.0,2.1213,2.3008,2.3286,2.41,2.5239,2.6431,2.9355,3.2441,3.3301,3.4082,3.4531,3.375,3.4082,3.4453,3.3672,3.3769,3.3508,3.1154,3.038,2.9904,2.8846,2.7809,2.7512,2.8826,2.9434,2.9844,3.0293,0.0,3.2715,3.3965,3.4902,3.5986,3.7398,4.107,4.3624,4.4254,4.5996,4.7773,4.9461,4.7994,4.7088,4.7088,4.6732,4.5794,4.4185,4.4116,4.411,4.4114,4.2885,4.31,4.4892,4.1399,4.0698,4.2387,4.0589,3.9824,3.9824,3.9883,4.1113,4.299,4.1191,4.2864,4.6602,4.6668,4.8003,5.0126,5.1956,5.3117,5.3783,0.0,0.0,0.0,0.0,0.0,0.0,1.2489,1.2811,1.3307,1.4376,1.4416,1.4309,1.4146,1.3801,1.3155,1.211,0.0,0.0,0.0,0.0,0.0,0.0,0.0,0.0,0.0,0.0,0.0,0.0,0.0,0.0,0.0,0.0,0.0,0.0,0.0,0.0,0.0,0.0,0.0,0.0,0.0,0.0,0.0,0.0,0.0,0.0,0.0,0.0,2.1161,2.0649,2.2134,2.4201,2.4193,2.6198,2.9008,3.1273,3.2225,3.2663,3.3572,3.4238,3.4551,3.3965,3.375,3.3058,3.0659,2.9471,2.8305,2.6151,2.5255,2.5265,2.6641,2.7321,2.8123,0.0,0.0,0.0,3.3164,3.4277,3.5449,3.6758,3.9571,4.1701,4.2365,4.4094,4.5457,4.6221,4.5615,4.5186,4.5186,4.5186,4.4846,4.4116,4.4116,4.3653,4.264,4.3366,4.3676,4.3537,4.2241,4.2018,4.2711,4.0818,4.0539,4.1596,4.0389,4.1772,4.4547,4.1433,4.2538,4.62,4.6491,4.7829,4.9768,5.2412,5.3758,5.431,0.0,0.0,0.0,0.0,0.0,1.1717,1.265,1.2864,1.3293,1.4255,1.4389,1.4389,1.4389,1.4055,1.34,1.2395,1.1837,0.0,0.0,0.0,0.0,0.0,0.0,0.0,0.0,0.0,1.2438,1.2438,1.277,0.0,0.0,0.0,0.0,0.0,0.0,0.0,0.0,0.0,0.0,0.0,0.0,0.0,0.0,0.0,0.0,0.0,0.0,0.0,0.0,0.0,0.0,2.2445,2.2007,2.2975,2.5,2.8668,3.0345,3.1331,3.2808,3.3856,3.4434,3.4141,3.3218,3.1778,2.9418,2.7604,2.5846,2.3575,2.2857,2.3124,2.4879,2.5701,2.6809,0.0,0.0,3.168,3.2656,3.3789,3.5,3.6328,3.8623,4.0408,4.1242,4.301,4.4116,4.4116,4.4116,4.4299,4.4846,4.4368,4.439,4.4846,4.4368,4.3747,4.3136,4.4235,4.4639,4.4217,4.3337,4.3351,4.3992,4.2058,4.1909,4.3131,4.1779,4.2983,4.5761,4.1929,4.293,4.6922,4.669,4.821,5.0731,5.2894,5.416,5.4863,0.0,0.0,0.0,0.0,0.0,0.0,1.265,1.3052,1.3414,1.4015,1.4095,1.4095,1.4095,1.3574,1.3213,1.32,1.2385,0.0,0.0,0.0,0.0,0.0,0.0,0.0,0.0,0.0,1.2784,1.2784,1.3053,1.3213,1.3213,1.3213,0.0,0.0,0.0,0.0,0.0,0.0,0.0,0.0,0.0,0.0,1.4616,0.0,0.0,0.0,0.0,0.0,0.0,0.0,0.0,0.0,0.0,1.9631,2.0805,2.5459,2.88,3.1001,3.1019,3.2558,3.4082,3.4082,3.198,2.9339,2.6942,2.4391,2.2188,2.1283,2.0584,2.1018,2.3819,2.5032,2.6312,2.8552,0.0,0.0,3.2617,3.3535,3.457,3.5879,3.8439,4.0408,4.1242,4.301,4.4116,4.4116,4.4116,4.4846,4.6665,4.505,4.4914,4.6732,4.505,4.5165,4.7427,4.5598,4.6146,4.8989,4.5107,4.458,4.6882,4.4956,4.4075,4.4075,4.4075,4.518,4.6662,4.2769,4.4623,4.9724,4.7759,4.9745,5.3683,5.3708,5.4411,5.539,0.0,0.0,0.0,0.0,0.0,0.0,0.0,1.2398,1.2812,1.3414,1.3494,1.3641,1.4041,1.3561,1.3213,1.3213,1.2385,0.0,0.0,0.0,0.0,0.0,0.0,0.0,0.0,0.0,1.336,1.336,1.3813,1.4108,1.4108,1.4309,1.4456,1.4549,0.0,0.0,0.0,0.0,0.0,0.0,0.0,1.5057,1.5425,0.0,0.0,0.0,0.0,0.0,0.0,0.0,0.0,0.0,0.0,0.0,0.0,2.1529,2.4116,2.6838,2.8443,2.9565,3.0195,2.9729,2.8333,2.6559,2.4599,2.2508,2.058,1.9261,1.8682,1.9217,2.2028,2.3665,2.559,2.8427,3.0527,0.0,3.2305,3.3594,3.4648,3.5059,3.7193,3.9313,4.1142,4.182,4.2731,4.3978,4.294,4.2988,4.4846,4.3196,4.3057,4.4914,4.3127,4.3145,4.5165,4.3697,4.4074,4.6216,4.4336,4.3859,4.4601,4.425,4.4096,4.4096,4.4096,4.5201,4.6809,4.4247,4.5052,4.7976,4.8794,5.0127,5.1894,5.3686,5.4762,5.544,0.0,0.0,0.0,0.0,0.0,0.0,0.0,1.2118,1.2438,1.2812,1.2866,1.3093,1.3694,1.3227,1.2959,1.3186,1.2492,0.0,0.0,0.0,0.0,0.0,0.0,0.0,0.0,1.3561,1.3921,1.4148,1.4723,1.4972,1.5017,1.5431,1.5498,1.5297,1.5297,1.5124,0.0,0.0,0.0,0.0,1.5003,1.5404,1.5838,0.0,0.0,0.0,0.0,0.0,0.0,0.0,0.0,0.0,0.0,0.0,0.0,0.0,2.1036,2.3089,2.5739,2.7011,2.758,2.726,2.5753,2.4033,2.279,2.0937,1.9149,1.805,1.7716,1.8517,2.1593,2.3128,2.52,2.9026,3.0937,3.2031,3.2363,3.373,3.4941,3.5605,3.7012,3.8783,4.1072,4.0708,4.1347,4.391,4.2382,4.2101,4.3978,4.2312,4.182,4.2988,4.2591,4.3266,4.5118,4.3643,4.3955,4.5967,4.3889,4.3509,4.4586,4.4866,4.5029,4.5201,4.5201,4.5849,0.0,4.4902,4.5701,4.8289,4.9534,5.0937,5.2425,5.3985,5.5039,5.5742,0.0,0.0,0.0,0.0,0.0,0.0,0.0,1.2091,1.2278,1.2305,1.2305,1.2518,1.308,1.2639,1.2532,1.3093,0.0,0.0,0.0,0.0,0.0,0.0,0.0,0.0,1.3626,1.4015,1.4456,1.5075,1.5631,1.5878,1.5891,1.65,1.6473,1.5952,1.5952,1.5778,1.5444,0.0,0.0,0.0,1.5378,1.5658,0.0,0.0,0.0,0.0,0.0,0.0,0.0,0.0,0.0,0.0,0.0,0.0,0.0,0.0,0.0,0.0,0.0,2.4598,2.5668,2.6061,2.397,2.1722,2.1446,1.9661,0.0,1.7702,1.7662,1.8766,2.2246,2.3345,2.5287,3.0084,3.125,3.1855,3.2715,3.3945,3.5371,3.7051,3.7656,3.8763,4.103,3.9726,4.0249,4.3841,4.2382,4.2101,4.3841,4.2101,4.1134,4.1134,4.2918,4.471,4.6398,4.471,4.5028,4.7221,4.3687,4.3349,4.5978,4.6384,4.6581,4.661,4.7029,4.7029,4.6662,4.5127,4.6662,5.0032,5.0222,5.2057,5.4561,5.4612,5.529,5.6219,0.0,0.0,0.0,0.0,0.0,0.0,0.0,0.0,0.0,0.0,1.2305,1.2358,1.2505,1.2385,1.2358,0.0,0.0,0.0,0.0,0.0,0.0,0.0,0.0,0.0,1.3975,1.471,1.5271,1.5631,1.6433,1.6884,1.6898,1.7208,1.7301,1.7168,1.7168,1.6887,1.638,1.6005,0.0,0.0,1.6286,1.658,0.0,0.0,0.0,0.0,1.7555,1.7582,0.0,0.0,0.0,0.0,0.0,0.0,0.0,0.0,1.8691,1.891,1.9869,0.0,2.1537,2.1441,2.0707,1.9957,0.0,1.8972,1.837,1.829,1.845,1.9444,2.2231,2.4122,2.6418,2.9795,3.1289,3.2305,3.3144,3.4394,3.5625,3.6699,3.748,3.8644,4.0682,4.0713,4.1608,4.391,4.2382,4.1467,4.1961,4.0228,3.9261,3.9261,4.0992,4.215,4.257,4.2171,4.2214,4.2813,4.228,4.1772,4.1556,4.6348,4.6268,4.279,4.7344,4.754,4.4977,4.754,4.9153,5.0222,5.2094,5.3557,5.4612,5.5039,5.5616,5.6219,0.0,0.0,0.0,0.0,0.0,0.0,0.0,0.0,0.0,0.0,0.0,0.0,0.0,0.0,0.0,0.0,0.0,0.0,0.0,0.0,0.0,0.0,0.0,0.0,1.4669,1.5418,1.6072,1.6633,1.7395,1.7836,1.7969,1.8397,1.845,1.8183,1.7769,1.7328,1.6874,1.6509,1.6353,1.6486,1.6647,0.0,0.0,0.0,0.0,0.0,1.7582,1.7582,0.0,1.7582,1.7582,1.7609,0.0,0.0,0.0,0.0,1.829,1.8384,1.8811,1.9172,1.9426,1.9399,1.9185,1.8958,1.8931,1.8798,1.8731,1.8865,1.9623,2.0982,2.3373,2.5486,2.7764,3.0374,3.1894,3.3105,3.418,3.4766,3.5547,3.6816,3.7363,3.8536,4.0787,4.0442,4.085,4.2661,4.1134,4.0085,4.0085,3.989,3.9478,3.8647,4.1205,4.2171,4.1326,4.1326,4.1749,4.2591,4.1933,4.1937,4.2606,4.5984,4.5704,4.279,4.6809,4.7394,4.5648,4.8722,5.0551,5.1492,5.3064,5.4059,5.4637,5.5189,5.5742,5.6219,0.0,0.0,0.0,0.0,0.0,0.0,0.0,0.0,0.0,0.0,0.0,0.0,0.0,0.0,0.0,0.0,0.0,0.0,0.0,0.0,0.0,0.0,0.0,1.4522,1.5444,1.6086,1.6834,1.7716,1.8424,1.8878,1.9132,1.9679,1.9626,1.9025,1.821,1.7715,1.7367,1.678,1.666,1.6847,1.6847,0.0,0.0,0.0,0.0,0.0,0.0,0.0,0.0,1.7582,1.7582,1.7582,1.7582,0.0,0.0,0.0,0.0,0.0,1.8704,1.8704,1.8624,1.8918,1.8838,1.8758,1.8998,1.9092,1.9212,1.9506,2.0959,2.2744,2.4828,2.707,2.9198,3.1265,3.2734,3.4023,3.5234,3.5215,3.5644,3.7129,3.7422,3.8354,4.0542,3.9438,3.9261,4.0779,3.9478,3.8574,3.8574,4.0033,4.0157,3.8647,4.163,4.2661,4.1326,4.1608,4.2382,4.3703,4.2382,4.2947,4.5145,4.5453,4.4903,4.3794,4.6367,4.7248,4.7175,4.9463,5.1373,5.298,5.3607,5.4135,5.4637,5.529,5.5817,5.6219,0.0,0.0,0.0,0.0,0.0,0.0,0.0,0.0,0.0,0.0,0.0,0.0,0.0,0.0,0.0,0.0,0.0,0.0,0.0,0.0,0.0,0.0,0.0,1.4616,1.5691,1.658,1.7501,1.8357,1.9439,1.9987,2.004,2.0388,2.0227,1.9653,1.9265,1.8798,1.8263,1.7916,1.7649,1.7448,1.7448,0.0,0.0,0.0,0.0,0.0,0.0,0.0,0.0,1.7582,1.7582,1.7582,1.7582,0.0,0.0,0.0,0.0,0.0,1.8397,1.8704,1.8931,1.9225,1.9452,1.9613,1.9653,1.9853,2.012,2.0414,2.2119,2.3947,2.5545,2.8175,3.0525,3.1847,3.3437,3.4707,3.5312,3.6269,3.6992,3.7266,3.793,3.8426,3.8458,3.8504,3.872,3.8991,3.8793,3.8574,3.8574,3.8846,3.8918,3.8647,3.9136,4.0033,4.1255,4.287,4.2988,4.1749,4.3057,4.342,4.3128,4.4788,4.4172,4.1907,4.7271,4.8578,4.7248,5.0928,5.2629,5.303,5.4034,5.4486,5.4687,5.5717,5.6143,5.6219,0.0,0.0,0.0,0.0,0.0,0.0,0.0,0.0,0.0,0.0,0.0,0.0,0.0,0.0,0.0,0.0,0.0,0.0,0.0,0.0,0.0,0.0,0.0,1.5271,1.6286,1.7328,1.8317,1.9199,2.0054,2.0628,2.0949,2.0922,2.0601,2.0013,1.9559,1.9132,1.8691,1.8182,1.7916,1.7822,0.0,0.0,0.0,0.0,0.0,0.0,0.0,0.0,0.0,0.0,1.7582,1.7582,1.7582,0.0,0.0,0.0,0.0,0.0,1.837,1.8824,1.9496,2.0927,2.152,2.2002,2.3308,2.3688,2.3779,2.3884,2.5384,2.6834,2.7566,2.9671,3.1851,3.3292,3.4199,3.5019,3.5957,3.6582,3.7129,3.7578,3.7988,3.8242,3.8281,3.8457,3.8574,3.8574,3.8574,3.8574,3.8574,3.955,3.9622,3.8647,4.0514,4.1488,4.1326,4.3149,4.368,4.287,4.471,4.4383,4.2354,4.4535,4.4387,4.2672,4.6624,4.8506,4.8866,5.1747,5.2929,5.303,5.4135,5.4561,5.4687,5.5817,5.6219,5.6219,0.0,0.0,0.0,0.0,0.0,0.0,0.0,0.0,0.0,0.0,0.0,0.0,0.0,0.0,0.0,0.0,0.0,0.0,0.0,0.0,0.0,0.0,0.0,0.0,1.6994,1.805,1.9092,2.0107,2.0695,2.1216,2.1708,2.1349,2.0855,2.0153,1.9773,1.9332,1.8891,1.8395,1.8115,1.7969,0.0,0.0,0.0,0.0,0.0,0.0,0.0,0.0,0.0,0.0,0.0,0.0,0.0,0.0,0.0,1.7582,1.7809,1.8062,1.841,1.8971,2.0082,2.2513,2.3248,2.4009,2.6274,2.686,2.6881,2.6839,2.8226,2.9451,2.948,3.1224,3.3105,3.4609,3.4941,3.5469,3.6777,3.6973,3.7246,3.7988,3.8086,3.8203,3.8555,3.8574,3.8574,3.8574,3.8574,3.8574,3.8574,3.989,4.0013,3.8647,4.1347,4.2312,4.1326,4.2731,4.3703,4.4116,4.5027,4.4271,4.2039,4.3816,4.4149,4.3647,4.6328,4.8462,5.0127,5.2119,5.2929,5.303,5.4135,5.4712,5.5039,5.5892,5.6219,5.6219,0.0,0.0,0.0,0.0,0.0,0.0,0.0,0.0,0.0,0.0,0.0,0.0,0.0,0.0,0.0,0.0,0.0,0.0,0.0,0.0,0.0,0.0,0.0,0.0,1.7889,1.8557,1.9586,2.1015,2.1603,2.1911,2.1951,2.1722,2.1056,2.0227,2.0187,1.9706,1.8918,1.8821,1.8488,1.7995,1.7969,0.0,0.0,0.0,0.0,0.0,0.0,0.0,0.0,0.0,0.0,0.0,0.0,0.0,1.7582,1.7582,1.7809,1.8062,1.841,1.9118,2.0378,2.3076,2.3762,2.4301,2.6339,2.706,2.733,2.7534,2.9026,3.0402,3.0637,3.2509,3.4238,3.5195,3.5664,3.6367,3.7656,3.7832,3.8008,3.8476,3.8535,3.8535,3.8574,3.8574,3.8574,3.8574,3.8574,3.8574,3.8574,3.872,3.872,3.8574,3.8846,3.9746,4.1255,4.1397,4.2382,4.4116,4.243,4.1791,4.2039,4.2132,4.271,4.3605,4.7316,4.9368,5.0127,5.2119,5.2929,5.303,5.4135,5.5189,5.6093,5.6168,5.6219,5.6219,0.0,0.0,0.0,0.0,0.0,0.0,0.0,0.0,0.0,0.0,0.0,0.0,0.0,0.0,0.0,0.0,0.0,0.0,0.0,0.0,0.0,0.0,0.0,1.6727,1.8277,1.9252,2.0281,2.139,2.2151,2.2432,2.2245,2.1951,2.1456,2.0762,2.0401,1.9947,1.9452,1.9078,1.8798,1.8502,1.8142,1.7916,0.0,0.0,0.0,0.0,0.0,0.0,0.0,0.0,1.7435,1.7555,1.742,1.7487,1.7622,1.7809,1.809,1.8424,1.8905,2.0673,2.2667,2.3786,2.615,2.8472,2.9119,2.9386,2.98,3.0984,3.1802,3.2302,3.239,3.3746,3.5,3.5351,3.6191,3.707,3.7812,3.8164,3.8398,3.8555,3.8574,3.8574,3.8574,3.8574,3.8574,3.8574,3.8574,3.8574,3.8574,3.8574,3.8457,3.8184,3.9272,4.01,4.0577,4.078,4.1256,4.202,4.2718,4.2538,4.162,4.3407,4.5057,4.6717,4.8803,5.0524,5.1886,5.2629,5.2929,5.303,5.4135,5.5239,5.6219,5.6219,5.6219,5.6047,0.0,0.0,0.0,0.0,0.0,0.0,0.0,0.0,0.0,0.0,0.0,0.0,0.0,0.0,0.0,0.0,0.0,0.0,0.0,1.3921,1.4442,1.5231,1.5805,1.6767,1.817,1.9533,2.0615,2.1416,2.2298,2.2565,2.2271,2.2084,2.167,2.1082,2.0494,2.012,1.9893,1.9305,1.8958,1.8744,1.8288,1.8022,0.0,0.0,0.0,0.0,0.0,0.0,0.0,0.0,1.7141,1.7288,1.7233,1.734,1.7528,1.7876,1.8687,1.957,2.0185,2.2064,2.4099,2.4983,2.7162,2.9436,3.0721,3.1423,3.2188,3.3533,3.3711,3.3672,3.3809,3.4687,3.5488,3.5762,3.6758,3.7637,3.8066,3.8379,3.8574,3.8574,3.8574,3.8574,3.8574,3.8574,3.8574,3.8574,3.8574,3.8516,3.8379,3.8359,3.8164,3.7734,3.895,3.9487,3.9247,3.9487,3.9713,3.9836,4.2016,4.244,4.1418,4.4579,4.6889,4.8577,4.9873,5.1358,5.2929,5.2929,5.313,5.3507,5.4285,5.5239,5.6219,5.6219,5.5827,5.5041,0.0,0.0,0.0,0.0,0.0,0.0,0.0,0.0,0.0,0.0,0.0,0.0,0.0,0.0,0.0,0.0,0.0,0.0,1.36,1.3921,1.4349,1.4981,1.6072,1.6967,1.7555,1.9319,2.0508,2.1109,2.1991,2.2271,2.1991,2.1977,2.167,2.1082,2.0494,2.0167,2.0187,1.9613,1.9025,1.849,1.849,1.813,1.7582,0.0,0.0,0.0,0.0,0.0,0.0,0.0,1.67,1.6754,1.7099,1.7192,1.7326,1.7876,1.9633,2.1521,2.2203,2.3007,2.4237,2.6657,2.6213,2.6261,3.0483,3.2795,3.4199,3.4609,3.4375,3.4219,3.4629,3.5098,3.5684,3.6543,3.7383,3.8086,3.8516,3.8574,3.8574,3.8574,3.8574,3.8574,3.8574,3.8574,3.8574,3.8574,3.8574,3.8379,3.7949,3.791,3.7734,3.7305,3.7285,3.7285,3.7285,3.7285,3.75,3.791,3.9836,4.0976,4.1467,4.5095,4.746,4.8622,5.0486,5.1925,5.2929,5.2929,5.3582,5.4561,5.4561,5.5239,5.6219,5.6219,5.4893,5.31,0.0,0.0,0.0,0.0,0.0,0.0,0.0,0.0,0.0,0.0,0.0,0.0,0.0,0.0,0.0,0.0,0.0,0.0,1.3948,1.4041,1.4349,1.4981,1.5498,1.6152,1.6941,1.8504,2.0,2.1416,2.1884,2.2071,2.1977,2.1842,2.1483,2.1082,2.0494,2.012,1.9907,1.9533,1.9145,1.8771,1.8571,1.825,1.7889,0.0,0.0,0.0,0.0,0.0,0.0,0.0,0.0,0.0,1.6807,1.7032,1.7367,1.8116,1.8945,1.9806,2.0639,2.3565,2.6181,2.5578,2.8632,3.184,3.1896,3.2063,3.2805,3.4754,3.5566,3.584,3.5664,3.623,3.6816,3.707,3.7578,3.8086,3.8516,3.8574,3.8574,3.8574,3.8574,3.8574,3.8574,3.8574,3.8437,3.8144,3.8125,3.793,3.75,3.748,3.7285,3.6875,3.6855,3.6719,3.6406,3.6699,3.707,3.748,4.0992,4.2894,4.3357,4.6167,4.8541,5.0511,5.1472,5.2277,5.2929,5.2929,5.3582,5.4561,5.4561,5.5239,5.6219,5.6219,5.4893,5.2873,0.0,0.0,0.0,0.0,0.0,0.0,0.0,0.0,1.2305,1.2305,1.2305,1.2412,0.0,0.0,0.0,1.356,1.3706,1.3895,1.4082,1.4082,1.4295,1.4763,1.5177,1.5912,1.7034,1.805,1.9265,2.0743,2.1323,2.1643,2.163,2.1577,2.1521,2.1256,2.0668,2.0307,2.012,1.9706,1.9305,1.8905,1.8731,1.841,1.7955,0.0,0.0,0.0,0.0,0.0,0.0,0.0,0.0,0.0,1.65,1.674,1.7349,1.9178,2.0482,2.1738,2.3764,2.6441,2.8518,2.8426,3.0894,3.3397,3.3404,3.3337,3.3698,3.5326,3.6055,3.6387,3.6289,3.6836,3.7344,3.7519,3.791,3.8281,3.8535,3.8574,3.8574,3.8574,3.8574,3.8496,3.834,3.832,3.8144,3.7715,3.7676,3.75,3.707,3.7051,3.6855,3.6426,3.6406,3.6289,3.6016,3.6289,3.6719,3.7375,4.079,4.312,4.4546,4.7397,4.9798,5.1649,5.2201,5.2628,5.2929,5.2929,5.3432,5.4165,5.3557,5.3861,5.4598,5.3953,5.2395,5.0452,0.0,0.0,0.0,0.0,0.0,0.0,0.0,1.2305,1.2318,1.2345,1.2345,1.2465,0.0,0.0,0.0,1.3613,1.3935,1.4082,1.4082,1.4082,1.4215,1.4509,1.5084,1.6059,1.7475,1.7809,1.8384,1.9252,2.0414,2.1002,2.1042,2.1336,2.1521,2.148,2.0869,2.0615,2.0561,1.9973,1.9399,1.8878,1.8824,1.8464,1.7876,1.7622,0.0,0.0,0.0,0.0,0.0,0.0,0.0,0.0,1.6179,1.6473,1.7286,2.0377,2.2903,2.5449,2.8994,3.0086,3.0756,3.3155,3.2711,3.2335,3.4901,3.5742,3.6016,3.6016,3.6074,3.6269,3.666,3.7109,3.7539,3.791,3.832,3.8574,3.8574,3.8535,3.8516,3.8516,3.8476,3.8301,3.791,3.7871,3.7695,3.7266,3.7246,3.7051,3.6641,3.6621,3.6426,3.6035,3.6016,3.6016,3.6016,3.6055,3.6484,3.7305,3.9672,4.2231,4.511,4.8603,5.0872,5.2126,5.2678,5.2929,5.2861,5.2698,5.2928,5.3313,5.1705,5.1497,5.184,5.0457,4.8632,4.6786,0.0,0.0,0.0,0.0,0.0,0.0,1.2211,1.2305,1.2385,1.2663,1.269,1.2891,1.3347,1.3467,0.0,1.3961,1.4055,1.4082,1.4082,1.4082,1.4215,1.4509,1.5084,1.5872,1.6874,1.7194,1.7662,1.8275,1.9506,2.0201,2.0428,2.0722,2.0735,2.0508,2.0388,2.0201,1.9947,1.9359,1.8905,1.8544,1.8063,1.7662,1.7367,1.7007,1.6714,0.0,0.0,0.0,0.0,0.0,0.0,0.0,1.6179,1.6473,1.6951,1.8385,2.0776,2.3224,2.4493,2.7554,3.0501,3.1064,3.2615,3.4324,3.5616,3.5957,3.6016,3.6016,3.6562,3.7051,3.7148,3.7793,3.834,3.8418,3.8516,3.8574,3.8574,3.8281,3.8066,3.8066,3.7773,3.7539,3.7441,3.7441,3.7266,3.6836,3.6816,3.6621,3.6191,3.6152,3.6113,3.6016,3.6016,3.6016,3.6016,3.6367,3.6797,3.7305,3.9909,4.2704,4.5605,4.7789,5.0,5.2126,5.2678,5.2929,5.2792,5.1233,5.0935,5.1273,4.9383,4.9162,4.9881,4.9612,4.8349,4.6786,0.0,0.0,0.0,0.0,0.0,0.0,0.0,0.0,1.2663,1.2971,1.3012,1.3146,1.3547,1.36,0.0,0.0,1.4082,1.4082,1.4082,1.4082,1.4215,1.4509,1.495,1.5538,1.6273,1.658,1.7088,1.7822,1.8437,1.9105,0.0,0.0,0.0,2.0167,2.0167,2.0067,1.9773,1.9319,1.8971,1.8651,1.8196,1.7836,1.7528,1.7088,1.674,1.6446,1.6166,0.0,0.0,0.0,0.0,0.0,0.0,0.0,1.69,1.8745,2.0619,2.2663,2.5726,2.8333,3.049,3.1858,3.3443,3.4883,3.5566,3.5879,3.6016,3.6016,3.6543,3.6992,3.6992,3.7519,3.7969,3.7969,3.7969,3.7969,3.7969,3.7773,3.7617,3.7617,3.7422,3.7226,3.7012,3.6992,3.6816,3.6387,3.6348,3.6269,3.6035,3.6016,3.6016,3.6016,3.6016,3.6016,3.6016,3.6445,3.6875,3.7305,4.0309,4.3878,4.7839,4.964,5.1264,5.2434,5.1763,5.1513,5.1373,4.9391,4.874,4.8776,4.7082,4.6648,4.7071,4.6535,4.5785,4.4906,0.0,0.0,0.0,0.0,0.0,0.0,0.0,0.0,0.0,1.324,1.328,1.34,1.3653,1.368,1.3773,0.0,0.0,0.0,1.4162,1.4215,1.4362,1.4656,1.491,1.5284,1.5771,1.6126,1.671,1.7435,1.7528,1.8116,0.0,0.0,0.0,2.016,2.016,2.0027,1.9773,1.9386,1.9078,1.8811,1.8424,1.8116,1.7836,1.7275,1.6914,1.6633,1.6099,1.5912,1.5899,1.5798,0.0,0.0,0.0,0.0,1.6818,1.9339,2.0772,2.2592,2.7521,2.9436,3.0666,3.3431,3.4394,3.4824,3.5293,3.5723,3.6016,3.6016,3.6367,3.668,3.668,3.7012,3.7305,3.7305,3.7305,3.7305,3.7305,3.7226,3.7187,3.7187,3.7129,3.6934,3.6601,3.6562,3.6406,3.6055,3.6016,3.6016,3.6016,3.6016,3.6016,3.6016,3.6016,3.6055,3.6133,3.6562,3.6992,3.7422,4.073,4.4633,4.9081,5.0998,5.205,5.2258,5.0339,4.9463,4.932,4.7321,4.6514,4.6337,4.4723,4.4168,4.4122,4.3279,4.2764,4.2288,0.0,0.0,0.0,0.0,0.0,0.0,0.0,0.0,0.0,0.0,1.3547,1.3653,1.4001,1.4028,1.4041,1.4082,1.4082,1.4202,1.4442,0.0,0.0,1.5271,1.5311,1.5498,1.5771,1.6126,1.646,1.682,1.7328,1.7796,0.0,0.0,0.0,1.9853,0.0,1.984,1.9746,1.8945,1.8584,1.8477,1.7715,1.7353,1.7286,1.6887,1.674,1.666,1.6339,1.6219,1.6179,1.5912,1.5784,0.0,0.0,0.0,1.6505,1.7418,1.9309,2.1579,2.338,2.7024,3.0954,3.3444,3.4394,3.4824,3.5293,3.5723,3.6016,3.6016,3.6367,3.668,3.668,3.7012,3.7305,3.7305,3.7305,3.7305,3.7305,3.6992,3.6758,3.6758,3.6426,3.6172,3.6113,3.6113,3.6094,3.6016,3.6016,3.6016,3.6016,3.6016,3.6016,3.6016,3.6016,3.6211,3.6582,3.6992,3.7422,3.7851,4.1131,4.3499,4.4977,4.6882,4.8722,5.0269,4.8289,4.7394,4.7248,4.5276,4.4452,4.4323,4.241,4.1856,4.223,4.2404,4.148,4.005,0.0,0.0,0.0,0.0,0.0,0.0,0.0,0.0,0.0,0.0,0.0,1.3653,1.3786,1.3841,1.3841,1.3841,1.3988,1.4282,1.4736,1.4941,1.5142,1.5378,1.5391,1.5538,1.5771,1.5952,1.6166,1.646,1.6727,1.7248,0.0,1.8424,1.8771,0.0,0.0,0.0,1.9038,0.0,1.849,1.845,1.8063,1.7996,0.0,1.7435,1.7408,1.7595,1.6807,1.6513,1.6446,1.5979,1.5725,1.5591,1.5591,0.0,0.0,0.0,1.777,1.9662,2.3263,2.6807,3.0131,3.2753,3.3672,3.4101,3.4551,3.5176,3.5664,3.5664,3.6016,3.6309,3.6309,3.6465,3.6582,3.6582,3.6582,3.6582,3.6582,3.6426,3.6309,3.6309,3.6133,3.6016,3.6016,3.6016,3.6016,3.6016,3.6016,3.6016,3.6016,3.6016,3.6016,3.6016,3.6016,3.623,3.666,3.709,3.8303,4.033,4.2022,4.3708,4.5404,4.537,4.6441,4.8217,4.6219,4.5351,4.5201,4.3304,4.2483,4.2427,4.154,4.0546,3.9673,4.0085,3.906,3.7264,0.0,0.0,0.0,0.0,0.0,0.0,0.0,0.0,0.0,0.0,0.0,1.3666,1.3813,0.0,0.0,0.0,1.4001,1.4309,1.4861,1.4968,1.5102,1.5284,1.5351,1.5498,1.5712,1.5792,1.5979,1.6321,0.0,0.0,1.7796,1.7796,1.7969,0.0,1.8504,1.8557,0.0,0.0,0.0,1.8504,1.8571,0.0,0.0,0.0,0.0,0.0,0.0,0.0,1.6954,1.6366,1.5872,1.5511,1.5511,1.5458,0.0,0.0,0.0,1.8404,2.2967,2.5642,2.7849,3.0587,3.1946,3.2612,3.2709,3.3709,3.4461,3.3973,3.4158,3.4439,3.4439,3.5305,3.6016,3.6016,3.6016,3.6016,3.6016,3.6016,3.6016,3.6016,3.6016,3.6016,3.6016,3.6016,3.6016,3.6016,3.6016,3.6016,3.6016,3.6016,3.6016,3.6016,3.6016,3.6269,3.6816,3.7363,3.8915,4.141,4.1741,4.2931,4.488,4.3706,4.4067,4.5425,4.4021,4.3359,4.3228,4.183,4.0841,4.0353,4.0353,3.904,3.7135,3.7506,3.6484,3.4682,0.0,0.0,0.0,0.0,0.0,0.0,0.0,0.0,0.0,0.0,0.0,1.3813,1.4372,1.4229,1.4175,1.4456,1.4242,1.4215,1.4522,1.4803,1.5022,1.5035,1.5244,0.0,1.5418,1.5685,1.5979,1.6321,0.0,0.0,1.7246,1.7246,1.7407,1.7662,1.8517,1.8744,1.849,0.0,0.0,0.0,0.0,0.0,0.0,0.0,0.0,0.0,0.0,0.0,1.7836,1.7288,1.6513,1.5758,1.5758,1.5618,1.5511,0.0,0.0,0.0,2.0693,2.2025,2.3411,2.6371,2.8685,3.0085,2.9257,3.0758,3.1814,3.0089,2.9964,3.0232,3.0232,3.3399,3.6016,3.6016,3.6016,3.6016,3.6016,3.6016,3.6016,3.6016,3.6016,3.6016,3.6016,3.6016,3.6016,3.6016,3.6016,3.6016,3.6016,3.6016,3.6016,3.6016,3.6016,3.6426,3.7266,3.8086,3.8823,3.9347,3.9367,3.9893,4.0813,4.068,4.0992,4.1463,4.1385,4.1327,4.1327,4.125,3.9943,3.8054,3.8054,3.6762,3.4944,3.5293,3.4163,3.2509,0.0,0.0,0.0,0.0,0.0,0.0,0.0,0.0,0.0,0.0,0.0,0.0,0.0,1.4309,1.4402,1.4509,1.4603,1.474,1.4803,1.4955,1.5008,1.5008,1.5115,1.5124,1.5124,1.5404,1.5605,0.0,0.0,1.6286,1.686,1.686,1.7072,1.738,1.7836,1.8009,1.7916,1.8116,0.0,0.0,0.0,0.0,0.0,0.0,0.0,0.0,0.0,0.0,1.8744,1.7756,1.6847,1.6086,1.5885,1.5631,0.0,1.6099,1.6313,1.6955,1.9926,2.0933,2.1905,2.506,2.6721,2.7648,2.7791,2.8852,2.9626,2.911,2.9506,2.9921,2.9921,3.1269,3.2368,3.2368,3.2368,3.2368,3.2368,3.2368,3.2368,3.2368,3.2368,3.2368,3.2368,3.2368,3.2874,3.4089,3.4227,3.4727,3.5947,3.6016,3.6016,3.6016,3.6289,3.6836,3.7695,3.8281,3.8652,3.8809,3.9062,3.9531,4.0137,4.0391,3.9951,3.904,3.904,3.9864,4.1172,4.1172,3.9864,3.7896,3.7896,3.5702,3.2577,3.2918,3.1856,3.026,0.0,0.0,0.0,0.0,0.0,0.0,0.0,0.0,0.0,1.3813,0.0,0.0,0.0,0.0,1.4669,1.4669,1.4763,1.4816,1.4816,1.4767,1.4713,1.4713,1.4763,1.4816,1.4816,1.5097,0.0,0.0,0.0,0.0,0.0,1.6567,1.6714,1.7058,1.7208,1.7288,0.0,0.0,0.0,1.7983,0.0,0.0,1.9693,0.0,0.0,0.0,0.0,0.0,1.9533,1.8744,1.7822,1.6927,0.0,0.0,0.0,0.0,0.0,0.0,1.8434,0.0,0.0,2.2498,2.3997,2.4912,2.5422,2.6357,2.708,2.6889,2.7299,2.7702,2.7702,2.7912,2.8633,3.0064,3.031,3.031,3.031,3.031,3.031,3.031,3.031,3.031,3.031,3.031,3.0805,3.2088,3.2246,3.2804,3.402,3.4727,3.5078,3.5211,3.6429,3.7061,3.6865,3.7356,3.7566,3.7566,3.7166,3.7221,3.7648,3.8038,3.7649,3.6649,3.6789,3.7657,3.904,3.904,3.7737,3.5702,3.5702,3.3512,3.0386,3.062,3.0026,2.9085,0.0,0.0,0.0,0.0,0.0,0.0,0.0,0.0,1.3826,1.4399,0.0,0.0,0.0,0.0,0.0,1.5022,1.471,1.4536,1.4522,1.4255,1.4082,1.4082,0.0,0.0,0.0,0.0,0.0,0.0,0.0,0.0,0.0,0.0,1.6406,1.6673,1.6673,1.6673,1.6714,0.0,1.7582,1.7716,0.0,1.9639,1.9578,0.0,0.0,0.0,2.144,2.1015,0.0,2.0193,0.0,0.0,0.0,0.0,0.0,0.0,0.0,0.0,0.0,0.0,0.0,0.0,2.0387,2.1919,2.1896,2.3298,2.4203,2.312,2.31,2.3327,2.3327,2.3567,2.52,2.9383,3.0135,3.0135,3.0151,3.0151,3.0151,3.0097,3.0097,3.0097,3.0097,3.0097,3.0168,3.0239,3.0239,3.0239,3.031,3.2106,3.3229,3.3553,3.6232,3.6812,3.4864,3.5242,3.5422,3.5348,3.3398,3.2687,3.3127,3.3491,3.3776,3.4123,3.4503,3.457,3.4489,3.4651,3.3431,3.1392,3.1392,3.0107,2.8274,2.8497,2.8804,2.9011,0.0,0.0,0.0,0.0,0.0,1.3186,1.344,1.3774,1.4095,0.0,0.0,0.0,0.0,0.0,1.5511,1.5297,1.5003,1.475,1.4536,1.4255,1.4082,1.4082,1.4162,1.4202,1.4202,0.0,0.0,0.0,0.0,0.0,0.0,0.0,0.0,0.0,1.6072,1.6072,1.6139,1.7154,0.0,1.7716,1.9199,1.988,0.0,0.0,0.0,0.0,0.0,2.1884,2.1403,2.0762,1.992,1.8891,0.0,0.0,0.0,0.0,0.0,0.0,1.5752,0.0,0.0,0.0,0.0,0.0,2.0362,2.1597,2.261,2.2324,2.2819,2.3327,2.3327,2.3567,2.4164,2.5371,2.5613,2.5684,2.584,2.5869,2.5954,2.6168,2.6196,2.6196,2.6196,2.6196,2.6779,0.0,2.8269,2.8844,3.0239,3.1057,3.1726,3.2295,3.3032,3.3346,3.317,3.3272,3.3322,3.3322,3.2809,3.2687,3.3127,3.3491,3.2984,3.1888,3.2145,3.1407,3.0274,3.3431,3.3431,3.1392,3.1392,3.0251,2.8511,2.8804,2.9112,2.9128,0.0,0.0,1.2784,1.2784,1.3253,1.3667,1.3919,1.4362,1.4736,0.0,0.0,0.0,0.0,0.0,1.5765,1.5591,1.5311,1.507,1.4897,1.4496,1.4269,1.4269,1.4148,1.4082,1.4082,1.4255,0.0,0.0,0.0,0.0,0.0,0.0,0.0,0.0,1.5645,1.5712,1.5864,1.7088,0.0,0.0,1.8971,0.0,0.0,2.1443,2.2084,0.0,0.0,0.0,2.2111,2.1724,2.0681,0.0,0.0,0.0,0.0,0.0,0.0,0.0,0.0,0.0,0.0,0.0,0.0,0.0,1.9599,2.0655,2.1537,2.1911,2.2498,2.2953,2.2953,2.3086,2.3247,2.3367,2.35,2.3688,2.3981,2.4022,2.4128,2.4422,2.4449,2.4556,2.4796,2.4823,2.531,2.6595,2.6669,2.7467,2.9413,2.9876,3.0182,3.0517,3.1582,3.1837,3.1207,3.1207,3.1207,3.1207,3.0361,3.0082,3.028,3.0767,3.0459,2.9463,2.9907,2.937,2.8389,3.091,3.1241,3.0093,3.0093,2.9481,2.8558,2.7782,2.77,2.761,0.0,0.0,1.2851,1.2878,1.3601,1.4229,1.4522,1.5044,1.5484,0.0,1.5784,1.5885,0.0,0.0,0.0,0.0,1.5344,1.516,1.516,1.4781,1.4549,1.4522,1.4269,1.4122,1.4082,1.4082,0.0,0.0,0.0,0.0,0.0,0.0,0.0,0.0,1.5418,1.5591,1.5899,1.7048,1.7288,1.7061,1.8771,1.9479,0.0,0.0,2.2111,2.2245,2.3113,2.2908,2.2172,2.2193,2.0955,0.0,0.0,0.0,0.0,0.0,1.567,0.0,0.0,0.0,0.0,0.0,0.0,0.0,1.9145,2.004,2.0748,2.1537,2.1951,2.2191,2.2218,2.2231,2.2325,2.2619,2.2926,2.3273,2.3714,2.3794,2.3928,2.4222,2.4249,2.4462,2.4983,2.5037,2.513,2.5398,2.5451,2.624,2.801,2.8426,2.8603,2.8571,3.0667,3.0977,2.906,2.906,2.906,2.906,2.7227,2.6386,2.6413,2.7001,2.7268,2.7295,2.7966,2.8221,2.8221,2.8221,2.8221,2.8234,2.8261,2.8207,2.7982,2.6134,2.5399,2.5104,1.2305,1.2746,1.32,1.3427,1.4001,1.4536,1.483,1.5177,1.5418,1.5471,1.5899,1.6273,0.0,0.0,0.0,1.4582,1.41,1.3776,1.3776,1.4514,1.4776,1.4536,1.4469,1.4322,1.4095,1.4082,1.4122,0.0,0.0,0.0,0.0,0.0,0.0,0.0,1.5538,1.5731,1.5838,1.6884,1.7635,1.825,1.9546,2.0214,2.0588,2.2111,2.2846,2.3153,2.3794,2.2696,2.0734,1.8539,1.7212,1.6636,0.0,0.0,0.0,1.6534,0.0,0.0,0.0,0.0,0.0,0.0,0.0,0.0,1.7581,1.8733,1.9666,1.984,2.0294,2.0735,2.0975,2.1015,2.1109,2.1403,2.1697,2.2338,2.3594,2.3968,2.4222,2.4516,2.4556,2.4596,2.4716,2.4716,2.4743,2.481,2.5024,2.5599,2.6443,2.6525,2.6676,2.683,2.7356,2.7384,2.7004,2.7004,2.7004,2.7004,2.6623,2.6386,2.6413,2.7001,2.7268,2.7295,2.7966,2.8221,2.8221,2.8221,2.8221,2.8248,2.8417,2.7465,2.5958,2.5766,2.4665,2.277,1.2305,1.2799,1.3267,1.3547,1.4255,1.4843,1.5137,1.5431,1.5658,1.5818,1.5622,1.5482,0.0,0.0,0.0,1.3344,1.3008,1.3147,1.3914,1.4241,1.4377,1.4193,1.4526,1.4327,1.3379,1.3851,1.4082,1.4082,0.0,0.0,0.0,0.0,0.0,0.0,1.5458,1.5885,1.6727,1.7181,1.7716,1.8357,1.9386,0.0,2.1306,2.2485,2.3153,2.3479,2.3092,2.1396,1.9176,1.7633,1.7241,0.0,1.6925,1.6115,1.5514,0.0,1.5322,1.412,0.0,0.0,0.0,1.507,1.5511,0.0,0.0,1.7782,1.8477,1.8477,1.9185,1.9853,2.0,1.9577,1.9453,2.0491,2.0578,2.0902,2.2098,2.2859,2.3527,2.4128,2.4209,2.4382,2.481,2.4863,2.4917,2.5064,2.5211,2.5424,2.5718,2.5879,2.6026,2.6172,2.6319,2.6386,2.6386,2.6386,2.6386,2.6386,2.6386,2.6466,2.6627,2.7068,2.7348,2.7426,2.6748,2.6418,2.6418,2.6418,2.5799,2.4976,2.6241,2.6287,2.531,2.2993,2.1543,2.0344,1.2318,1.2799,1.3267,1.3547,1.4376,1.5089,1.5284,1.5658,1.5936,1.6035,1.5303,1.4688,0.0,0.0,0.0,0.0,1.2148,1.2545,1.3765,1.3724,1.3652,1.3607,1.4082,1.3746,1.2383,1.333,1.3796,1.373,0.0,0.0,0.0,0.0,0.0,0.0,0.0,0.0,0.0,0.0,0.0,1.7961,0.0,2.0121,2.1802,2.2619,2.3367,2.3694,2.1698,1.9511,1.7531,1.7253,1.7612,1.8077,1.7313,1.673,0.0,0.0,0.0,0.0,0.0,0.0,0.0,1.5284,1.5257,1.5391,0.0,0.0,0.0,1.7315,1.8103,1.8728,1.8555,1.7745,1.7525,1.869,0.0,0.0,0.0,2.0335,0.0,2.3287,2.3581,2.3941,2.4583,2.4917,2.5184,2.5411,2.5531,2.5571,2.5518,2.5798,2.6037,2.6037,2.6239,2.6228,2.574,2.574,2.5581,2.5171,2.5171,2.5484,2.617,2.6036,2.6414,2.6947,2.4913,2.3995,2.3995,2.4041,2.3087,2.1714,2.408,2.4714,2.3857,1.9989,1.8375,1.7856,1.2358,1.2799,1.3267,1.3547,1.4376,1.5022,1.5048,1.5745,1.5963,1.5255,1.5258,0.0,0.0,0.0,0.0,0.0,0.0,1.1439,1.1462,1.238,1.281,1.2568,1.2253,1.1902,1.1442,1.2305,1.2699,1.2504,0.0,0.0,0.0,0.0,0.0,0.0,1.6295,0.0,0.0,0.0,1.8517,0.0,1.794,1.961,0.0,2.2926,2.3794,2.3975,2.0114,1.7356,1.5601,0.0,1.5331,1.5604,0.0,1.6902,1.4995,1.7789,0.0,0.0,0.0,1.5952,1.5631,1.5444,1.5565,1.5832,1.6233,0.0,1.6099,1.6366,0.0,1.6386,1.5499,0.0,0.0,0.0,0.0,0.0,1.5216,1.5602,1.7427,2.1687,2.2899,2.3313,2.3126,2.4302,2.509,2.513,2.5611,2.5785,2.5531,2.5798,2.6037,2.6037,2.6239,2.5489,2.346,2.346,2.2499,2.0635,2.0635,2.1816,2.3865,2.2124,2.2532,2.4483,2.2503,2.1566,2.1587,2.1695,2.1832,2.2125,2.4439,2.2805,1.9249,1.8963,1.7476,1.5549,1.2663,1.3186,1.3814,1.4095,1.4736,1.5271,1.5444,1.5414,1.5372,1.5159,1.3946,0.0,0.0,0.0,0.0,0.0,0.0,1.0738,0.0,0.0,0.0,1.1575,1.2617,1.264,1.1417,1.249,1.3237,1.3577,1.4278,0.0,0.0,0.0,0.0,0.0,1.6362,0.0,1.7862,0.0,1.9253,0.0,0.0,1.9645,0.0,2.0262,1.9459,1.8843,1.7045,1.5174,1.3394,0.0,1.4577,0.0,0.0,0.0,0.0,1.7196,0.0,0.0,0.0,1.6471,1.5443,1.6015,1.5501,1.5023,1.5818,1.5792,1.5511,1.5297,0.0,0.0,0.0,0.0,0.0,0.0,1.2687,0.0,0.0,0.0,1.5729,0.0,0.0,0.0,2.1238,2.2319,2.3366,2.4509,2.3959,2.3998,2.4949,2.5451,2.5692,2.5692,2.4854,2.3952,2.314,2.178,2.074,1.9907,1.9947,2.0703,2.1843,2.1065,2.1387,2.2375,2.0144,1.9301,1.9323,1.9414,1.8838,1.8126,2.0468,2.0226,1.8484,1.7188,1.6104,1.5181,1.3092,0.0,1.4148,1.4362,1.495,1.5551,1.6005,1.5244,1.4664,1.473,1.2947,0.0,1.1308,1.0479,0.0,0.0,1.0168,1.0544,0.0,0.0,1.2177,1.0827,1.2068,1.2415,1.1458,1.2475,1.324,1.3716,1.4257,0.0,0.0,0.0,0.0,0.0,0.0,1.7121,1.7892,0.0,1.8726,1.9203,1.7796,1.7877,1.8664,1.7857,1.6538,1.5129,1.5078,1.3753,1.2074,1.266,1.4413,0.0,1.3954,1.5475,1.7776,0.0,0.0,0.0,1.76,1.6648,1.5623,1.6899,1.6061,1.5101,1.5681,1.5412,1.4751,1.3848,1.3328,0.0,0.0,0.0,0.0,0.0,0.0,1.0604,0.0,1.2121,0.0,0.0,0.0,0.0,0.0,1.9979,2.1193,2.315,2.1924,2.1848,2.3619,2.3757,2.3705,2.363,2.2548,2.1693,2.1235,1.9563,1.8526,1.8043,1.8155,1.8678,1.9561,1.91,1.9306,2.001,1.7698,1.6793,1.7008,1.7056,1.6212,1.5156,1.6834,1.7652,1.767,1.583,1.5181,1.5181,1.3626,1.3868,1.4095,1.4095,1.4816,1.5685,1.654,1.5317,1.4112,1.3617,0.0,0.0,0.0,0.0,0.0,0.0,0.0,1.1063,1.077,1.0671,1.0513,1.0299,0.9504,0.9798,1.1273,1.1722,1.1915,1.1775,1.2779,0.0,0.0,0.0,0.0,0.0,1.6329,1.6744,1.5431,1.719,1.6258,1.3601,1.3991,1.3224,1.2395,0.0,1.7128,1.5112,1.4924,0.0,0.0,1.414,1.4665,1.4787,1.6484,0.0,0.0,0.0,0.0,0.0,1.5948,1.6333,1.648,1.8046,1.7782,1.6912,1.6066,1.4879,1.3492,1.191,1.1471,0.0,0.0,0.0,0.0,0.0,0.0,0.0,0.0,0.0,0.0,0.0,0.0,0.0,0.0,1.7385,1.886,0.0,1.9916,1.993,2.1396,2.0038,1.9111,1.9046,1.9316,1.8534,1.6432,1.6352,1.5249,1.3217,1.3362,1.4638,1.6927,1.4816,1.514,1.7307,1.4949,1.4114,1.4408,1.4544,1.4783,1.4984,1.5213,1.5268,1.5275,1.5275,1.5181,1.5181,1.4536,1.475,1.4897,1.474,1.5231,1.5912,1.6593,1.4786,1.3498,0.0,1.2187,0.0,0.0,1.0968,1.1172,0.0,0.0,1.1436,1.1036,1.1799,1.1672,1.036,1.0435,1.0707,1.1156,1.1125,1.1297,1.1684,1.2141,0.0,0.0,0.0,0.0,0.0,0.0,1.5332,0.0,0.0,0.0,0.0,0.0,1.3663,1.2065,0.0,1.3556,1.2764,1.2706,1.2258,0.0,1.2475,1.3499,1.429,1.3666,1.4787,1.6056,1.4949,1.4964,1.5386,1.5768,1.4968,1.4547,1.646,1.6345,1.571,1.562,1.5147,1.4224,1.2354,1.0811,0.0,0.0,0.0,0.0,0.0,0.0,0.0,0.0,0.0,0.0,0.0,0.0,0.0,0.0,0.0,0.0,0.0,1.7297,0.0,1.9135,1.8955,1.886,1.8789,1.7645,1.6778,1.6177,1.4655,1.3612,1.3105,1.3254,1.3811,1.471,1.4034,1.4216,1.4942,1.4291,1.4163,1.4448,1.4604,1.4841,1.5113,1.516,1.5181,1.5181,1.5181,1.5181,1.5194,1.5035,1.5204,1.5337,1.515,1.5605,1.5945,1.5971,1.4283,1.3143,0.0,1.1721,0.0,1.1186,0.0,1.1477,0.0,1.183,1.1769,1.1423,1.2208,1.2027,1.0756,1.0969,1.1268,1.1677,1.1231,1.1177,1.1503,0.0,1.1337,0.0,0.0,0.0,0.0,0.0,1.376,1.3116,1.3676,1.453,0.0,0.0,1.3184,0.0,0.0,1.1809,1.1769,0.0,1.1694,1.1681,1.1572,1.2308,1.3137,1.1818,1.313,1.4771,1.3408,1.3761,1.4611,1.4686,1.3892,1.3505,1.5462,1.5359,1.4719,1.4559,1.4166,1.3385,1.1514,0.9904,0.8847,0.0,0.0,0.0,0.0,0.0,0.0,0.0,0.7333,0.0,0.0,0.0,0.0,0.0,0.0,0.0,0.0,0.0,0.0,0.0,1.6657,1.6355,1.6283,1.5152,1.4661,1.4805,1.3369,1.2773,1.3017,1.3173,1.3322,1.3471,1.362,1.3715,1.377,1.3871,1.4116,1.4448,1.4597,1.4835,1.5113,1.516,1.5181,1.5181,1.5181,1.5215,1.5289,1.5102,1.5244,1.5444,1.5444,1.5912,1.5937,1.4811,1.3995,1.3144,0.0,1.1401,1.1029,1.1192,1.1592,1.1857,1.1864,1.1999,1.202,1.1864,1.1843,1.1714,1.1436,1.0982,1.1315,1.2572,1.185,1.1255,1.1008,0.0,0.0,0.0,0.0,0.0,0.0,1.1747,0.0,1.1543,1.209,1.2028,1.1619,1.1769,1.1755,1.1653,1.1789,1.1938,1.2054,1.1891,1.183,1.1789,1.1497,1.1402,1.1375,1.1233,1.1248,1.1241,1.1241,1.1234,1.1468,1.2855,1.3012,1.3267,1.507,1.4935,1.4095,1.3108,1.2217,1.1134,0.9553,0.877,0.8384,0.0,0.0,0.0,0.0,0.0,0.0,0.0,0.0,0.0,0.0,0.0,0.0,0.0,0.0,0.0,0.0,0.0,0.0,0.0,1.3067,1.1993,1.1837,1.2121,1.2284,1.2291,1.244,1.2589,1.2745,1.2895,1.3044,1.3186,1.3342,1.3492,1.3627,1.3648,1.3899,1.4312,1.4462,1.4699,1.4984,1.5126,1.5181,1.5181,1.5194,1.5289,1.5432,1.5618,1.5845,1.6046,1.6046,1.6353,1.6251,1.5217,1.4481,0.0,0.0,1.1806,1.1416,1.1862,1.2033,1.2216,1.2318,1.2366,1.2325,1.2182,1.2067,1.1965,1.1891,1.1246,1.1056,1.1593,1.0476,0.9853,0.9707,0.9113,0.0,0.9509,0.0,0.0,0.0,0.0,1.0612,0.9989,1.0461,1.0951,1.147,1.1728,1.1877,1.1952,0.0,1.2101,1.2196,1.1925,1.183,1.1803,1.1619,1.1558,1.1552,1.1511,1.1423,1.1335,1.1335,1.1253,1.1289,1.166,1.16,1.1755,1.3116,1.3556,1.343,1.2699,1.239,1.1804,1.0032,0.9178,0.8757,0.8716,0.0,0.0,0.0,0.0,0.0,0.0,0.0,0.0,0.6943,0.0,0.0,0.0,0.0,0.0,0.0,0.0,0.0,0.0,0.0,1.1993,1.1837,1.202,1.2176,1.2291,1.2542,1.2745,1.2901,1.3051,1.32,1.3349,1.3498,1.3593,1.3641,1.3865,1.4089,1.4319,1.4577,1.4794,1.4984,1.5126,1.5181,1.5194,1.5309,1.5377,1.5445,1.6019,1.6152,1.6482,1.6941,1.6639,1.5878,1.4581,1.3849,1.303,1.2057,1.1691,0.0,1.2121,1.2291,1.2413,1.2494,1.2501,1.2467,1.2386,1.2305,1.223,1.2162,1.1762,1.1477,1.1362,1.0575,0.9924,0.9442,0.8968,0.0,0.923,0.0,0.0,0.0,0.0,0.9512,0.9429,1.0141,1.0846,1.1511,1.1742,1.1843,0.0,1.2013,1.2074,1.2067,1.1891,1.183,1.1796,1.1592,1.1518,1.1511,1.1443,1.1362,1.128,1.1219,1.1138,1.107,1.107,1.1009,1.1035,1.171,1.2064,1.213,1.174,1.167,1.1376,1.0239,0.9652,0.9262,0.93,0.0,0.0,0.0,0.0,0.0,0.0,0.0,0.0,0.0,0.7373,0.0,0.0,0.0,0.0,0.0,0.0,0.0,0.0,0.0,1.1762,1.1742,1.1945,1.2101,1.2189,1.2549,1.2807,1.2963,1.3105,1.3254,1.3403,1.3559,1.3661,1.3736,1.3966,1.4156,1.4319,1.455,1.4733,1.4889,1.5099,1.5221,1.5303,1.5452,1.5513,1.554,1.6442,1.6446,1.6797,1.7607,1.6634,1.5216,1.3497,1.2856,1.2144,1.1083,1.1525,1.1993,1.2257,1.242,1.2501,1.2501,1.2501,1.2501,1.2501,1.2501,1.2447,1.2325,1.2298,1.2108,1.1714,1.1369,1.0792,0.9971,0.9483,0.0,0.0,0.0,0.0,0.0,0.0,0.0,0.0,1.0895,1.1434,1.1606,1.1769,1.1755,1.1674,1.1932,1.1945,1.183,1.1809,1.1816,1.1789,1.1511,1.1423,1.1396,1.1267,1.1206,1.1165,1.1023,1.0894,1.088,1.0853,1.0853,1.0853,1.0853,1.0853,1.0813,1.0751,1.0616,1.048,1.0337,1.008,0.9924,0.999,0.0,0.0,0.0,0.0,0.0,0.0,0.0,0.0,0.0,0.0,0.0,0.0,0.0,0.0,0.0,0.0,0.0,0.0,0.0,1.1504,1.1613,1.1911,1.2135,1.2135,1.2528,1.2827,1.2963,1.3125,1.3281,1.3437,1.3587,1.3736,1.3878,1.4034,1.4177,1.4312,1.4455,1.4611,1.4794,1.5052,1.5262,1.5432,1.5581,1.5649,1.5689,1.7045,1.7395,1.7445,1.6565,1.5698,1.47,1.3341,1.322,1.2838,1.1497,1.1837,1.223,1.2284,1.242,1.2501,1.2501,1.2501,1.2501,1.2501,1.2501,1.2488,1.2467,1.2352,1.225,1.2176,1.1633,1.1151,1.0685,1.0046,0.0,0.0,0.0,0.0,0.0,0.0,0.0,1.2204,1.3234,0.0,1.1457,1.1721,1.1816,1.1796,1.185,1.1857,1.1816,1.1701,1.1735,1.1803,1.1633,1.1579,1.1572,1.1545,1.145,1.1321,1.1172,1.1043,1.0853,1.0792,1.0758,1.0758,1.0758,1.0758,1.0751,1.0724,1.0697,1.0636,1.0487,1.0317,1.0209,1.0236,0.9829,0.0,0.0,0.0,0.0,0.0,0.0,0.0,0.0,0.0,0.0,0.0,0.0,0.0,0.0,0.0,0.0,0.0,0.0,0.0,0.0,1.1911,1.2135,0.0,0.0,1.2935,1.2963,1.3234,1.3444,1.3593,1.3736,1.3885,1.4041,1.419,1.4278,1.4312,1.4455,1.4679,1.4936,1.4991,1.5174,1.5432,1.5581,1.5716,1.5839,1.7862,1.7405,1.7037,1.7005,1.5345,1.391,1.3684,1.3161,1.251,1.1873,1.206,1.2318,1.2393,1.2461,1.2501,1.2501,1.2501,1.2501,1.2501,1.2501,1.2501,1.2501,1.2433,1.2366,1.2291,1.1925,1.1477,1.088,1.0426,0.0,0.0,0.0,0.0,0.0,0.0,1.2167,0.0,0.0,1.2066,1.1416,1.1714,1.1742,1.1619,1.1775,1.1782,1.1714,1.1647,1.166,1.1708,1.164,1.1619,1.1619,1.1619,1.1565,1.1463,1.1233,1.1118,1.1009,1.0778,1.0717,1.0717,1.0717,1.0717,1.0717,1.0717,1.0717,1.0677,1.0521,1.05,1.046,1.031,1.0107,0.9571,0.8384,0.0,0.0,0.0,0.0,0.0,0.0,0.0,0.0,0.0,0.0,0.0,0.0,0.0,0.0,0.0,0.0,0.0,0.0,0.0,0.0,1.2135,0.0,1.2963,1.2963,1.3261,1.3485,1.3634,1.3777,1.3926,1.4082,1.4231,1.4299,1.4312,1.4455,1.4597,1.4753,1.4991,1.5215,1.5438,1.5669,1.5845,1.5981,1.8277,1.7365,1.6691,1.6945,1.495,1.3425,1.3754,1.2831,1.2108,1.2108,1.2244,1.2379,1.2488,1.2501,1.2501,1.2501,1.2501,1.2488,1.2461,1.2454,1.2454,1.2454,1.2454,1.242,1.2338,1.2216,1.1837,1.1185,1.088,1.0472,0.0,0.0,0.0,0.0,0.0,0.0,0.0,1.215,1.1545,1.1416,1.1681,1.1626,1.1416,1.1687,1.1714,1.1619,1.1619,1.1619,1.1619,1.1619,1.1619,1.1619,1.1619,1.1599,1.1518,1.1246,1.1138,1.1056,1.0792,1.0717,1.0711,1.0677,1.067,1.0663,1.0636,1.0629,1.0595,1.0473,1.0568,1.0602,1.0371,1.0004,0.9379,0.8169,0.713,0.0,0.0,0.0,0.0,0.0,0.0,0.0,0.0,0.0,0.0,0.0,0.0,0.0,0.0,0.0,0.0,0.0,0.0,1.2169,1.2155,0.0,1.2976,1.301,1.3308,1.3532,1.3682,1.3824,1.3973,1.4129,1.4245,1.4299,1.4306,1.4421,1.4482,1.455,1.4936,1.5201,1.5398,1.5662,1.5859,1.5995,1.778,1.7797,1.7293,1.4645,1.4159,1.3698,1.2606,1.2402,1.2271,1.2271,1.2393,1.2488,1.2501,1.2501,1.2501,1.2501,1.2501,1.2447,1.2318,1.2311,1.2311,1.2311,1.2311,1.2366,1.2481,1.2467,1.2298,1.1959,1.166,1.1323,1.0961,0.0,0.0,0.0,1.4442,1.4697,1.3508,1.3924,1.302,1.1402,1.1572,1.1538,1.1409,1.1572,1.1633,1.1619,1.1619,1.1619,1.1619,1.1619,1.1619,1.1619,1.1619,1.1525,1.1382,1.1212,1.107,1.0867,1.0765,1.0717,1.0683,1.0548,1.0514,1.048,1.0351,1.0324,1.0317,1.0304,1.0412,1.0507,1.048,0.9163,0.8678,1.0493,0.7488,0.0,0.0,0.0,0.4189,0.0,0.0,0.0,0.0,0.0,0.0,0.0,0.0,0.0,0.0,0.0,0.0,1.1613,1.1911,1.2189,1.2461,1.2793,1.3024,1.3159,1.3464,1.3682,1.3824,1.398,1.4136,1.4278,1.4292,1.4299,1.4299,1.4312,1.4394,1.4529,1.4713,1.4957,1.5221,1.5391,1.5547,1.5696,1.6947,1.696,1.6614,1.4548,1.3517,1.2895,1.2416,1.2366,1.242,1.242,1.2467,1.2501,1.2501,1.2501,1.2467,1.2379,1.2372,1.2311,1.2162,1.2155,1.2155,1.2155,1.2155,1.2182,1.2237,1.2237,1.2135,1.1925,1.1721,1.1503,1.1263,1.0747,1.1424,1.3108,1.391,1.4101,1.3706,1.2843,1.205,1.1396,1.1457,1.1443,1.1409,1.1558,1.1619,1.1619,1.1619,1.1619,1.1619,1.1619,1.1619,1.1606,1.1511,1.1443,1.1341,1.1104,1.0995,1.0826,1.0649,1.0582,1.0548,1.0399,1.0365,1.0351,1.029,1.0283,1.0283,1.0283,1.0324,1.0037,0.8934,0.8269,0.7521,0.6176,0.4679,0.3332,0.0,0.0,0.0,0.095,0.0,0.0,0.0,0.0,0.0,0.0,0.0,0.0,0.0,0.0,0.0,1.1877,0.0,1.2108,1.2501,1.2712,1.2942,1.3173,1.3485,1.3702,1.3844,1.4,1.4156,1.4299,1.4299,1.4299,1.4299,1.4299,1.438,1.4536,1.478,1.5004,1.5215,1.5459,1.5588,1.5649,1.6919,1.6778,1.6339,1.4164,1.296,1.2305,1.2345,1.244,1.2501,1.2501,1.2501,1.2501,1.2501,1.2501,1.2447,1.2305,1.2291,1.2203,1.2006,1.1993,1.1993,1.1993,1.1993,1.2013,1.2135,1.2135,1.1986,1.183,1.1728,1.1612,1.1528,1.1266,1.1747,1.2898,1.2754,1.2919,1.3193,1.1895,1.1335,1.1396,1.1443,1.143,1.1409,1.1558,1.1619,1.1619,1.1619,1.1592,1.1552,1.1552,1.1525,1.147,1.1409,1.1328,1.1219,1.0941,1.082,1.0765,1.0548,1.046,1.0392,1.0249,1.0215,1.0202,1.0154,1.0148,1.0161,1.0202,0.9829,0.9133,0.789,0.6978,0.5818,0.3765,0.265,0.1793,0.0999,0.0853,0.0,0.0,0.193,0.2588,0.254,0.4964,0.0,0.0,0.0,0.0,0.0,0.0,0.0,0.0,0.0,0.0,1.263,1.2698,1.2922,1.3308,1.3566,1.377,1.3912,1.4068,1.4197,1.4299,1.4299,1.4299,1.4299,1.4299,1.438,1.4536,1.4801,1.4991,1.5153,1.5411,1.5506,1.5513,1.8109,1.7733,1.6719,1.3,1.2284,1.2338,1.2474,1.2501,1.2501,1.2501,1.2501,1.2501,1.2501,1.2501,1.2447,1.2305,1.2291,1.2162,1.1857,1.1837,1.1837,1.1837,1.1837,1.1904,1.2135,1.2135,1.1986,1.183,1.183,1.1783,1.1791,1.1674,1.1495,1.1452,1.1452,1.147,1.1619,1.1613,1.1531,1.1402,1.1558,1.1525,1.1409,1.1558,1.1619,1.1619,1.1619,1.1525,1.1396,1.1396,1.1294,1.1261,1.1341,1.1192,1.0887,1.088,1.0731,1.0493,1.0493,1.0392,1.0249,1.0031,0.999,0.995,0.9863,0.9829,0.9869,0.9957,0.8726,0.7697,0.7747,0.5009,0.344,0.5464,0.2558,0.072,0.2791,0.2807,0.0,0.3196,0.6563,0.7388,0.3708,0.6865,0.0,0.0,0.0,0.0,0.0,0.0,0.0,0.9019,1.0798,0.0,1.3029,1.2807,1.303,1.3627,1.377,1.3919,1.4075,1.4231,1.4299,1.4299,1.4299,1.4299,1.4299,1.4299,1.438,1.4529,1.4679,1.4835,1.4991,1.5133,1.5187,1.5208,1.8477,1.8003,1.7308,1.4898,1.3341,1.2447,1.2494,1.2501,1.2501,1.2501,1.2501,1.2501,1.2501,1.2413,1.2298,1.2149,1.204,1.1898,1.1701,1.1687,1.1687,1.1687,1.1687,1.1708,1.1762,1.1857,1.1877,1.183,1.183,1.1749,1.1669,1.162,1.1545,1.1545,1.1545,1.1572,1.1613,1.1511,1.1497,1.1545,1.1484,1.1497,1.1552,1.1599,1.1619,1.1606,1.1504,1.1436,1.1375,1.1267,1.1138,1.1023,1.1077,1.0954,1.084,1.0697,1.0568,1.0446,1.0243,1.0154,1.0086,0.993,0.989,0.9883,0.9829,0.8958,0.8172,0.8211,0.6922,0.5408,0.4356,0.3295,0.2425,0.1953,0.0785,0.0263,0.0866,0.0934,0.0936,0.1007,0.2113,0.2395,0.1211,0.349,0.0,0.0,0.0,0.0,0.0,0.0,0.0,0.0,1.0841,0.0,1.2644,1.2705,1.2983,1.3478,1.3722,1.3973,1.4231,1.4278,1.4299,1.4299,1.4299,1.4299,1.4306,1.4407,1.4529,1.4679,1.4835,1.4984,1.512,1.5167,1.5181,1.5201,1.8607,1.7686,1.653,1.4689,1.3337,1.2501,1.2501,1.2501,1.2501,1.2501,1.2501,1.2501,1.2501,1.2325,1.2169,1.2149,1.1918,1.1769,1.1626,1.1619,1.1619,1.1619,1.1619,1.1619,1.1619,1.1708,1.1748,1.1748,1.1748,1.1708,1.1619,1.1619,1.1619,1.1619,1.1674,1.1667,1.1613,1.1572,1.1579,1.1613,1.1518,1.1531,1.1613,1.1558,1.1531,1.1511,1.1362,1.1274,1.1212,1.1111,1.0982,1.0793,1.0793,1.0793,1.0812,1.0568,1.0453,1.0358,1.0051,0.9943,0.9876,0.9842,0.9822,0.9822,0.9822,0.8526,0.7423,0.7423,0.5586,0.3702,0.268,0.1999,0.1194,0.0192,0.0,0.0,0.0,0.0,0.0337,0.1154,0.1232,0.1303,0.0,0.2441,0.3313,0.0,0.0,0.0,0.0,0.0,0.9445,0.8016,1.0437,1.2047,1.2501,1.2651,1.2983,1.3492,1.3844,1.4116,1.4299,1.4299,1.4299,1.4299,1.4299,1.4299,1.4312,1.4455,1.4604,1.4753,1.4909,1.5059,1.5181,1.5181,1.5181,1.5201,1.8532,1.6904,1.4935,1.3035,1.2579,1.2501,1.2501,1.2501,1.2501,1.2501,1.2501,1.2501,1.2488,1.223,1.206,1.2047,1.1904,1.1762,1.1626,1.1619,1.1619,1.1619,1.1619,1.1619,1.1619,1.1619,1.1619,1.1619,1.1619,1.1619,1.1619,1.1619,1.1619,1.1626,1.1755,1.1742,1.1626,1.1762,1.1742,1.1619,1.1606,1.1606,1.1586,1.1436,1.1375,1.1355,1.1206,1.1063,1.088,1.0867,1.0772,1.0717,1.0717,1.0717,1.069,1.0534,1.0392,1.0249,1.0031,0.9876,0.9822,0.9822,0.9822,0.9761,0.9633,0.8404,0.7174,0.7052,0.4545,0.2339,0.2339,0.1048,0.0,0.0,0.0,0.0,0.0,0.0,0.0751,0.2832,0.313,0.313,0.3134,0.3169,0.2362,0.0,0.0,0.0,0.0,0.0,1.0059,0.6105,0.9776,1.2054,1.2501,1.2664,1.3044,1.3648,1.4089,1.4299,1.4299,1.4299,1.4299,1.4299,1.4299,1.4306,1.4326,1.4468,1.4618,1.4774,1.4923,1.5065,1.5181,1.5181,1.5187,1.5221,1.8562,1.6904,1.5387,1.4859,1.3491,1.2501,1.2501,1.2501,1.2501,1.2501,1.2501,1.2461,1.2352,1.2176,1.2013,1.1898,1.1755,1.1653,1.1619,1.1619,1.1619,1.1619,1.1619,1.1619,1.1619,1.1619,1.1619,1.1619,1.1619,1.1619,1.1619,1.1619,1.1619,1.1619,1.1653,1.1653,1.1619,1.1653,1.1647,1.1606,1.1491,1.1443,1.143,1.1274,1.1219,1.1199,1.105,1.0907,1.086,1.0812,1.0751,1.0717,1.0717,1.0717,1.069,1.0534,1.0392,1.0249,1.0031,0.9876,0.9822,0.9822,0.9822,0.9451,0.8221,0.6691,0.5161,0.3935,0.2033,0.0617,0.0617,0.0247,0.0,0.0,0.0,0.0,0.0,0.0,0.0203,0.0692,0.0763,0.0835,0.0774,0.0777,0.1284,0.0,0.0,0.2411,0.2533,0.7199,0.8671,0.611,0.9905,1.2169,1.2501,1.2773,1.3207,1.3797,1.4136,1.4299,1.4299,1.4299,1.4299,1.4299,1.4299,1.436,1.4475,1.4624,1.478,1.493,1.5079,1.5153,1.5181,1.5181,1.5255,1.5377,1.698,1.554,1.4099,1.4099,1.3267,1.2501,1.2501,1.2501,1.2501,1.2501,1.2447,1.2379,1.2298,1.2094,1.1925,1.1837,1.1701,1.1619,1.1619,1.1619,1.1619,1.1619,1.1619,1.1619,1.1619,1.1619,1.1619,1.1619,1.1619,1.1619,1.1619,1.1619,1.1619,1.1619,1.1687,1.164,1.1518,1.1592,1.1538,1.1402,1.1321,1.1287,1.1267,1.1124,1.1063,1.1043,1.09,1.0779,1.0833,1.0751,1.0717,1.0717,1.0717,1.0717,1.069,1.0534,1.0392,1.0249,1.0031,0.9876,0.9633,0.8897,0.8708,0.8282,0.663,0.4977,0.3566,0.2708,0.1171,0.0,0.0,0.0,0.0,0.0,0.0,0.0,0.0,0.0,0.0,0.0,0.0,0.0,0.0,0.0,0.0495,0.1732,0.1742,0.0,0.1783,0.4646,0.6216,0.5991,1.0013,1.2277,1.2501,1.301,1.3458,1.3759,1.4156,1.4299,1.4299,1.4299,1.4299,1.4299,1.4299,1.438,1.4523,1.4679,1.4828,1.4984,1.5126,1.5181,1.5194,1.5262,1.5337,1.5445,1.4665,1.3662,1.2433,1.2433,1.2433,1.2433,1.2433,1.2433,1.2433,1.2433,1.2332,1.2244,1.2223,1.1986,1.1823,1.1803,1.1687,1.1619,1.1619,1.1619,1.1619,1.1619,1.1619,1.1619,1.1619,1.1619,1.1619,1.1619,1.1619,1.1619,1.1619,1.1619,1.1619,1.1619,1.1721,1.1626,1.1396,1.1504,1.1402,1.1227,1.1138,1.1131,1.1118,1.0968,1.0847,1.0833,1.0765,1.0717,1.0717,1.0717,1.0717,1.0717,1.0717,1.0717,1.069,1.0534,1.0392,1.0249,1.0031,0.9876,0.939,0.7789,0.7423,0.6869,0.4977,0.3507,0.2401,0.2156,0.0986,0.0,0.0,0.0,0.0125,0.0454,0.0263,0.0134,0.0483,0.0209,0.0,0.0,0.0,0.0,0.0,0.0,0.0,0.0,0.0,0.0,0.0,0.1874,0.3922,0.5985,0.9829,1.2099,1.2603,1.3308,1.3722,1.3759,1.4156,1.4299,1.4299,1.4299,1.4299,1.4299,1.4326,1.4414,1.4557,1.4713,1.4862,1.5018,1.5133,1.5181,1.5201,1.5357,1.5425,1.5486,1.2775,1.2443,1.2128,1.2128,1.2128,1.2128,1.2128,1.2128,1.2128,1.2128,1.2108,1.2047,1.1918,1.1857,1.1782,1.166,1.1633,1.1619,1.1619,1.1619,1.1619,1.1619,1.1619,1.1619,1.1619,1.1619,1.1619,1.1619,1.1619,1.1619,1.1619,1.1619,1.1619,1.1613,1.1504,1.1436,1.1382,1.128,1.1206,1.122,1.1029,1.0982,1.0894,1.0812,1.0758,1.0751,1.0731,1.0717,1.0717,1.0717,1.0717,1.0717,1.0717,1.0717,1.069,1.0534,1.0392,1.0249,1.0031,0.9876,0.939,0.7789,0.7423,0.6625,0.3566,0.2708,0.2094,0.0679,0.0185,0.0,0.0,0.0,0.064,0.2692,0.1348,0.0683,0.2721,0.1277,0.0,0.0,0.0,0.0,0.0,0.0,0.0,0.0,0.0,0.0,0.0,0.1916,0.4097,0.6367,0.8677,1.0919,1.3064,1.3559,1.3817,1.3759,1.4156,1.4299,1.4299,1.4299,1.4299,1.4306,1.4428,1.4563,1.4719,1.4869,1.5018,1.5153,1.5174,1.5181,1.5201,1.5357,1.5493,1.5628,1.2169,1.2108,1.2135,1.2135,1.2135,1.2135,1.2135,1.2135,1.2135,1.2135,1.1986,1.1911,1.1837,1.1762,1.1687,1.1626,1.1619,1.1619,1.1619,1.1619,1.1619,1.1619,1.1619,1.1619,1.1619,1.1619,1.1619,1.1619,1.1619,1.1619,1.1619,1.1619,1.1619,1.1613,1.1457,1.1348,1.126,1.1111,1.1002,1.0921,1.0853,1.0759,1.0819,1.0744,1.0717,1.0717,1.0717,1.0717,1.0717,1.0717,1.0717,1.0717,1.0717,1.0717,1.0677,1.0446,1.027,1.012,0.9909,0.9191,0.8099,0.6446,0.5403,0.4116,0.1725,0.1171,0.0925,0.0185,0.0,0.0,0.0,0.0,0.0388,0.1468,0.0749,0.0417,0.1507,0.0718,0.0,0.0,0.0,0.0,0.0,0.0,0.0,0.0,0.0,0.0,0.0,0.0931,0.2429,0.4614,0.9044,1.1987,1.3173,1.362,1.3838,1.3759,1.4156,1.4299,1.4299,1.4299,1.4299,1.4306,1.4448,1.4597,1.4753,1.4909,1.5052,1.5181,1.5181,1.5235,1.5323,1.5479,1.5628,1.5778,1.2006,1.1979,1.1959,1.1959,1.1959,1.1959,1.1959,1.1959,1.1959,1.1959,1.1857,1.1782,1.1782,1.1687,1.1619,1.1619,1.1619,1.1619,1.1619,1.1619,1.1619,1.1619,1.1619,1.1619,1.1619,1.1619,1.1619,1.1619,1.1619,1.1619,1.1619,1.1586,1.1565,1.1558,1.1369,1.1226,1.1104,1.0955,1.0759,1.0717,1.0717,1.0717,1.0717,1.0717,1.0717,1.0717,1.0717,1.0717,1.0717,1.0717,1.0717,1.0717,1.0717,1.0697,1.0616,1.0358,0.989,0.9347,0.9294,0.8343,0.693,0.4855,0.3444,0.2033,0.037,0.0,0.0,0.0,0.0,0.0,0.0,0.0,0.0198,0.0743,0.0346,0.0213,0.0726,0.0365,0.0,0.0,0.0,0.0,0.0,0.0,0.0,0.0,0.0,0.0,0.0,0.0,0.0952,0.3051,0.9131,1.2445,1.2477,1.3374,1.3838,1.3759,1.4156,1.4299,1.4299,1.4299,1.4319,1.4353,1.4502,1.4652,1.4808,1.4957,1.5086,1.5181,1.5181,1.5276,1.5432,1.5581,1.573,1.5872,1.185,1.1742,1.1653,1.1653,1.1653,1.1653,1.1653,1.1653,1.1653,1.1653,1.164,1.1633,1.1633,1.1626,1.1619,1.1619,1.1619,1.1619,1.1619,1.1619,1.1619,1.1619,1.1619,1.1619,1.1619,1.1619,1.1619,1.1619,1.1619,1.1619,1.1613,1.147,1.1409,1.1396,1.1111,1.0907,1.0887,1.0799,1.0731,1.0717,1.0717,1.0717,1.0717,1.0717,1.0717,1.0717,1.0717,1.0717,1.0717,1.0717,1.0717,1.0717,1.0717,1.0622,1.048,1.0324,0.8994,0.7617,0.7606,0.7484,0.6625,0.3444,0.2585,0.2033,0.037,0.0,0.0,0.0,0.0,0.0,0.0,0.0,0.0765,0.2992,0.1447,0.0799,0.304,0.1414,0.0,0.0,0.0,0.0,0.0,0.0,0.0,0.0,0.0,0.0,0.0,0.0,0.1048,0.3208,0.7647,1.0174,1.0367,1.2658,1.3838,1.3759,1.4156,1.4299,1.4299,1.4299,1.4373,1.4502,1.4658,1.4814,1.4964,1.5106,1.5174,1.5181,1.5181,1.5276,1.5432,1.5581,1.573,1.5872,1.1701,1.1653,1.1619,1.1619,1.1619,1.1619,1.1619,1.1619,1.1619,1.1619,1.1619,1.1619,1.1619,1.1619,1.1619,1.1619,1.1619,1.1619,1.1619,1.1619,1.1619,1.1619,1.1619,1.1619,1.1619,1.1619,1.1619,1.1619,1.1619,1.1572,1.1477,1.1416,1.1341,1.124,1.1036,1.088,1.0873,1.0785,1.0717,1.0717,1.0717,1.0717,1.0717,1.0717,1.0717,1.0717,1.0717,1.0717,1.0717,1.0717,1.0717,1.0717,1.0717,1.0616,1.0245,0.8989,0.8048,0.693,0.4913,0.4361,0.4055,0.2831,0.1725,0.0802,0.0123,0.0,0.0,0.0,0.0,0.0,0.0,0.0,0.028,0.1214,0.0577,0.0292,0.1263,0.0589,0.0,0.0,0.0,0.0,0.0,0.0,0.0,0.0,0.0,0.0,0.0,0.0,0.041,0.124,0.4152,0.7198,1.0151,1.2617,1.3885,1.3987,1.4197,1.4299,1.4306,1.4394,1.4462,1.4523,1.4774,1.4916,1.4984,1.5126,1.5181,1.5194,1.5289,1.5418,1.5574,1.5716,1.5866,1.6001,1.1619,1.1619,1.1619,1.1619,1.1619,1.1619,1.1619,1.1619,1.1619,1.1619,1.1619,1.1619,1.1619,1.1619,1.1619,1.1619,1.1619,1.1619,1.1619,1.1619,1.1619,1.1619,1.1619,1.1619,1.1619,1.1619,1.1619,1.1619,1.1572,1.1497,1.1389,1.1294,1.1199,1.109,1.0941,1.0806,1.0799,1.0765,1.0717,1.0717,1.0717,1.0717,1.0717,1.0717,1.0717,1.0717,1.0717,1.0717,1.0717,1.0717,1.0717,1.0717,1.0717,1.0582,1.0044,0.8108,0.7111,0.6014,0.3259,0.2094,0.1725,0.1725,0.0867,0.0,0.0,0.0,0.0,0.0,0.0,0.0,0.0,0.0,0.0,0.0,0.0,0.0,0.0,0.0,0.0,0.0,0.0,0.0,0.0,0.0,0.0,0.0,0.0,0.0,0.0,0.0,0.0,0.0,0.2183,0.5253,0.9242,1.163,1.3217,1.4075,1.4224,1.4299,1.4306,1.4448,1.4536,1.4597,1.4855,1.4997,1.5045,1.514,1.5181,1.5201,1.535,1.5506,1.5655,1.5798,1.5947,1.6083,1.1619,1.1619,1.1619,1.1619,1.1619,1.1619,1.1619,1.1619,1.1619,1.1619,1.1619,1.1619,1.1619,1.1619,1.1619,1.1619,1.1619,1.1619,1.1619,1.1619,1.1619,1.1619,1.1619,1.1619,1.1619,1.1619,1.1619,1.1619,1.1463,1.1396,1.1382,1.109,1.088,1.0873,1.0792,1.0724,1.0717,1.0717,1.0717,1.0717,1.0717,1.0717,1.0717,1.0717,1.0717,1.0717,1.0717,1.0717,1.0717,1.0717,1.0717,1.0717,1.0717,1.0514,0.9899,0.7921,0.6198,0.4548,0.2893,0.1295,0.0,0.0,0.0,0.0,0.0,0.0,0.0,0.0,0.0,0.0,0.0,0.0,0.0,0.0,0.0,0.0,0.0,0.0,0.0,0.0,0.0,0.0,0.0,0.0,0.0,0.0,0.0,0.0,0.0,0.0,0.0,0.0,0.2209,0.4544,0.7094,0.9339,1.1738,1.4075,1.4231,1.4299,1.4306,1.4448,1.4597,1.4753,1.4903,1.5052,1.5181,1.5181,1.5181,1.5201,1.535,1.5506,1.5655,1.5798,1.5947,1.6083,1.164,1.1619,1.1619,1.1619,1.1619,1.1619,1.1619,1.1619,1.1619,1.1619,1.1619,1.1619,1.1619,1.1619,1.1619,1.1619,1.1619,1.1619,1.1619,1.1619,1.1619,1.1619,1.1619,1.1619,1.1619,1.1619,1.1619,1.1619,1.1572,1.1497,1.1389,1.1301,1.1151,1.088,1.0833,1.0819,1.0717,1.0717,1.0717,1.0717,1.0717,1.0717,1.0717,1.0717,1.0717,1.0717,1.0717,1.0717,1.0717,1.0717,1.0717,1.0683,1.048,0.9569,0.8171,0.6196,0.4487,0.2831,0.1171,0.0376,0.0,0.0,0.0,0.0,0.0,0.0,0.0,0.0,0.0,0.0,0.0,0.0,0.0,0.0,0.0,0.0,0.0,0.0,0.0,0.0,0.0,0.0,0.0,0.0,0.0,0.0,0.0,0.0,0.0,0.0,0.0,0.0,0.0681,0.3003,0.7094,0.9325,1.1783,1.4231,1.4278,1.4353,1.4455,1.4604,1.4753,1.4909,1.5059,1.5147,1.5181,1.5181,1.5181,1.5208,1.5466,1.5601,1.5655,1.5798,1.5947,1.6069,1.1721,1.166,1.1619,1.1619,1.1619,1.1619,1.1619,1.1619,1.1619,1.1619,1.1619,1.1619,1.1619,1.1619,1.1619,1.1619,1.1619,1.1619,1.1619,1.1619,1.1619,1.1619,1.1619,1.1619,1.1619,1.1619,1.1619,1.1619,1.1558,1.1484,1.1389,1.1328,1.1206,1.1029,1.1029,1.0982,1.0894,1.0833,1.0812,1.0739,1.0744,1.0717,1.0717,1.0717,1.0717,1.0717,1.0717,1.0717,1.0717,1.0717,1.0246,0.9474,0.8545,0.7572,0.6374,0.4505,0.3242,0.2131,0.044,0.0,0.0,0.0,0.0,0.0,0.0,0.0,0.0,0.0,0.0,0.0,0.0,0.0,0.0,0.0,0.0,0.0,0.0,0.0,0.0,0.0,0.0,0.0,0.0,0.0,0.0,0.0,0.0,0.0,0.0,0.0,0.0,0.0,0.0,0.1811,0.5712,0.799,1.0916,1.4299,1.4353,1.4428,1.4516,1.4733,1.4882,1.4977,1.512,1.5181,1.5181,1.5181,1.5215,1.5296,1.554,1.5642,1.5662,1.5866,1.5961,1.5988,1.1857,1.1735,1.164,1.164,1.1626,1.1619,1.1619,1.1619,1.1619,1.1619,1.1619,1.1619,1.1619,1.1619,1.1619,1.1619,1.1619,1.1613,1.1599,1.1599,1.1592,1.1579,1.1592,1.1599,1.1599,1.1613,1.1619,1.1619,1.1484,1.1409,1.1409,1.1267,1.1199,1.1255,1.1255,1.1241,1.122,1.1023,1.09,1.0887,1.0799,1.0744,1.0738,1.0724,1.0717,1.0717,1.0717,1.0717,1.0651,1.0518,0.9238,0.7479,0.5664,0.4988,0.4571,0.2993,0.2425,0.1935,0.0388,0.0,0.0,0.0,0.0,0.0,0.0,0.0,0.0,0.0,0.0,0.0,0.0,0.0,0.0,0.0,0.0,0.0,0.0,0.0,0.0,0.0,0.0,0.0,0.0,0.0,0.0,0.0,0.0,0.0,0.0,0.0,0.0,0.0,0.0,0.1131,0.3559,0.5927,0.938,1.3945,1.4352,1.4516,1.4543,1.4835,1.4977,1.4997,1.5126,1.5181,1.5181,1.5181,1.5269,1.5425,1.556,1.5628,1.5669,1.5927,1.5947,1.5872,1.2033,1.1891,1.1782,1.1782,1.1694,1.1619,1.1619,1.1619,1.1619,1.1619,1.1619,1.1619,1.1619,1.1619,1.1619,1.1619,1.1619,1.1565,1.145,1.1443,1.1389,1.1267,1.1375,1.1443,1.1443,1.1558,1.1619,1.1619,1.1586,1.1572,1.1565,1.1538,1.1457,1.1341,1.1341,1.1274,1.1227,1.1131,1.1118,1.1104,1.0955,1.0833,1.082,1.0765,1.0717,1.0717,1.0717,1.0717,1.0452,0.9039,0.7431,0.5882,0.5274,0.4267,0.3148,0.2674,0.1568,0.046,0.0067,0.0,0.0,0.0,0.0,0.0,0.0,0.0,0.0,0.0,0.0,0.0,0.0,0.0,0.0,0.0,0.0,0.0,0.0,0.0,0.0,0.0,0.0,0.0,0.0,0.0,0.0,0.0,0.0,0.0,0.0,0.0,0.0,0.0,0.0,0.1143,0.3599,0.595,0.8575,1.1522,1.3534,1.4577,1.4699,1.4889,1.5031,1.514,1.5167,1.5181,1.5181,1.5181,1.5269,1.5411,1.5445,1.5533,1.5635,1.5574,1.5683,1.5872,1.2189,1.2047,1.1938,1.1938,1.1816,1.1721,1.1721,1.166,1.1619,1.1619,1.1619,1.1619,1.1619,1.1619,1.1619,1.1619,1.1619,1.1586,1.1504,1.1497,1.1463,1.1382,1.1457,1.1497,1.1497,1.1579,1.1619,1.1619,1.1619,1.1619,1.1619,1.1619,1.1579,1.1497,1.1497,1.1457,1.1375,1.1301,1.1274,1.1253,1.1036,1.088,1.086,1.0778,1.018,0.9443,0.9443,0.8906,0.7902,0.6093,0.4891,0.3957,0.295,0.208,0.141,0.1343,0.0675,0.0,0.0,0.0,0.0,0.0,0.0,0.0,0.0,0.0,0.0,0.0,0.0,0.0,0.0,0.0,0.0,0.0,0.0,0.0,0.0,0.0,0.0,0.0,0.0,0.0,0.0,0.0,0.0,0.0,0.0,0.0,0.0,0.0,0.0,0.0,0.0,0.0618,0.1852,0.5452,0.7922,0.9182,1.2819,1.4699,1.4855,1.5004,1.5113,1.5181,1.5181,1.5181,1.5174,1.5113,1.5215,1.5404,1.533,1.5398,1.5527,1.552,1.5662,1.5866,1.2325,1.2203,1.2101,1.2101,1.1972,1.187,1.187,1.1769,1.1687,1.166,1.1653,1.1647,1.1619,1.1619,1.1619,1.1619,1.1619,1.1606,1.1586,1.1579,1.1565,1.1545,1.1565,1.1579,1.1579,1.1606,1.1619,1.1619,1.1619,1.1619,1.1619,1.1619,1.1619,1.1619,1.1619,1.1619,1.1613,1.1484,1.1217,1.0902,1.0642,1.0265,0.9968,0.9875,0.8873,0.7588,0.7569,0.6431,0.4696,0.323,0.2493,0.1959,0.0481,0.0,0.0,0.0,0.0,0.0,0.0,0.0,0.0,0.0,0.0,0.0,0.0,0.0,0.0,0.0,0.0,0.0,0.0,0.0,0.0,0.0,0.0,0.0,0.0,0.0,0.0,0.0,0.0,0.0,0.0,0.0,0.0,0.0,0.0,0.0,0.0,0.0,0.0,0.0,0.0,0.0,0.0,0.4502,0.6997,0.7464,1.1947,1.4382,1.4977,1.512,1.5181,1.5181,1.5153,1.5147,1.5133,1.4991,1.5106,1.5357,1.5208,1.5255,1.5432,1.5581,1.5696,1.5791,1.2474,1.2359,1.2257,1.2257,1.2135,1.2033,1.2033,1.2013,1.1952,1.1823,1.1803,1.1755,1.1633,1.1619,1.1619,1.1619,1.1619,1.1565,1.143,1.1423,1.1362,1.1226,1.1348,1.1423,1.1423,1.1552,1.1619,1.1619,1.1619,1.1619,1.1619,1.1619,1.1619,1.1619,1.1619,1.1619,1.1619,1.1599,1.0568,0.9032,0.8894,0.7781,0.6285,0.6199,0.5937,0.5722,0.5722,0.4626,0.3026,0.2791,0.1642,0.0343,0.007,0.0,0.0,0.0,0.0,0.0,0.0,0.0,0.0,0.0,0.0,0.0,0.0,0.0,0.0,0.0,0.0,0.0,0.0,0.0,0.0,0.0,0.0,0.0,0.0,0.0,0.0,0.0,0.0,0.0,0.0,0.0,0.0,0.0,0.0,0.0,0.0,0.0,0.0,0.0,0.0,0.0,0.0,0.2713,0.529,0.7629,1.0397,1.2882,1.4977,1.512,1.5181,1.5174,1.5052,1.4997,1.4991,1.4835,1.4943,1.5201,1.5059,1.5167,1.5432,1.5581,1.5567,1.5527,1.2501,1.2447,1.2406,1.2406,1.2284,1.2189,1.2189,1.2115,1.204,1.1972,1.1884,1.1809,1.1742,1.1667,1.1619,1.1619,1.1619,1.1592,1.1525,1.1518,1.1491,1.1423,1.1484,1.1518,1.1518,1.1586,1.1619,1.1619,1.1619,1.1619,1.1619,1.1619,1.1619,1.1619,1.1619,1.1031,1.0011,1.0011,0.8853,0.7102,0.6939,0.6331,0.5608,0.5463,0.4792,0.3764,0.2723,0.1903,0.1159,0.1175,0.0695,0.0,0.0,0.0,0.0,0.0,0.0,0.0,0.0,0.0,0.0,0.0,0.0,0.0,0.0,0.0,0.0,0.0,0.0,0.0,0.0,0.0,0.0,0.0,0.0,0.0,0.0,0.0,0.0,0.0,0.0,0.0,0.0,0.0,0.0,0.0,0.0,0.0,0.0,0.0,0.0,0.0,0.0,0.0,0.0,0.2465,0.5066,0.7617,1.0133,1.2631,1.5092,1.5153,1.514,1.5059,1.4997,1.4923,1.4835,1.4767,1.4869,1.5059,1.4997,1.5099,1.5289,1.5357,1.5452,1.5567]}]]